Wetterdaten: Freitag, 06.11.2015
Datum Zeit Temp. A. Feuchte A. Luftdruck Regen Wind Richtung Richtung Sonnenschein ET UV Solar Taupunkt Windchill Windben Empfang
06.11.2015 00:00 5,3 C 98 % 1022,9 hPa 0,0 l/m 0,0 km/h (0 Bft) S-SO 165 0 min 0,000 mm 0,0 UV-I 0 W/m 5,0 C 5,3 C 0,0 km/h (0 Bft) 100,00 %
06.11.2015 00:01 5,3 C 97 % 1022,8 hPa 0,0 l/m 0,0 km/h (0 Bft) S-SO 165 0 min 0,000 mm 0,0 UV-I 0 W/m 4,9 C 5,3 C 0,0 km/h (0 Bft) 90,91 %
06.11.2015 00:02 5,2 C 97 % 1022,9 hPa 0,0 l/m 0,0 km/h (0 Bft) S-SO 165 0 min 0,000 mm 0,0 UV-I 0 W/m 4,8 C 5,2 C 0,0 km/h (0 Bft) 100,00 %
06.11.2015 00:03 5,1 C 97 % 1022,8 hPa 0,0 l/m 0,0 km/h (0 Bft) S-SO 165 0 min 0,000 mm 0,0 UV-I 0 W/m 4,7 C 5,1 C 0,0 km/h (0 Bft) 100,00 %
06.11.2015 00:04 5,1 C 97 % 1022,8 hPa 0,0 l/m 0,0 km/h (0 Bft) S-SO 165 0 min 0,000 mm 0,0 UV-I 0 W/m 4,7 C 5,1 C 0,0 km/h (0 Bft) 91,30 %
06.11.2015 00:05 5,1 C 97 % 1022,9 hPa 0,0 l/m 0,0 km/h (0 Bft) S-SO 165 0 min 0,000 mm 0,0 UV-I 0 W/m 4,7 C 5,1 C 0,0 km/h (0 Bft) 100,00 %
06.11.2015 00:06 5,1 C 97 % 1022,8 hPa 0,0 l/m 0,0 km/h (0 Bft) S-SO 165 0 min 0,000 mm 0,0 UV-I 0 W/m 4,7 C 5,1 C 0,0 km/h (0 Bft) 100,00 %
06.11.2015 00:07 5,0 C 97 % 1022,9 hPa 0,0 l/m 0,0 km/h (0 Bft) S-SO 165 0 min 0,000 mm 0,0 UV-I 0 W/m 4,6 C 5,0 C 0,0 km/h (0 Bft) 100,00 %
06.11.2015 00:08 4,9 C 97 % 1022,8 hPa 0,0 l/m 0,0 km/h (0 Bft) S-SO 165 0 min 0,000 mm 0,0 UV-I 0 W/m 4,5 C 4,9 C 0,0 km/h (0 Bft) 100,00 %
06.11.2015 00:09 4,9 C 97 % 1022,8 hPa 0,0 l/m 0,0 km/h (0 Bft) S-SO 165 0 min 0,000 mm 0,0 UV-I 0 W/m 4,5 C 4,9 C 0,0 km/h (0 Bft) 100,00 %
06.11.2015 00:10 4,9 C 97 % 1022,8 hPa 0,0 l/m 0,0 km/h (0 Bft) S-SO 165 0 min 0,000 mm 0,0 UV-I 0 W/m 4,5 C 4,9 C 0,0 km/h (0 Bft) 100,00 %
06.11.2015 00:11 4,9 C 97 % 1022,8 hPa 0,0 l/m 0,0 km/h (0 Bft) S-SO 165 0 min 0,000 mm 0,0 UV-I 0 W/m 4,5 C 4,9 C 0,0 km/h (0 Bft) 100,00 %
06.11.2015 00:12 4,9 C 97 % 1022,8 hPa 0,0 l/m 0,0 km/h (0 Bft) S-SO 165 0 min 0,000 mm 0,0 UV-I 0 W/m 4,5 C 4,9 C 0,0 km/h (0 Bft) 100,00 %
06.11.2015 00:13 5,0 C 98 % 1022,9 hPa 0,0 l/m 0,0 km/h (0 Bft) S-SO 165 0 min 0,000 mm 0,0 UV-I 0 W/m 4,7 C 5,0 C 0,0 km/h (0 Bft) 100,00 %
06.11.2015 00:14 5,0 C 98 % 1022,9 hPa 0,0 l/m 0,0 km/h (0 Bft) S-SO 165 0 min 0,000 mm 0,0 UV-I 0 W/m 4,7 C 5,0 C 0,0 km/h (0 Bft) 100,00 %
06.11.2015 00:15 5,0 C 98 % 1022,8 hPa 0,0 l/m 0,0 km/h (0 Bft) S-SO 165 0 min 0,000 mm 0,0 UV-I 0 W/m 4,7 C 5,0 C 0,0 km/h (0 Bft) 100,00 %
06.11.2015 00:16 4,9 C 98 % 1022,9 hPa 0,0 l/m 0,0 km/h (0 Bft) S-SO 165 0 min 0,000 mm 0,0 UV-I 0 W/m 4,6 C 4,9 C 0,0 km/h (0 Bft) 100,00 %
06.11.2015 00:17 4,9 C 98 % 1022,9 hPa 0,0 l/m 0,0 km/h (0 Bft) S-SO 165 0 min 0,000 mm 0,0 UV-I 0 W/m 4,6 C 4,9 C 0,0 km/h (0 Bft) 100,00 %
06.11.2015 00:18 4,9 C 98 % 1022,8 hPa 0,0 l/m 0,0 km/h (0 Bft) S-SO 165 0 min 0,000 mm 0,0 UV-I 0 W/m 4,6 C 4,9 C 0,0 km/h (0 Bft) 95,83 %
06.11.2015 00:19 4,8 C 97 % 1022,8 hPa 0,0 l/m 0,0 km/h (0 Bft) S-SO 165 0 min 0,000 mm 0,0 UV-I 0 W/m 4,4 C 4,8 C 0,0 km/h (0 Bft) 100,00 %
06.11.2015 00:20 4,8 C 97 % 1022,9 hPa 0,0 l/m 0,0 km/h (0 Bft) S-SO 165 0 min 0,000 mm 0,0 UV-I 0 W/m 4,4 C 4,8 C 0,0 km/h (0 Bft) 100,00 %
06.11.2015 00:21 4,7 C 97 % 1022,8 hPa 0,0 l/m 0,0 km/h (0 Bft) S-SO 165 0 min 0,000 mm 0,0 UV-I 0 W/m 4,3 C 4,7 C 0,0 km/h (0 Bft) 96,15 %
06.11.2015 00:22 4,7 C 97 % 1022,9 hPa 0,0 l/m 0,0 km/h (0 Bft) S-SO 165 0 min 0,000 mm 0,0 UV-I 0 W/m 4,3 C 4,7 C 0,0 km/h (0 Bft) 100,00 %
06.11.2015 00:23 4,7 C 97 % 1022,8 hPa 0,0 l/m 0,0 km/h (0 Bft) S-SO 165 0 min 0,000 mm 0,0 UV-I 0 W/m 4,3 C 4,7 C 0,0 km/h (0 Bft) 100,00 %
06.11.2015 00:24 4,7 C 97 % 1022,8 hPa 0,0 l/m 0,0 km/h (0 Bft) S-SO 165 0 min 0,000 mm 0,0 UV-I 0 W/m 4,3 C 4,7 C 0,0 km/h (0 Bft) 100,00 %
06.11.2015 00:25 4,6 C 97 % 1022,8 hPa 0,0 l/m 0,0 km/h (0 Bft) S-SO 165 0 min 0,000 mm 0,0 UV-I 0 W/m 4,2 C 4,6 C 0,0 km/h (0 Bft) 95,65 %
06.11.2015 00:26 4,4 C 97 % 1022,9 hPa 0,0 l/m 0,0 km/h (0 Bft) S-SO 165 0 min 0,000 mm 0,0 UV-I 0 W/m 4,0 C 4,4 C 0,0 km/h (0 Bft) 100,00 %
06.11.2015 00:27 4,4 C 97 % 1022,9 hPa 0,0 l/m 0,0 km/h (0 Bft) S-SO 165 0 min 0,000 mm 0,0 UV-I 0 W/m 4,0 C 4,4 C 0,0 km/h (0 Bft) 100,00 %
06.11.2015 00:28 4,3 C 97 % 1022,9 hPa 0,0 l/m 0,0 km/h (0 Bft) S-SO 165 0 min 0,000 mm 0,0 UV-I 0 W/m 3,9 C 4,3 C 0,0 km/h (0 Bft) 95,83 %
06.11.2015 00:29 4,2 C 97 % 1022,9 hPa 0,0 l/m 0,0 km/h (0 Bft) S-SO 165 0 min 0,000 mm 0,0 UV-I 0 W/m 3,8 C 4,2 C 0,0 km/h (0 Bft) 100,00 %
06.11.2015 00:30 4,2 C 97 % 1022,9 hPa 0,0 l/m 0,0 km/h (0 Bft) S-SO 165 0 min 0,000 mm 0,0 UV-I 0 W/m 3,8 C 4,2 C 0,0 km/h (0 Bft) 100,00 %
06.11.2015 00:31 4,2 C 97 % 1022,9 hPa 0,0 l/m 0,0 km/h (0 Bft) S-SO 165 0 min 0,000 mm 0,0 UV-I 0 W/m 3,8 C 4,2 C 0,0 km/h (0 Bft) 95,65 %
06.11.2015 00:32 4,2 C 97 % 1022,9 hPa 0,0 l/m 0,0 km/h (0 Bft) S-SO 165 0 min 0,000 mm 0,0 UV-I 0 W/m 3,8 C 4,2 C 0,0 km/h (0 Bft) 100,00 %
06.11.2015 00:33 4,2 C 97 % 1022,9 hPa 0,0 l/m 0,0 km/h (0 Bft) S-SO 165 0 min 0,000 mm 0,0 UV-I 0 W/m 3,8 C 4,2 C 0,0 km/h (0 Bft) 100,00 %
06.11.2015 00:34 4,2 C 97 % 1023,0 hPa 0,0 l/m 0,0 km/h (0 Bft) S-SO 165 0 min 0,000 mm 0,0 UV-I 0 W/m 3,8 C 4,2 C 0,0 km/h (0 Bft) 100,00 %
06.11.2015 00:35 4,3 C 97 % 1023,0 hPa 0,0 l/m 0,0 km/h (0 Bft) S-SO 165 0 min 0,000 mm 0,0 UV-I 0 W/m 3,9 C 4,3 C 0,0 km/h (0 Bft) 100,00 %
06.11.2015 00:36 4,3 C 98 % 1022,9 hPa 0,0 l/m 0,1 km/h (0 Bft) S-SO 165 0 min 0,000 mm 0,0 UV-I 0 W/m 4,0 C 4,3 C 1,6 km/h (1 Bft) 100,00 %
06.11.2015 00:37 4,4 C 98 % 1022,9 hPa 0,0 l/m 0,0 km/h (0 Bft) S-SO 165 0 min 0,000 mm 0,0 UV-I 0 W/m 4,1 C 4,4 C 0,0 km/h (0 Bft) 100,00 %
06.11.2015 00:38 4,4 C 98 % 1022,9 hPa 0,0 l/m 0,0 km/h (0 Bft) S-SO 165 0 min 0,000 mm 0,0 UV-I 0 W/m 4,1 C 4,4 C 0,0 km/h (0 Bft) 100,00 %
06.11.2015 00:39 4,4 C 98 % 1023,0 hPa 0,0 l/m 1,0 km/h (0 Bft) S-SO 165 0 min 0,000 mm 0,0 UV-I 0 W/m 4,1 C 4,4 C 1,6 km/h (1 Bft) 100,00 %
06.11.2015 00:40 4,4 C 98 % 1022,9 hPa 0,0 l/m 1,0 km/h (0 Bft) S-SO 165 0 min 0,000 mm 0,0 UV-I 0 W/m 4,1 C 4,4 C 1,6 km/h (1 Bft) 100,00 %
06.11.2015 00:41 4,5 C 98 % 1022,9 hPa 0,0 l/m 0,8 km/h (0 Bft) S-SO 165 0 min 0,000 mm 0,0 UV-I 0 W/m 4,2 C 4,5 C 1,6 km/h (1 Bft) 100,00 %
06.11.2015 00:42 4,6 C 98 % 1023,0 hPa 0,0 l/m 0,2 km/h (0 Bft) S-SO 165 0 min 0,000 mm 0,0 UV-I 0 W/m 4,3 C 4,6 C 1,6 km/h (1 Bft) 96,15 %
06.11.2015 00:43 4,6 C 98 % 1023,0 hPa 0,0 l/m 0,0 km/h (0 Bft) S-SO 165 0 min 0,000 mm 0,0 UV-I 0 W/m 4,3 C 4,6 C 0,0 km/h (0 Bft) 100,00 %
06.11.2015 00:44 4,7 C 98 % 1022,9 hPa 0,0 l/m 0,0 km/h (0 Bft) S-SO 165 0 min 0,000 mm 0,0 UV-I 0 W/m 4,4 C 4,7 C 0,0 km/h (0 Bft) 100,00 %
06.11.2015 00:45 4,7 C 98 % 1022,9 hPa 0,0 l/m 0,0 km/h (0 Bft) S-SO 165 0 min 0,000 mm 0,0 UV-I 0 W/m 4,4 C 4,7 C 0,0 km/h (0 Bft) 100,00 %
06.11.2015 00:46 4,8 C 98 % 1023,0 hPa 0,0 l/m 0,0 km/h (0 Bft) S-SO 165 0 min 0,000 mm 0,0 UV-I 0 W/m 4,5 C 4,8 C 0,0 km/h (0 Bft) 100,00 %
06.11.2015 00:47 4,8 C 98 % 1022,9 hPa 0,0 l/m 0,0 km/h (0 Bft) S-SO 165 0 min 0,000 mm 0,0 UV-I 0 W/m 4,5 C 4,8 C 0,0 km/h (0 Bft) 100,00 %
06.11.2015 00:48 4,7 C 98 % 1022,9 hPa 0,0 l/m 0,0 km/h (0 Bft) S-SO 165 0 min 0,000 mm 0,0 UV-I 0 W/m 4,4 C 4,7 C 0,0 km/h (0 Bft) 100,00 %
06.11.2015 00:49 4,6 C 98 % 1022,9 hPa 0,0 l/m 0,1 km/h (0 Bft) S-SO 165 0 min 0,000 mm 0,0 UV-I 0 W/m 4,3 C 4,6 C 1,6 km/h (1 Bft) 100,00 %
06.11.2015 00:50 4,6 C 98 % 1022,9 hPa 0,0 l/m 0,1 km/h (0 Bft) S-SO 165 0 min 0,000 mm 0,0 UV-I 0 W/m 4,3 C 4,6 C 1,6 km/h (1 Bft) 96,15 %
06.11.2015 00:51 4,5 C 98 % 1022,9 hPa 0,0 l/m 0,0 km/h (0 Bft) S-SO 165 0 min 0,000 mm 0,0 UV-I 0 W/m 4,2 C 4,5 C 0,0 km/h (0 Bft) 100,00 %
06.11.2015 00:52 4,4 C 98 % 1022,9 hPa 0,0 l/m 0,0 km/h (0 Bft) S-SO 165 0 min 0,000 mm 0,0 UV-I 0 W/m 4,1 C 4,4 C 0,0 km/h (0 Bft) 100,00 %
06.11.2015 00:53 4,4 C 98 % 1022,9 hPa 0,0 l/m 0,0 km/h (0 Bft) S-SO 165 0 min 0,000 mm 0,0 UV-I 0 W/m 4,1 C 4,4 C 0,0 km/h (0 Bft) 97,37 %
06.11.2015 00:54 4,3 C 98 % 1022,9 hPa 0,0 l/m 0,5 km/h (0 Bft) S-SO 165 0 min 0,000 mm 0,0 UV-I 0 W/m 4,0 C 4,3 C 1,6 km/h (1 Bft) 92,31 %
06.11.2015 00:55 4,4 C 98 % 1022,9 hPa 0,0 l/m 1,7 km/h (1 Bft) S-SO 165 0 min 0,000 mm 0,0 UV-I 0 W/m 4,1 C 4,4 C 3,2 km/h (1 Bft) 100,00 %
06.11.2015 00:56 4,4 C 98 % 1022,9 hPa 0,0 l/m 1,7 km/h (1 Bft) S-SO 165 0 min 0,000 mm 0,0 UV-I 0 W/m 4,1 C 4,4 C 3,2 km/h (1 Bft) 100,00 %
06.11.2015 00:57 4,4 C 98 % 1023,0 hPa 0,0 l/m 1,1 km/h (1 Bft) S-SO 165 0 min 0,000 mm 0,0 UV-I 0 W/m 4,1 C 4,4 C 1,6 km/h (1 Bft) 100,00 %
06.11.2015 00:58 4,4 C 98 % 1023,0 hPa 0,0 l/m 1,5 km/h (1 Bft) S-SO 165 0 min 0,000 mm 0,0 UV-I 0 W/m 4,1 C 4,4 C 1,6 km/h (1 Bft) 100,00 %
06.11.2015 00:59 4,4 C 98 % 1023,0 hPa 0,0 l/m 1,2 km/h (1 Bft) S-SO 165 0 min 0,000 mm 0,0 UV-I 0 W/m 4,1 C 4,4 C 1,6 km/h (1 Bft) 100,00 %
06.11.2015 01:00 4,4 C 98 % 1023,0 hPa 0,0 l/m 1,4 km/h (1 Bft) S-SO 165 0 min 0,000 mm 0,0 UV-I 0 W/m 4,1 C 4,4 C 1,6 km/h (1 Bft) 100,00 %
06.11.2015 01:01 4,4 C 98 % 1023,0 hPa 0,0 l/m 1,0 km/h (0 Bft) S-SO 165 0 min 0,000 mm 0,0 UV-I 0 W/m 4,1 C 4,4 C 1,6 km/h (1 Bft) 100,00 %
06.11.2015 01:02 4,4 C 98 % 1023,0 hPa 0,0 l/m 1,5 km/h (1 Bft) S-SO 165 0 min 0,000 mm 0,0 UV-I 0 W/m 4,1 C 4,4 C 1,6 km/h (1 Bft) 100,00 %
06.11.2015 01:03 4,3 C 98 % 1023,0 hPa 0,0 l/m 1,5 km/h (1 Bft) S-SO 165 0 min 0,000 mm 0,0 UV-I 0 W/m 4,0 C 4,3 C 1,6 km/h (1 Bft) 100,00 %
06.11.2015 01:04 4,3 C 98 % 1023,0 hPa 0,0 l/m 1,4 km/h (1 Bft) S-SO 165 0 min 0,000 mm 0,0 UV-I 0 W/m 4,0 C 4,3 C 1,6 km/h (1 Bft) 100,00 %
06.11.2015 01:05 4,2 C 98 % 1023,0 hPa 0,0 l/m 1,8 km/h (1 Bft) S-SO 165 0 min 0,000 mm 0,0 UV-I 0 W/m 3,9 C 4,2 C 3,2 km/h (1 Bft) 100,00 %
06.11.2015 01:06 4,1 C 98 % 1023,1 hPa 0,0 l/m 1,9 km/h (1 Bft) S-SO 165 0 min 0,000 mm 0,0 UV-I 0 W/m 3,8 C 4,1 C 3,2 km/h (1 Bft) 100,00 %
06.11.2015 01:07 4,1 C 98 % 1023,1 hPa 0,0 l/m 1,6 km/h (1 Bft) S-SO 165 0 min 0,000 mm 0,0 UV-I 0 W/m 3,8 C 4,1 C 1,6 km/h (1 Bft) 100,00 %
06.11.2015 01:08 3,9 C 98 % 1023,0 hPa 0,0 l/m 1,3 km/h (1 Bft) S-SO 165 0 min 0,000 mm 0,0 UV-I 0 W/m 3,6 C 3,9 C 1,6 km/h (1 Bft) 100,00 %
06.11.2015 01:09 3,8 C 98 % 1023,0 hPa 0,0 l/m 1,0 km/h (0 Bft) S-SO 165 0 min 0,000 mm 0,0 UV-I 0 W/m 3,5 C 3,8 C 1,6 km/h (1 Bft) 100,00 %
06.11.2015 01:10 3,8 C 98 % 1023,0 hPa 0,0 l/m 1,1 km/h (1 Bft) S-SO 165 0 min 0,000 mm 0,0 UV-I 0 W/m 3,5 C 3,8 C 1,6 km/h (1 Bft) 100,00 %
06.11.2015 01:11 3,7 C 98 % 1023,0 hPa 0,0 l/m 1,4 km/h (1 Bft) S-SO 165 0 min 0,000 mm 0,0 UV-I 0 W/m 3,4 C 3,7 C 1,6 km/h (1 Bft) 100,00 %
06.11.2015 01:12 3,8 C 98 % 1023,0 hPa 0,0 l/m 1,7 km/h (1 Bft) S-SO 165 0 min 0,000 mm 0,0 UV-I 0 W/m 3,5 C 3,8 C 3,2 km/h (1 Bft) 96,30 %
06.11.2015 01:13 3,9 C 98 % 1023,0 hPa 0,0 l/m 1,7 km/h (1 Bft) S-SO 165 0 min 0,000 mm 0,0 UV-I 0 W/m 3,6 C 3,9 C 3,2 km/h (1 Bft) 100,00 %
06.11.2015 01:14 4,1 C 98 % 1023,0 hPa 0,0 l/m 1,3 km/h (1 Bft) S-SO 165 0 min 0,000 mm 0,0 UV-I 0 W/m 3,8 C 4,1 C 1,6 km/h (1 Bft) 95,83 %
06.11.2015 01:15 4,1 C 98 % 1023,0 hPa 0,0 l/m 0,3 km/h (0 Bft) S-SO 165 0 min 0,000 mm 0,0 UV-I 0 W/m 3,8 C 4,1 C 1,6 km/h (1 Bft) 100,00 %
06.11.2015 01:16 4,2 C 98 % 1023,0 hPa 0,0 l/m 0,0 km/h (0 Bft) S-SO 165 0 min 0,000 mm 0,0 UV-I 0 W/m 3,9 C 4,2 C 0,0 km/h (0 Bft) 96,15 %
06.11.2015 01:17 4,2 C 98 % 1023,0 hPa 0,0 l/m 0,0 km/h (0 Bft) S-SO 165 0 min 0,000 mm 0,0 UV-I 0 W/m 3,9 C 4,2 C 0,0 km/h (0 Bft) 100,00 %
06.11.2015 01:18 4,1 C 98 % 1023,0 hPa 0,0 l/m 0,0 km/h (0 Bft) S-SO 165 0 min 0,000 mm 0,0 UV-I 0 W/m 3,8 C 4,1 C 0,0 km/h (0 Bft) 95,65 %
06.11.2015 01:19 4,0 C 98 % 1023,1 hPa 0,0 l/m 0,0 km/h (0 Bft) S-SO 165 0 min 0,000 mm 0,0 UV-I 0 W/m 3,7 C 4,0 C 0,0 km/h (0 Bft) 100,00 %
06.11.2015 01:20 3,9 C 98 % 1023,1 hPa 0,0 l/m 0,0 km/h (0 Bft) S-SO 165 0 min 0,000 mm 0,0 UV-I 0 W/m 3,6 C 3,9 C 0,0 km/h (0 Bft) 100,00 %
06.11.2015 01:21 3,9 C 98 % 1023,1 hPa 0,0 l/m 0,0 km/h (0 Bft) S-SO 165 0 min 0,000 mm 0,0 UV-I 0 W/m 3,6 C 3,9 C 0,0 km/h (0 Bft) 96,30 %
06.11.2015 01:22 3,8 C 98 % 1023,1 hPa 0,0 l/m 0,0 km/h (0 Bft) S-SO 165 0 min 0,000 mm 0,0 UV-I 0 W/m 3,5 C 3,8 C 0,0 km/h (0 Bft) 100,00 %
06.11.2015 01:23 3,7 C 98 % 1023,1 hPa 0,0 l/m 0,0 km/h (0 Bft) S-SO 165 0 min 0,000 mm 0,0 UV-I 0 W/m 3,4 C 3,7 C 0,0 km/h (0 Bft) 100,00 %
06.11.2015 01:24 3,6 C 98 % 1023,1 hPa 0,0 l/m 0,0 km/h (0 Bft) S-SO 165 0 min 0,000 mm 0,0 UV-I 0 W/m 3,3 C 3,6 C 0,0 km/h (0 Bft) 100,00 %
06.11.2015 01:25 3,6 C 98 % 1023,1 hPa 0,0 l/m 0,0 km/h (0 Bft) S-SO 165 0 min 0,000 mm 0,0 UV-I 0 W/m 3,3 C 3,6 C 0,0 km/h (0 Bft) 100,00 %
06.11.2015 01:26 3,5 C 98 % 1023,1 hPa 0,0 l/m 0,0 km/h (0 Bft) S-SO 165 0 min 0,000 mm 0,0 UV-I 0 W/m 3,2 C 3,5 C 0,0 km/h (0 Bft) 100,00 %
06.11.2015 01:27 3,4 C 98 % 1023,1 hPa 0,0 l/m 0,0 km/h (0 Bft) S-SO 165 0 min 0,000 mm 0,0 UV-I 0 W/m 3,1 C 3,4 C 0,0 km/h (0 Bft) 100,00 %
06.11.2015 01:28 3,4 C 98 % 1023,1 hPa 0,0 l/m 0,0 km/h (0 Bft) S-SO 165 0 min 0,000 mm 0,0 UV-I 0 W/m 3,1 C 3,4 C 0,0 km/h (0 Bft) 100,00 %
06.11.2015 01:29 3,3 C 97 % 1023,1 hPa 0,0 l/m 0,0 km/h (0 Bft) S-SO 165 0 min 0,000 mm 0,0 UV-I 0 W/m 2,9 C 3,3 C 0,0 km/h (0 Bft) 100,00 %
06.11.2015 01:30 3,3 C 97 % 1023,1 hPa 0,0 l/m 0,0 km/h (0 Bft) S-SO 165 0 min 0,000 mm 0,0 UV-I 0 W/m 2,9 C 3,3 C 0,0 km/h (0 Bft) 100,00 %
06.11.2015 01:31 3,3 C 97 % 1023,1 hPa 0,0 l/m 0,0 km/h (0 Bft) S-SO 165 0 min 0,000 mm 0,0 UV-I 0 W/m 2,9 C 3,3 C 0,0 km/h (0 Bft) 100,00 %
06.11.2015 01:32 3,3 C 97 % 1023,1 hPa 0,0 l/m 0,0 km/h (0 Bft) S-SO 165 0 min 0,000 mm 0,0 UV-I 0 W/m 2,9 C 3,3 C 0,0 km/h (0 Bft) 100,00 %
06.11.2015 01:33 3,3 C 97 % 1023,1 hPa 0,0 l/m 0,0 km/h (0 Bft) S-SO 165 0 min 0,000 mm 0,0 UV-I 0 W/m 2,9 C 3,3 C 0,0 km/h (0 Bft) 100,00 %
06.11.2015 01:34 3,3 C 98 % 1023,2 hPa 0,0 l/m 0,0 km/h (0 Bft) S-SO 165 0 min 0,000 mm 0,0 UV-I 0 W/m 3,0 C 3,3 C 0,0 km/h (0 Bft) 100,00 %
06.11.2015 01:35 3,4 C 98 % 1023,1 hPa 0,0 l/m 0,0 km/h (0 Bft) S-SO 165 0 min 0,000 mm 0,0 UV-I 0 W/m 3,1 C 3,4 C 0,0 km/h (0 Bft) 100,00 %
06.11.2015 01:36 3,4 C 98 % 1023,2 hPa 0,0 l/m 0,0 km/h (0 Bft) S-SO 165 0 min 0,000 mm 0,0 UV-I 0 W/m 3,1 C 3,4 C 0,0 km/h (0 Bft) 100,00 %
06.11.2015 01:37 3,5 C 98 % 1023,2 hPa 0,0 l/m 0,0 km/h (0 Bft) S-SO 165 0 min 0,000 mm 0,0 UV-I 0 W/m 3,2 C 3,5 C 0,0 km/h (0 Bft) 100,00 %
06.11.2015 01:38 3,6 C 98 % 1023,2 hPa 0,0 l/m 0,0 km/h (0 Bft) S-SO 165 0 min 0,000 mm 0,0 UV-I 0 W/m 3,3 C 3,6 C 0,0 km/h (0 Bft) 100,00 %
06.11.2015 01:39 3,6 C 98 % 1023,2 hPa 0,0 l/m 0,0 km/h (0 Bft) S-SO 165 0 min 0,000 mm 0,0 UV-I 0 W/m 3,3 C 3,6 C 0,0 km/h (0 Bft) 96,00 %
06.11.2015 01:40 3,6 C 98 % 1023,2 hPa 0,0 l/m 0,0 km/h (0 Bft) S-SO 165 0 min 0,000 mm 0,0 UV-I 0 W/m 3,3 C 3,6 C 0,0 km/h (0 Bft) 100,00 %
06.11.2015 01:41 3,6 C 98 % 1023,2 hPa 0,0 l/m 0,0 km/h (0 Bft) S-SO 165 0 min 0,000 mm 0,0 UV-I 0 W/m 3,3 C 3,6 C 0,0 km/h (0 Bft) 100,00 %
06.11.2015 01:42 3,6 C 98 % 1023,1 hPa 0,0 l/m 0,0 km/h (0 Bft) S-SO 165 0 min 0,000 mm 0,0 UV-I 0 W/m 3,3 C 3,6 C 0,0 km/h (0 Bft) 100,00 %
06.11.2015 01:43 3,5 C 98 % 1023,2 hPa 0,0 l/m 0,0 km/h (0 Bft) S-SO 165 0 min 0,000 mm 0,0 UV-I 0 W/m 3,2 C 3,5 C 0,0 km/h (0 Bft) 100,00 %
06.11.2015 01:44 3,5 C 98 % 1023,2 hPa 0,0 l/m 0,0 km/h (0 Bft) S-SO 165 0 min 0,000 mm 0,0 UV-I 0 W/m 3,2 C 3,5 C 0,0 km/h (0 Bft) 100,00 %
06.11.2015 01:45 3,5 C 98 % 1023,2 hPa 0,0 l/m 0,0 km/h (0 Bft) S-SO 165 0 min 0,000 mm 0,0 UV-I 0 W/m 3,2 C 3,5 C 0,0 km/h (0 Bft) 95,65 %
06.11.2015 01:46 3,4 C 98 % 1023,2 hPa 0,0 l/m 0,0 km/h (0 Bft) S-SO 165 0 min 0,000 mm 0,0 UV-I 0 W/m 3,1 C 3,4 C 0,0 km/h (0 Bft) 100,00 %
06.11.2015 01:47 3,4 C 98 % 1023,2 hPa 0,0 l/m 0,0 km/h (0 Bft) S-SO 165 0 min 0,000 mm 0,0 UV-I 0 W/m 3,1 C 3,4 C 0,0 km/h (0 Bft) 96,15 %
06.11.2015 01:48 3,4 C 98 % 1023,2 hPa 0,0 l/m 0,0 km/h (0 Bft) S-SO 165 0 min 0,000 mm 0,0 UV-I 0 W/m 3,1 C 3,4 C 0,0 km/h (0 Bft) 100,00 %
06.11.2015 01:49 3,4 C 98 % 1023,2 hPa 0,0 l/m 0,0 km/h (0 Bft) S-SO 165 0 min 0,000 mm 0,0 UV-I 0 W/m 3,1 C 3,4 C 0,0 km/h (0 Bft) 100,00 %
06.11.2015 01:50 3,4 C 98 % 1023,1 hPa 0,0 l/m 0,0 km/h (0 Bft) S-SO 165 0 min 0,000 mm 0,0 UV-I 0 W/m 3,1 C 3,4 C 0,0 km/h (0 Bft) 100,00 %
06.11.2015 01:51 3,3 C 98 % 1023,2 hPa 0,0 l/m 0,0 km/h (0 Bft) S-SO 165 0 min 0,000 mm 0,0 UV-I 0 W/m 3,0 C 3,3 C 0,0 km/h (0 Bft) 100,00 %
06.11.2015 01:52 3,3 C 98 % 1023,1 hPa 0,0 l/m 0,0 km/h (0 Bft) S-SO 165 0 min 0,000 mm 0,0 UV-I 0 W/m 3,0 C 3,3 C 0,0 km/h (0 Bft) 95,83 %
06.11.2015 01:53 3,3 C 98 % 1023,1 hPa 0,0 l/m 0,0 km/h (0 Bft) S-SO 165 0 min 0,000 mm 0,0 UV-I 0 W/m 3,0 C 3,3 C 0,0 km/h (0 Bft) 100,00 %
06.11.2015 01:54 3,3 C 98 % 1023,1 hPa 0,0 l/m 0,0 km/h (0 Bft) S-SO 165 0 min 0,000 mm 0,0 UV-I 0 W/m 3,0 C 3,3 C 0,0 km/h (0 Bft) 100,00 %
06.11.2015 01:55 3,4 C 98 % 1023,1 hPa 0,0 l/m 0,0 km/h (0 Bft) S-SO 165 0 min 0,000 mm 0,0 UV-I 0 W/m 3,1 C 3,4 C 0,0 km/h (0 Bft) 100,00 %
06.11.2015 01:56 3,4 C 98 % 1023,1 hPa 0,0 l/m 0,0 km/h (0 Bft) S-SO 165 0 min 0,000 mm 0,0 UV-I 0 W/m 3,1 C 3,4 C 0,0 km/h (0 Bft) 100,00 %
06.11.2015 01:57 3,4 C 98 % 1023,1 hPa 0,0 l/m 0,0 km/h (0 Bft) S-SO 165 0 min 0,000 mm 0,0 UV-I 0 W/m 3,1 C 3,4 C 0,0 km/h (0 Bft) 100,00 %
06.11.2015 01:58 3,4 C 98 % 1023,1 hPa 0,0 l/m 0,0 km/h (0 Bft) S-SO 165 0 min 0,000 mm 0,0 UV-I 0 W/m 3,1 C 3,4 C 0,0 km/h (0 Bft) 100,00 %
06.11.2015 01:59 3,4 C 98 % 1023,1 hPa 0,0 l/m 0,0 km/h (0 Bft) S-SO 165 0 min 0,000 mm 0,0 UV-I 0 W/m 3,1 C 3,4 C 0,0 km/h (0 Bft) 95,83 %
06.11.2015 02:00 3,3 C 98 % 1023,1 hPa 0,0 l/m 0,0 km/h (0 Bft) S-SO 165 0 min 0,000 mm 0,0 UV-I 0 W/m 3,0 C 3,3 C 0,0 km/h (0 Bft) 100,00 %
06.11.2015 02:01 3,3 C 98 % 1023,1 hPa 0,0 l/m 0,0 km/h (0 Bft) S-SO 165 0 min 0,000 mm 0,0 UV-I 0 W/m 3,0 C 3,3 C 0,0 km/h (0 Bft) 100,00 %
06.11.2015 02:02 3,2 C 98 % 1023,1 hPa 0,0 l/m 0,0 km/h (0 Bft) S-SO 165 0 min 0,000 mm 0,0 UV-I 0 W/m 2,9 C 3,2 C 0,0 km/h (0 Bft) 100,00 %
06.11.2015 02:03 3,2 C 98 % 1023,1 hPa 0,0 l/m 0,0 km/h (0 Bft) S-SO 165 0 min 0,000 mm 0,0 UV-I 0 W/m 2,9 C 3,2 C 0,0 km/h (0 Bft) 100,00 %
06.11.2015 02:04 3,2 C 98 % 1023,1 hPa 0,0 l/m 0,0 km/h (0 Bft) S-SO 165 0 min 0,000 mm 0,0 UV-I 0 W/m 2,9 C 3,2 C 0,0 km/h (0 Bft) 91,67 %
06.11.2015 02:05 3,2 C 98 % 1023,1 hPa 0,0 l/m 0,0 km/h (0 Bft) S-SO 165 0 min 0,000 mm 0,0 UV-I 0 W/m 2,9 C 3,2 C 0,0 km/h (0 Bft) 100,00 %
06.11.2015 02:06 3,2 C 98 % 1023,1 hPa 0,0 l/m 0,0 km/h (0 Bft) S-SO 165 0 min 0,000 mm 0,0 UV-I 0 W/m 2,9 C 3,2 C 0,0 km/h (0 Bft) 100,00 %
06.11.2015 02:07 3,2 C 98 % 1023,1 hPa 0,0 l/m 0,0 km/h (0 Bft) S-SO 165 0 min 0,000 mm 0,0 UV-I 0 W/m 2,9 C 3,2 C 0,0 km/h (0 Bft) 100,00 %
06.11.2015 02:08 3,2 C 98 % 1023,1 hPa 0,0 l/m 0,0 km/h (0 Bft) S-SO 165 0 min 0,000 mm 0,0 UV-I 0 W/m 2,9 C 3,2 C 0,0 km/h (0 Bft) 100,00 %
06.11.2015 02:09 3,2 C 98 % 1023,1 hPa 0,0 l/m 0,0 km/h (0 Bft) S-SO 165 0 min 0,000 mm 0,0 UV-I 0 W/m 2,9 C 3,2 C 0,0 km/h (0 Bft) 100,00 %
06.11.2015 02:10 3,2 C 98 % 1023,1 hPa 0,0 l/m 0,0 km/h (0 Bft) S-SO 165 0 min 0,000 mm 0,0 UV-I 0 W/m 2,9 C 3,2 C 0,0 km/h (0 Bft) 100,00 %
06.11.2015 02:11 3,2 C 98 % 1023,2 hPa 0,0 l/m 0,0 km/h (0 Bft) S-SO 165 0 min 0,000 mm 0,0 UV-I 0 W/m 2,9 C 3,2 C 0,0 km/h (0 Bft) 100,00 %
06.11.2015 02:12 3,2 C 98 % 1023,2 hPa 0,0 l/m 0,0 km/h (0 Bft) S-SO 165 0 min 0,000 mm 0,0 UV-I 0 W/m 2,9 C 3,2 C 0,0 km/h (0 Bft) 95,65 %
06.11.2015 02:13 3,1 C 98 % 1023,2 hPa 0,0 l/m 0,0 km/h (0 Bft) S-SO 165 0 min 0,000 mm 0,0 UV-I 0 W/m 2,8 C 3,1 C 0,0 km/h (0 Bft) 100,00 %
06.11.2015 02:14 3,1 C 98 % 1023,2 hPa 0,0 l/m 0,1 km/h (0 Bft) S-SO 165 0 min 0,000 mm 0,0 UV-I 0 W/m 2,8 C 3,1 C 1,6 km/h (1 Bft) 91,67 %
06.11.2015 02:15 3,0 C 98 % 1023,2 hPa 0,0 l/m 0,0 km/h (0 Bft) S-SO 165 0 min 0,000 mm 0,0 UV-I 0 W/m 2,7 C 3,0 C 0,0 km/h (0 Bft) 96,15 %
06.11.2015 02:16 2,9 C 98 % 1023,2 hPa 0,0 l/m 0,0 km/h (0 Bft) S-SO 165 0 min 0,000 mm 0,0 UV-I 0 W/m 2,6 C 2,9 C 0,0 km/h (0 Bft) 100,00 %
06.11.2015 02:17 2,9 C 98 % 1023,3 hPa 0,0 l/m 0,0 km/h (0 Bft) S-SO 165 0 min 0,000 mm 0,0 UV-I 0 W/m 2,6 C 2,9 C 0,0 km/h (0 Bft) 100,00 %
06.11.2015 02:18 2,8 C 98 % 1023,2 hPa 0,0 l/m 0,0 km/h (0 Bft) S-SO 165 0 min 0,000 mm 0,0 UV-I 0 W/m 2,5 C 2,8 C 0,0 km/h (0 Bft) 100,00 %
06.11.2015 02:19 2,8 C 98 % 1023,3 hPa 0,0 l/m 0,0 km/h (0 Bft) S-SO 165 0 min 0,000 mm 0,0 UV-I 0 W/m 2,5 C 2,8 C 0,0 km/h (0 Bft) 95,65 %
06.11.2015 02:20 2,7 C 98 % 1023,2 hPa 0,0 l/m 0,0 km/h (0 Bft) S-SO 165 0 min 0,000 mm 0,0 UV-I 0 W/m 2,4 C 2,7 C 0,0 km/h (0 Bft) 95,83 %
06.11.2015 02:21 2,7 C 98 % 1023,3 hPa 0,0 l/m 0,0 km/h (0 Bft) S-SO 165 0 min 0,000 mm 0,0 UV-I 0 W/m 2,4 C 2,7 C 0,0 km/h (0 Bft) 100,00 %
06.11.2015 02:22 2,7 C 98 % 1023,3 hPa 0,0 l/m 0,0 km/h (0 Bft) S-SO 165 0 min 0,000 mm 0,0 UV-I 0 W/m 2,4 C 2,7 C 0,0 km/h (0 Bft) 100,00 %
06.11.2015 02:23 2,7 C 98 % 1023,3 hPa 0,0 l/m 0,0 km/h (0 Bft) S-SO 165 0 min 0,000 mm 0,0 UV-I 0 W/m 2,4 C 2,7 C 0,0 km/h (0 Bft) 100,00 %
06.11.2015 02:24 2,8 C 98 % 1023,3 hPa 0,0 l/m 0,3 km/h (0 Bft) S-SW 193 0 min 0,000 mm 0,0 UV-I 0 W/m 2,5 C 2,8 C 1,6 km/h (1 Bft) 100,00 %
06.11.2015 02:25 2,9 C 98 % 1023,3 hPa 0,0 l/m 0,9 km/h (0 Bft) SW 220 0 min 0,000 mm 0,0 UV-I 0 W/m 2,6 C 2,9 C 1,6 km/h (1 Bft) 92,31 %
06.11.2015 02:26 3,1 C 98 % 1023,3 hPa 0,0 l/m 0,9 km/h (0 Bft) SW 221 0 min 0,000 mm 0,0 UV-I 0 W/m 2,8 C 3,1 C 1,6 km/h (1 Bft) 95,83 %
06.11.2015 02:27 3,2 C 98 % 1023,4 hPa 0,0 l/m 0,5 km/h (0 Bft) SW 221 0 min 0,000 mm 0,0 UV-I 0 W/m 2,9 C 3,2 C 1,6 km/h (1 Bft) 100,00 %
06.11.2015 02:28 3,2 C 98 % 1023,3 hPa 0,0 l/m 0,2 km/h (0 Bft) SW 221 0 min 0,000 mm 0,0 UV-I 0 W/m 2,9 C 3,2 C 1,6 km/h (1 Bft) 100,00 %
06.11.2015 02:29 3,2 C 98 % 1023,4 hPa 0,0 l/m 0,3 km/h (0 Bft) SW 221 0 min 0,000 mm 0,0 UV-I 0 W/m 2,9 C 3,2 C 1,6 km/h (1 Bft) 100,00 %
06.11.2015 02:30 3,0 C 98 % 1023,4 hPa 0,0 l/m 0,0 km/h (0 Bft) SW 221 0 min 0,000 mm 0,0 UV-I 0 W/m 2,7 C 3,0 C 0,0 km/h (0 Bft) 100,00 %
06.11.2015 02:31 2,9 C 98 % 1023,4 hPa 0,0 l/m 0,0 km/h (0 Bft) SW 221 0 min 0,000 mm 0,0 UV-I 0 W/m 2,6 C 2,9 C 0,0 km/h (0 Bft) 100,00 %
06.11.2015 02:32 3,0 C 98 % 1023,4 hPa 0,0 l/m 0,0 km/h (0 Bft) SW 221 0 min 0,000 mm 0,0 UV-I 0 W/m 2,7 C 3,0 C 0,0 km/h (0 Bft) 100,00 %
06.11.2015 02:33 3,0 C 98 % 1023,4 hPa 0,0 l/m 0,0 km/h (0 Bft) SW 221 0 min 0,000 mm 0,0 UV-I 0 W/m 2,7 C 3,0 C 0,0 km/h (0 Bft) 100,00 %
06.11.2015 02:34 3,0 C 98 % 1023,4 hPa 0,0 l/m 0,0 km/h (0 Bft) SW 221 0 min 0,000 mm 0,0 UV-I 0 W/m 2,7 C 3,0 C 0,0 km/h (0 Bft) 100,00 %
06.11.2015 02:35 3,1 C 98 % 1023,4 hPa 0,0 l/m 0,0 km/h (0 Bft) SW 221 0 min 0,000 mm 0,0 UV-I 0 W/m 2,8 C 3,1 C 0,0 km/h (0 Bft) 100,00 %
06.11.2015 02:36 3,1 C 98 % 1023,4 hPa 0,0 l/m 0,0 km/h (0 Bft) SW 221 0 min 0,000 mm 0,0 UV-I 0 W/m 2,8 C 3,1 C 0,0 km/h (0 Bft) 95,83 %
06.11.2015 02:37 3,2 C 98 % 1023,4 hPa 0,0 l/m 0,0 km/h (0 Bft) SW 221 0 min 0,000 mm 0,0 UV-I 0 W/m 2,9 C 3,2 C 0,0 km/h (0 Bft) 100,00 %
06.11.2015 02:38 3,3 C 98 % 1023,4 hPa 0,0 l/m 0,0 km/h (0 Bft) SW 221 0 min 0,000 mm 0,0 UV-I 0 W/m 3,0 C 3,3 C 0,0 km/h (0 Bft) 100,00 %
06.11.2015 02:39 3,3 C 98 % 1023,4 hPa 0,0 l/m 0,0 km/h (0 Bft) SW 221 0 min 0,000 mm 0,0 UV-I 0 W/m 3,0 C 3,3 C 0,0 km/h (0 Bft) 100,00 %
06.11.2015 02:40 3,3 C 98 % 1023,4 hPa 0,0 l/m 0,0 km/h (0 Bft) SW 221 0 min 0,000 mm 0,0 UV-I 0 W/m 3,0 C 3,3 C 0,0 km/h (0 Bft) 100,00 %
06.11.2015 02:41 3,4 C 98 % 1023,4 hPa 0,0 l/m 0,0 km/h (0 Bft) SW 221 0 min 0,000 mm 0,0 UV-I 0 W/m 3,1 C 3,4 C 0,0 km/h (0 Bft) 100,00 %
06.11.2015 02:42 3,4 C 98 % 1023,4 hPa 0,0 l/m 0,0 km/h (0 Bft) SW 221 0 min 0,000 mm 0,0 UV-I 0 W/m 3,1 C 3,4 C 0,0 km/h (0 Bft) 100,00 %
06.11.2015 02:43 3,4 C 98 % 1023,4 hPa 0,0 l/m 0,0 km/h (0 Bft) SW 221 0 min 0,000 mm 0,0 UV-I 0 W/m 3,1 C 3,4 C 0,0 km/h (0 Bft) 100,00 %
06.11.2015 02:44 3,3 C 98 % 1023,4 hPa 0,0 l/m 0,0 km/h (0 Bft) SW 221 0 min 0,000 mm 0,0 UV-I 0 W/m 3,0 C 3,3 C 0,0 km/h (0 Bft) 100,00 %
06.11.2015 02:45 3,3 C 98 % 1023,4 hPa 0,0 l/m 0,0 km/h (0 Bft) SW 221 0 min 0,000 mm 0,0 UV-I 0 W/m 3,0 C 3,3 C 0,0 km/h (0 Bft) 100,00 %
06.11.2015 02:46 3,3 C 98 % 1023,4 hPa 0,0 l/m 0,0 km/h (0 Bft) SW 221 0 min 0,000 mm 0,0 UV-I 0 W/m 3,0 C 3,3 C 0,0 km/h (0 Bft) 100,00 %
06.11.2015 02:47 3,3 C 98 % 1023,4 hPa 0,0 l/m 0,0 km/h (0 Bft) SW 221 0 min 0,000 mm 0,0 UV-I 0 W/m 3,0 C 3,3 C 0,0 km/h (0 Bft) 100,00 %
06.11.2015 02:48 3,3 C 98 % 1023,4 hPa 0,0 l/m 0,0 km/h (0 Bft) SW 221 0 min 0,000 mm 0,0 UV-I 0 W/m 3,0 C 3,3 C 0,0 km/h (0 Bft) 100,00 %
06.11.2015 02:49 3,3 C 98 % 1023,4 hPa 0,0 l/m 0,0 km/h (0 Bft) SW 221 0 min 0,000 mm 0,0 UV-I 0 W/m 3,0 C 3,3 C 0,0 km/h (0 Bft) 100,00 %
06.11.2015 02:50 3,3 C 98 % 1023,4 hPa 0,0 l/m 0,0 km/h (0 Bft) SW 221 0 min 0,000 mm 0,0 UV-I 0 W/m 3,0 C 3,3 C 0,0 km/h (0 Bft) 100,00 %
06.11.2015 02:51 3,3 C 98 % 1023,4 hPa 0,0 l/m 0,0 km/h (0 Bft) SW 221 0 min 0,000 mm 0,0 UV-I 0 W/m 3,0 C 3,3 C 0,0 km/h (0 Bft) 91,67 %
06.11.2015 02:52 3,3 C 98 % 1023,4 hPa 0,0 l/m 0,0 km/h (0 Bft) SW 221 0 min 0,000 mm 0,0 UV-I 0 W/m 3,0 C 3,3 C 0,0 km/h (0 Bft) 100,00 %
06.11.2015 02:53 3,3 C 98 % 1023,4 hPa 0,0 l/m 0,0 km/h (0 Bft) SW 221 0 min 0,000 mm 0,0 UV-I 0 W/m 3,0 C 3,3 C 0,0 km/h (0 Bft) 100,00 %
06.11.2015 02:54 3,3 C 98 % 1023,4 hPa 0,0 l/m 0,0 km/h (0 Bft) SW 221 0 min 0,000 mm 0,0 UV-I 0 W/m 3,0 C 3,3 C 0,0 km/h (0 Bft) 100,00 %
06.11.2015 02:55 3,3 C 98 % 1023,4 hPa 0,0 l/m 0,0 km/h (0 Bft) SW 221 0 min 0,000 mm 0,0 UV-I 0 W/m 3,0 C 3,3 C 0,0 km/h (0 Bft) 97,56 %
06.11.2015 02:56 3,3 C 98 % 1023,5 hPa 0,0 l/m 0,0 km/h (0 Bft) SW 221 0 min 0,000 mm 0,0 UV-I 0 W/m 3,0 C 3,3 C 0,0 km/h (0 Bft) 100,00 %
06.11.2015 02:57 3,3 C 98 % 1023,4 hPa 0,0 l/m 0,0 km/h (0 Bft) SW 221 0 min 0,000 mm 0,0 UV-I 0 W/m 3,0 C 3,3 C 0,0 km/h (0 Bft) 100,00 %
06.11.2015 02:58 3,3 C 98 % 1023,4 hPa 0,0 l/m 0,0 km/h (0 Bft) SW 221 0 min 0,000 mm 0,0 UV-I 0 W/m 3,0 C 3,3 C 0,0 km/h (0 Bft) 100,00 %
06.11.2015 02:59 3,3 C 98 % 1023,5 hPa 0,0 l/m 0,0 km/h (0 Bft) SW 221 0 min 0,000 mm 0,0 UV-I 0 W/m 3,0 C 3,3 C 0,0 km/h (0 Bft) 95,65 %
06.11.2015 03:00 3,3 C 98 % 1023,5 hPa 0,0 l/m 0,0 km/h (0 Bft) SW 221 0 min 0,000 mm 0,0 UV-I 0 W/m 3,0 C 3,3 C 0,0 km/h (0 Bft) 100,00 %
06.11.2015 03:01 3,3 C 98 % 1023,4 hPa 0,0 l/m 0,0 km/h (0 Bft) SW 221 0 min 0,000 mm 0,0 UV-I 0 W/m 3,0 C 3,3 C 0,0 km/h (0 Bft) 100,00 %
06.11.2015 03:02 3,3 C 98 % 1023,4 hPa 0,0 l/m 0,0 km/h (0 Bft) SW 221 0 min 0,000 mm 0,0 UV-I 0 W/m 3,0 C 3,3 C 0,0 km/h (0 Bft) 100,00 %
06.11.2015 03:03 3,2 C 98 % 1023,4 hPa 0,0 l/m 0,0 km/h (0 Bft) SW 221 0 min 0,000 mm 0,0 UV-I 0 W/m 2,9 C 3,2 C 0,0 km/h (0 Bft) 100,00 %
06.11.2015 03:04 3,2 C 98 % 1023,4 hPa 0,0 l/m 0,0 km/h (0 Bft) SW 221 0 min 0,000 mm 0,0 UV-I 0 W/m 2,9 C 3,2 C 0,0 km/h (0 Bft) 100,00 %
06.11.2015 03:05 3,2 C 98 % 1023,4 hPa 0,0 l/m 0,0 km/h (0 Bft) SW 221 0 min 0,000 mm 0,0 UV-I 0 W/m 2,9 C 3,2 C 0,0 km/h (0 Bft) 100,00 %
06.11.2015 03:06 3,3 C 98 % 1023,4 hPa 0,0 l/m 0,0 km/h (0 Bft) SW 221 0 min 0,000 mm 0,0 UV-I 0 W/m 3,0 C 3,3 C 0,0 km/h (0 Bft) 100,00 %
06.11.2015 03:07 3,3 C 98 % 1023,5 hPa 0,0 l/m 0,0 km/h (0 Bft) SW 221 0 min 0,000 mm 0,0 UV-I 0 W/m 3,0 C 3,3 C 0,0 km/h (0 Bft) 100,00 %
06.11.2015 03:08 3,2 C 98 % 1023,5 hPa 0,0 l/m 0,0 km/h (0 Bft) SW 221 0 min 0,000 mm 0,0 UV-I 0 W/m 2,9 C 3,2 C 0,0 km/h (0 Bft) 100,00 %
06.11.2015 03:09 3,2 C 98 % 1023,4 hPa 0,0 l/m 0,0 km/h (0 Bft) SW 221 0 min 0,000 mm 0,0 UV-I 0 W/m 2,9 C 3,2 C 0,0 km/h (0 Bft) 96,15 %
06.11.2015 03:10 3,2 C 98 % 1023,4 hPa 0,0 l/m 0,0 km/h (0 Bft) SW 221 0 min 0,000 mm 0,0 UV-I 0 W/m 2,9 C 3,2 C 0,0 km/h (0 Bft) 100,00 %
06.11.2015 03:11 3,2 C 98 % 1023,4 hPa 0,0 l/m 0,0 km/h (0 Bft) SW 221 0 min 0,000 mm 0,0 UV-I 0 W/m 2,9 C 3,2 C 0,0 km/h (0 Bft) 100,00 %
06.11.2015 03:12 3,2 C 98 % 1023,4 hPa 0,0 l/m 0,0 km/h (0 Bft) SW 221 0 min 0,000 mm 0,0 UV-I 0 W/m 2,9 C 3,2 C 0,0 km/h (0 Bft) 100,00 %
06.11.2015 03:13 3,2 C 98 % 1023,4 hPa 0,0 l/m 0,2 km/h (0 Bft) SW 221 0 min 0,000 mm 0,0 UV-I 0 W/m 2,9 C 3,2 C 1,6 km/h (1 Bft) 100,00 %
06.11.2015 03:14 3,2 C 98 % 1023,4 hPa 0,0 l/m 0,4 km/h (0 Bft) SW 221 0 min 0,000 mm 0,0 UV-I 0 W/m 2,9 C 3,2 C 1,6 km/h (1 Bft) 96,15 %
06.11.2015 03:15 3,2 C 98 % 1023,4 hPa 0,0 l/m 0,2 km/h (0 Bft) SW 221 0 min 0,000 mm 0,0 UV-I 0 W/m 2,9 C 3,2 C 1,6 km/h (1 Bft) 100,00 %
06.11.2015 03:16 3,2 C 98 % 1023,4 hPa 0,0 l/m 0,3 km/h (0 Bft) SW 221 0 min 0,000 mm 0,0 UV-I 0 W/m 2,9 C 3,2 C 1,6 km/h (1 Bft) 100,00 %
06.11.2015 03:17 3,2 C 98 % 1023,4 hPa 0,0 l/m 1,1 km/h (1 Bft) S-SW 192 0 min 0,000 mm 0,0 UV-I 0 W/m 2,9 C 3,2 C 1,6 km/h (1 Bft) 95,83 %
06.11.2015 03:18 3,2 C 98 % 1023,4 hPa 0,0 l/m 0,9 km/h (0 Bft) S 191 0 min 0,000 mm 0,0 UV-I 0 W/m 2,9 C 3,2 C 1,6 km/h (1 Bft) 100,00 %
06.11.2015 03:19 3,2 C 98 % 1023,4 hPa 0,0 l/m 0,3 km/h (0 Bft) S 191 0 min 0,000 mm 0,0 UV-I 0 W/m 2,9 C 3,2 C 1,6 km/h (1 Bft) 100,00 %
06.11.2015 03:20 3,2 C 98 % 1023,4 hPa 0,0 l/m 0,0 km/h (0 Bft) S 191 0 min 0,000 mm 0,0 UV-I 0 W/m 2,9 C 3,2 C 0,0 km/h (0 Bft) 95,65 %
06.11.2015 03:21 3,2 C 98 % 1023,4 hPa 0,0 l/m 0,0 km/h (0 Bft) S 191 0 min 0,000 mm 0,0 UV-I 0 W/m 2,9 C 3,2 C 0,0 km/h (0 Bft) 100,00 %
06.11.2015 03:22 3,2 C 98 % 1023,4 hPa 0,0 l/m 0,0 km/h (0 Bft) S 191 0 min 0,000 mm 0,0 UV-I 0 W/m 2,9 C 3,2 C 0,0 km/h (0 Bft) 96,15 %
06.11.2015 03:23 3,2 C 98 % 1023,4 hPa 0,0 l/m 0,0 km/h (0 Bft) S 191 0 min 0,000 mm 0,0 UV-I 0 W/m 2,9 C 3,2 C 0,0 km/h (0 Bft) 100,00 %
06.11.2015 03:24 3,2 C 98 % 1023,4 hPa 0,0 l/m 0,0 km/h (0 Bft) S 191 0 min 0,000 mm 0,0 UV-I 0 W/m 2,9 C 3,2 C 0,0 km/h (0 Bft) 100,00 %
06.11.2015 03:25 3,2 C 98 % 1023,4 hPa 0,0 l/m 0,1 km/h (0 Bft) S 191 0 min 0,000 mm 0,0 UV-I 0 W/m 2,9 C 3,2 C 1,6 km/h (1 Bft) 100,00 %
06.11.2015 03:26 3,2 C 98 % 1023,4 hPa 0,0 l/m 0,0 km/h (0 Bft) S 191 0 min 0,000 mm 0,0 UV-I 0 W/m 2,9 C 3,2 C 0,0 km/h (0 Bft) 95,65 %
06.11.2015 03:27 3,2 C 98 % 1023,5 hPa 0,0 l/m 0,0 km/h (0 Bft) S 191 0 min 0,000 mm 0,0 UV-I 0 W/m 2,9 C 3,2 C 0,0 km/h (0 Bft) 100,00 %
06.11.2015 03:28 3,2 C 98 % 1023,5 hPa 0,0 l/m 0,8 km/h (0 Bft) S-SW 192 0 min 0,000 mm 0,0 UV-I 0 W/m 2,9 C 3,2 C 1,6 km/h (1 Bft) 100,00 %
06.11.2015 03:29 3,2 C 98 % 1023,5 hPa 0,0 l/m 0,6 km/h (0 Bft) S-SW 192 0 min 0,000 mm 0,0 UV-I 0 W/m 2,9 C 3,2 C 1,6 km/h (1 Bft) 100,00 %
06.11.2015 03:30 3,2 C 98 % 1023,5 hPa 0,0 l/m 1,2 km/h (1 Bft) S-SW 192 0 min 0,000 mm 0,0 UV-I 0 W/m 2,9 C 3,2 C 1,6 km/h (1 Bft) 100,00 %
06.11.2015 03:31 3,2 C 98 % 1023,5 hPa 0,0 l/m 2,1 km/h (1 Bft) S-SW 202 0 min 0,000 mm 0,0 UV-I 0 W/m 2,9 C 3,2 C 3,2 km/h (1 Bft) 100,00 %
06.11.2015 03:32 3,2 C 98 % 1023,5 hPa 0,0 l/m 1,9 km/h (1 Bft) S-SW 202 0 min 0,000 mm 0,0 UV-I 0 W/m 2,9 C 3,2 C 3,2 km/h (1 Bft) 100,00 %
06.11.2015 03:33 3,2 C 98 % 1023,5 hPa 0,0 l/m 1,5 km/h (1 Bft) S-SW 202 0 min 0,000 mm 0,0 UV-I 0 W/m 2,9 C 3,2 C 3,2 km/h (1 Bft) 100,00 %
06.11.2015 03:34 3,1 C 98 % 1023,5 hPa 0,0 l/m 0,6 km/h (0 Bft) S-SW 202 0 min 0,000 mm 0,0 UV-I 0 W/m 2,8 C 3,1 C 1,6 km/h (1 Bft) 100,00 %
06.11.2015 03:35 3,0 C 98 % 1023,5 hPa 0,0 l/m 0,6 km/h (0 Bft) S-SW 202 0 min 0,000 mm 0,0 UV-I 0 W/m 2,7 C 3,0 C 1,6 km/h (1 Bft) 100,00 %
06.11.2015 03:36 2,9 C 98 % 1023,6 hPa 0,0 l/m 1,8 km/h (1 Bft) S-SW 202 0 min 0,000 mm 0,0 UV-I 0 W/m 2,6 C 2,9 C 3,2 km/h (1 Bft) 100,00 %
06.11.2015 03:37 2,9 C 98 % 1023,5 hPa 0,0 l/m 2,0 km/h (1 Bft) S-SW 202 0 min 0,000 mm 0,0 UV-I 0 W/m 2,6 C 2,9 C 3,2 km/h (1 Bft) 100,00 %
06.11.2015 03:38 2,9 C 98 % 1023,5 hPa 0,0 l/m 1,3 km/h (1 Bft) S-SW 202 0 min 0,000 mm 0,0 UV-I 0 W/m 2,6 C 2,9 C 1,6 km/h (1 Bft) 100,00 %
06.11.2015 03:39 2,9 C 98 % 1023,5 hPa 0,0 l/m 1,2 km/h (1 Bft) S-SW 202 0 min 0,000 mm 0,0 UV-I 0 W/m 2,6 C 2,9 C 3,2 km/h (1 Bft) 95,65 %
06.11.2015 03:40 2,9 C 98 % 1023,5 hPa 0,0 l/m 1,5 km/h (1 Bft) S-SW 192 0 min 0,000 mm 0,0 UV-I 0 W/m 2,6 C 2,9 C 3,2 km/h (1 Bft) 95,83 %
06.11.2015 03:41 3,0 C 98 % 1023,6 hPa 0,0 l/m 1,1 km/h (1 Bft) S-SW 192 0 min 0,000 mm 0,0 UV-I 0 W/m 2,7 C 3,0 C 1,6 km/h (1 Bft) 100,00 %
06.11.2015 03:42 3,1 C 98 % 1023,5 hPa 0,0 l/m 0,2 km/h (0 Bft) S-SW 192 0 min 0,000 mm 0,0 UV-I 0 W/m 2,8 C 3,1 C 1,6 km/h (1 Bft) 100,00 %
06.11.2015 03:43 3,1 C 98 % 1023,5 hPa 0,0 l/m 1,1 km/h (1 Bft) S 190 0 min 0,000 mm 0,0 UV-I 0 W/m 2,8 C 3,1 C 1,6 km/h (1 Bft) 100,00 %
06.11.2015 03:44 3,1 C 98 % 1023,5 hPa 0,0 l/m 1,2 km/h (1 Bft) S 188 0 min 0,000 mm 0,0 UV-I 0 W/m 2,8 C 3,1 C 1,6 km/h (1 Bft) 100,00 %
06.11.2015 03:45 3,1 C 98 % 1023,5 hPa 0,0 l/m 0,8 km/h (0 Bft) S 188 0 min 0,000 mm 0,0 UV-I 0 W/m 2,8 C 3,1 C 1,6 km/h (1 Bft) 100,00 %
06.11.2015 03:46 3,2 C 98 % 1023,5 hPa 0,0 l/m 0,2 km/h (0 Bft) S 188 0 min 0,000 mm 0,0 UV-I 0 W/m 2,9 C 3,2 C 1,6 km/h (1 Bft) 95,83 %
06.11.2015 03:47 3,2 C 98 % 1023,5 hPa 0,0 l/m 0,1 km/h (0 Bft) S 188 0 min 0,000 mm 0,0 UV-I 0 W/m 2,9 C 3,2 C 1,6 km/h (1 Bft) 96,15 %
06.11.2015 03:48 3,2 C 98 % 1023,5 hPa 0,0 l/m 0,1 km/h (0 Bft) S 188 0 min 0,000 mm 0,0 UV-I 0 W/m 2,9 C 3,2 C 1,6 km/h (1 Bft) 100,00 %
06.11.2015 03:49 3,2 C 98 % 1023,5 hPa 0,0 l/m 0,0 km/h (0 Bft) S 188 0 min 0,000 mm 0,0 UV-I 0 W/m 2,9 C 3,2 C 0,0 km/h (0 Bft) 96,55 %
06.11.2015 03:50 3,2 C 98 % 1023,6 hPa 0,0 l/m 0,0 km/h (0 Bft) S 188 0 min 0,000 mm 0,0 UV-I 0 W/m 2,9 C 3,2 C 0,0 km/h (0 Bft) 100,00 %
06.11.2015 03:51 3,2 C 98 % 1023,6 hPa 0,0 l/m 0,0 km/h (0 Bft) S 188 0 min 0,000 mm 0,0 UV-I 0 W/m 2,9 C 3,2 C 0,0 km/h (0 Bft) 100,00 %
06.11.2015 03:52 3,2 C 98 % 1023,6 hPa 0,0 l/m 0,4 km/h (0 Bft) S 188 0 min 0,000 mm 0,0 UV-I 0 W/m 2,9 C 3,2 C 1,6 km/h (1 Bft) 100,00 %
06.11.2015 03:53 3,2 C 98 % 1023,6 hPa 0,0 l/m 0,3 km/h (0 Bft) S 188 0 min 0,000 mm 0,0 UV-I 0 W/m 2,9 C 3,2 C 1,6 km/h (1 Bft) 100,00 %
06.11.2015 03:54 3,2 C 98 % 1023,6 hPa 0,0 l/m 0,2 km/h (0 Bft) S 188 0 min 0,000 mm 0,0 UV-I 0 W/m 2,9 C 3,2 C 1,6 km/h (1 Bft) 100,00 %
06.11.2015 03:55 3,1 C 98 % 1023,7 hPa 0,0 l/m 0,7 km/h (0 Bft) S 188 0 min 0,000 mm 0,0 UV-I 0 W/m 2,8 C 3,1 C 1,6 km/h (1 Bft) 100,00 %
06.11.2015 03:56 3,0 C 98 % 1023,7 hPa 0,0 l/m 0,3 km/h (0 Bft) S 188 0 min 0,000 mm 0,0 UV-I 0 W/m 2,7 C 3,0 C 1,6 km/h (1 Bft) 100,00 %
06.11.2015 03:57 2,9 C 98 % 1023,7 hPa 0,0 l/m 0,5 km/h (0 Bft) S 188 0 min 0,000 mm 0,0 UV-I 0 W/m 2,6 C 2,9 C 1,6 km/h (1 Bft) 95,83 %
06.11.2015 03:58 2,8 C 98 % 1023,7 hPa 0,0 l/m 0,4 km/h (0 Bft) S 188 0 min 0,000 mm 0,0 UV-I 0 W/m 2,5 C 2,8 C 1,6 km/h (1 Bft) 100,00 %
06.11.2015 03:59 2,8 C 98 % 1023,7 hPa 0,0 l/m 0,1 km/h (0 Bft) S 188 0 min 0,000 mm 0,0 UV-I 0 W/m 2,5 C 2,8 C 1,6 km/h (1 Bft) 95,83 %
06.11.2015 04:00 2,7 C 98 % 1023,7 hPa 0,0 l/m 0,1 km/h (0 Bft) S 188 0 min 0,000 mm 0,0 UV-I 0 W/m 2,4 C 2,7 C 1,6 km/h (1 Bft) 100,00 %
06.11.2015 04:01 2,7 C 98 % 1023,8 hPa 0,0 l/m 0,0 km/h (0 Bft) S 188 0 min 0,000 mm 0,0 UV-I 0 W/m 2,4 C 2,7 C 0,0 km/h (0 Bft) 100,00 %
06.11.2015 04:02 2,6 C 98 % 1023,8 hPa 0,0 l/m 0,0 km/h (0 Bft) S 188 0 min 0,000 mm 0,0 UV-I 0 W/m 2,3 C 2,6 C 0,0 km/h (0 Bft) 100,00 %
06.11.2015 04:03 2,6 C 98 % 1023,7 hPa 0,0 l/m 0,0 km/h (0 Bft) S 188 0 min 0,000 mm 0,0 UV-I 0 W/m 2,3 C 2,6 C 0,0 km/h (0 Bft) 100,00 %
06.11.2015 04:04 2,5 C 98 % 1023,8 hPa 0,0 l/m 0,0 km/h (0 Bft) S 188 0 min 0,000 mm 0,0 UV-I 0 W/m 2,2 C 2,5 C 0,0 km/h (0 Bft) 100,00 %
06.11.2015 04:05 2,5 C 98 % 1023,8 hPa 0,0 l/m 0,0 km/h (0 Bft) S 188 0 min 0,000 mm 0,0 UV-I 0 W/m 2,2 C 2,5 C 0,0 km/h (0 Bft) 95,83 %
06.11.2015 04:06 2,5 C 98 % 1023,8 hPa 0,0 l/m 0,0 km/h (0 Bft) S 188 0 min 0,000 mm 0,0 UV-I 0 W/m 2,2 C 2,5 C 0,0 km/h (0 Bft) 96,15 %
06.11.2015 04:07 2,5 C 98 % 1023,8 hPa 0,0 l/m 0,0 km/h (0 Bft) S 188 0 min 0,000 mm 0,0 UV-I 0 W/m 2,2 C 2,5 C 0,0 km/h (0 Bft) 95,83 %
06.11.2015 04:08 2,5 C 98 % 1023,8 hPa 0,0 l/m 0,0 km/h (0 Bft) S 188 0 min 0,000 mm 0,0 UV-I 0 W/m 2,2 C 2,5 C 0,0 km/h (0 Bft) 100,00 %
06.11.2015 04:09 2,5 C 98 % 1023,9 hPa 0,0 l/m 0,0 km/h (0 Bft) S 188 0 min 0,000 mm 0,0 UV-I 0 W/m 2,2 C 2,5 C 0,0 km/h (0 Bft) 100,00 %
06.11.2015 04:10 2,6 C 98 % 1023,8 hPa 0,0 l/m 0,7 km/h (0 Bft) S-SW 204 0 min 0,000 mm 0,0 UV-I 0 W/m 2,3 C 2,6 C 1,6 km/h (1 Bft) 100,00 %
06.11.2015 04:11 2,7 C 98 % 1023,8 hPa 0,0 l/m 0,6 km/h (0 Bft) S-SW 204 0 min 0,000 mm 0,0 UV-I 0 W/m 2,4 C 2,7 C 1,6 km/h (1 Bft) 100,00 %
06.11.2015 04:12 2,8 C 98 % 1023,9 hPa 0,0 l/m 0,5 km/h (0 Bft) S-SW 204 0 min 0,000 mm 0,0 UV-I 0 W/m 2,5 C 2,8 C 1,6 km/h (1 Bft) 96,15 %
06.11.2015 04:13 2,9 C 98 % 1023,9 hPa 0,0 l/m 0,8 km/h (0 Bft) S-SW 204 0 min 0,000 mm 0,0 UV-I 0 W/m 2,6 C 2,9 C 1,6 km/h (1 Bft) 100,00 %
06.11.2015 04:14 2,9 C 98 % 1023,9 hPa 0,0 l/m 0,2 km/h (0 Bft) S-SW 204 0 min 0,000 mm 0,0 UV-I 0 W/m 2,6 C 2,9 C 1,6 km/h (1 Bft) 100,00 %
06.11.2015 04:15 3,0 C 98 % 1023,9 hPa 0,0 l/m 0,0 km/h (0 Bft) S-SW 204 0 min 0,000 mm 0,0 UV-I 0 W/m 2,7 C 3,0 C 0,0 km/h (0 Bft) 100,00 %
06.11.2015 04:16 3,1 C 98 % 1024,0 hPa 0,0 l/m 0,2 km/h (0 Bft) S-SW 204 0 min 0,000 mm 0,0 UV-I 0 W/m 2,8 C 3,1 C 1,6 km/h (1 Bft) 100,00 %
06.11.2015 04:17 3,1 C 98 % 1024,0 hPa 0,0 l/m 0,0 km/h (0 Bft) S-SW 204 0 min 0,000 mm 0,0 UV-I 0 W/m 2,8 C 3,1 C 0,0 km/h (0 Bft) 100,00 %
06.11.2015 04:18 3,1 C 98 % 1024,0 hPa 0,0 l/m 0,1 km/h (0 Bft) S-SW 204 0 min 0,000 mm 0,0 UV-I 0 W/m 2,8 C 3,1 C 1,6 km/h (1 Bft) 100,00 %
06.11.2015 04:19 3,1 C 98 % 1024,0 hPa 0,0 l/m 0,0 km/h (0 Bft) S-SW 204 0 min 0,000 mm 0,0 UV-I 0 W/m 2,8 C 3,1 C 0,0 km/h (0 Bft) 100,00 %
06.11.2015 04:20 3,2 C 98 % 1024,0 hPa 0,0 l/m 0,1 km/h (0 Bft) S-SW 204 0 min 0,000 mm 0,0 UV-I 0 W/m 2,9 C 3,2 C 1,6 km/h (1 Bft) 100,00 %
06.11.2015 04:21 3,2 C 98 % 1024,0 hPa 0,0 l/m 0,3 km/h (0 Bft) S-SW 204 0 min 0,000 mm 0,0 UV-I 0 W/m 2,9 C 3,2 C 1,6 km/h (1 Bft) 100,00 %
06.11.2015 04:22 3,2 C 98 % 1024,0 hPa 0,0 l/m 0,0 km/h (0 Bft) S-SW 204 0 min 0,000 mm 0,0 UV-I 0 W/m 2,9 C 3,2 C 0,0 km/h (0 Bft) 95,83 %
06.11.2015 04:23 3,2 C 98 % 1024,1 hPa 0,0 l/m 0,1 km/h (0 Bft) S-SW 204 0 min 0,000 mm 0,0 UV-I 0 W/m 2,9 C 3,2 C 1,6 km/h (1 Bft) 100,00 %
06.11.2015 04:24 3,2 C 98 % 1024,1 hPa 0,0 l/m 0,2 km/h (0 Bft) S-SW 204 0 min 0,000 mm 0,0 UV-I 0 W/m 2,9 C 3,2 C 1,6 km/h (1 Bft) 100,00 %
06.11.2015 04:25 3,2 C 98 % 1024,0 hPa 0,0 l/m 0,0 km/h (0 Bft) S-SW 204 0 min 0,000 mm 0,0 UV-I 0 W/m 2,9 C 3,2 C 0,0 km/h (0 Bft) 100,00 %
06.11.2015 04:26 3,2 C 98 % 1024,1 hPa 0,0 l/m 0,0 km/h (0 Bft) S-SW 204 0 min 0,000 mm 0,0 UV-I 0 W/m 2,9 C 3,2 C 0,0 km/h (0 Bft) 100,00 %
06.11.2015 04:27 3,2 C 98 % 1024,1 hPa 0,0 l/m 0,0 km/h (0 Bft) S-SW 204 0 min 0,000 mm 0,0 UV-I 0 W/m 2,9 C 3,2 C 0,0 km/h (0 Bft) 100,00 %
06.11.2015 04:28 3,2 C 98 % 1024,1 hPa 0,0 l/m 0,3 km/h (0 Bft) S-SW 204 0 min 0,000 mm 0,0 UV-I 0 W/m 2,9 C 3,2 C 1,6 km/h (1 Bft) 100,00 %
06.11.2015 04:29 3,2 C 98 % 1024,1 hPa 0,0 l/m 0,6 km/h (0 Bft) S-SW 204 0 min 0,000 mm 0,0 UV-I 0 W/m 2,9 C 3,2 C 1,6 km/h (1 Bft) 100,00 %
06.11.2015 04:30 3,3 C 98 % 1024,1 hPa 0,0 l/m 1,8 km/h (1 Bft) S-SW 205 0 min 0,000 mm 0,0 UV-I 0 W/m 3,0 C 3,3 C 3,2 km/h (1 Bft) 100,00 %
06.11.2015 04:31 3,3 C 98 % 1024,1 hPa 0,0 l/m 1,3 km/h (1 Bft) S-SW 209 0 min 0,000 mm 0,0 UV-I 0 W/m 3,0 C 3,3 C 3,2 km/h (1 Bft) 100,00 %
06.11.2015 04:32 3,3 C 98 % 1024,1 hPa 0,0 l/m 0,6 km/h (0 Bft) S-SW 204 0 min 0,000 mm 0,0 UV-I 0 W/m 3,0 C 3,3 C 1,6 km/h (1 Bft) 100,00 %
06.11.2015 04:33 3,3 C 98 % 1024,1 hPa 0,0 l/m 0,4 km/h (0 Bft) S-SW 204 0 min 0,000 mm 0,0 UV-I 0 W/m 3,0 C 3,3 C 1,6 km/h (1 Bft) 100,00 %
06.11.2015 04:34 3,4 C 98 % 1024,1 hPa 0,0 l/m 0,1 km/h (0 Bft) S-SW 204 0 min 0,000 mm 0,0 UV-I 0 W/m 3,1 C 3,4 C 1,6 km/h (1 Bft) 100,00 %
06.11.2015 04:35 3,4 C 98 % 1024,1 hPa 0,0 l/m 0,0 km/h (0 Bft) S-SW 204 0 min 0,000 mm 0,0 UV-I 0 W/m 3,1 C 3,4 C 0,0 km/h (0 Bft) 100,00 %
06.11.2015 04:36 3,4 C 98 % 1024,2 hPa 0,0 l/m 0,1 km/h (0 Bft) S-SW 204 0 min 0,000 mm 0,0 UV-I 0 W/m 3,1 C 3,4 C 1,6 km/h (1 Bft) 100,00 %
06.11.2015 04:37 3,4 C 98 % 1024,2 hPa 0,0 l/m 0,0 km/h (0 Bft) S-SW 204 0 min 0,000 mm 0,0 UV-I 0 W/m 3,1 C 3,4 C 0,0 km/h (0 Bft) 100,00 %
06.11.2015 04:38 3,4 C 98 % 1024,2 hPa 0,0 l/m 0,7 km/h (0 Bft) S-SW 204 0 min 0,000 mm 0,0 UV-I 0 W/m 3,1 C 3,4 C 1,6 km/h (1 Bft) 100,00 %
06.11.2015 04:39 3,4 C 98 % 1024,2 hPa 0,0 l/m 0,0 km/h (0 Bft) S-SW 204 0 min 0,000 mm 0,0 UV-I 0 W/m 3,1 C 3,4 C 0,0 km/h (0 Bft) 95,83 %
06.11.2015 04:40 3,4 C 98 % 1024,2 hPa 0,0 l/m 0,0 km/h (0 Bft) S-SW 204 0 min 0,000 mm 0,0 UV-I 0 W/m 3,1 C 3,4 C 0,0 km/h (0 Bft) 100,00 %
06.11.2015 04:41 3,3 C 98 % 1024,2 hPa 0,0 l/m 0,0 km/h (0 Bft) S-SW 204 0 min 0,000 mm 0,0 UV-I 0 W/m 3,0 C 3,3 C 0,0 km/h (0 Bft) 100,00 %
06.11.2015 04:42 3,3 C 98 % 1024,2 hPa 0,0 l/m 0,0 km/h (0 Bft) S-SW 204 0 min 0,000 mm 0,0 UV-I 0 W/m 3,0 C 3,3 C 0,0 km/h (0 Bft) 100,00 %
06.11.2015 04:43 3,3 C 98 % 1024,2 hPa 0,0 l/m 0,0 km/h (0 Bft) S-SW 204 0 min 0,000 mm 0,0 UV-I 0 W/m 3,0 C 3,3 C 0,0 km/h (0 Bft) 100,00 %
06.11.2015 04:44 3,3 C 98 % 1024,2 hPa 0,0 l/m 0,0 km/h (0 Bft) S-SW 204 0 min 0,000 mm 0,0 UV-I 0 W/m 3,0 C 3,3 C 0,0 km/h (0 Bft) 100,00 %
06.11.2015 04:45 3,3 C 98 % 1024,2 hPa 0,0 l/m 0,0 km/h (0 Bft) S-SW 204 0 min 0,000 mm 0,0 UV-I 0 W/m 3,0 C 3,3 C 0,0 km/h (0 Bft) 100,00 %
06.11.2015 04:46 3,3 C 98 % 1024,2 hPa 0,0 l/m 0,0 km/h (0 Bft) S-SW 204 0 min 0,000 mm 0,0 UV-I 0 W/m 3,0 C 3,3 C 0,0 km/h (0 Bft) 95,65 %
06.11.2015 04:47 3,3 C 98 % 1024,2 hPa 0,0 l/m 0,0 km/h (0 Bft) S-SW 204 0 min 0,000 mm 0,0 UV-I 0 W/m 3,0 C 3,3 C 0,0 km/h (0 Bft) 100,00 %
06.11.2015 04:48 3,3 C 98 % 1024,2 hPa 0,0 l/m 0,0 km/h (0 Bft) S-SW 204 0 min 0,000 mm 0,0 UV-I 0 W/m 3,0 C 3,3 C 0,0 km/h (0 Bft) 100,00 %
06.11.2015 04:49 3,3 C 98 % 1024,2 hPa 0,0 l/m 0,0 km/h (0 Bft) S-SW 204 0 min 0,000 mm 0,0 UV-I 0 W/m 3,0 C 3,3 C 0,0 km/h (0 Bft) 100,00 %
06.11.2015 04:50 3,3 C 98 % 1024,2 hPa 0,0 l/m 0,3 km/h (0 Bft) S-SW 204 0 min 0,000 mm 0,0 UV-I 0 W/m 3,0 C 3,3 C 1,6 km/h (1 Bft) 100,00 %
06.11.2015 04:51 3,3 C 98 % 1024,2 hPa 0,0 l/m 0,0 km/h (0 Bft) S-SW 204 0 min 0,000 mm 0,0 UV-I 0 W/m 3,0 C 3,3 C 0,0 km/h (0 Bft) 100,00 %
06.11.2015 04:52 3,3 C 98 % 1024,2 hPa 0,0 l/m 0,1 km/h (0 Bft) S-SW 204 0 min 0,000 mm 0,0 UV-I 0 W/m 3,0 C 3,3 C 1,6 km/h (1 Bft) 100,00 %
06.11.2015 04:53 3,2 C 98 % 1024,2 hPa 0,0 l/m 0,0 km/h (0 Bft) S-SW 204 0 min 0,000 mm 0,0 UV-I 0 W/m 2,9 C 3,2 C 0,0 km/h (0 Bft) 100,00 %
06.11.2015 04:54 3,2 C 98 % 1024,3 hPa 0,0 l/m 0,0 km/h (0 Bft) S-SW 204 0 min 0,000 mm 0,0 UV-I 0 W/m 2,9 C 3,2 C 0,0 km/h (0 Bft) 100,00 %
06.11.2015 04:55 3,1 C 98 % 1024,2 hPa 0,0 l/m 0,0 km/h (0 Bft) S-SW 204 0 min 0,000 mm 0,0 UV-I 0 W/m 2,8 C 3,1 C 0,0 km/h (0 Bft) 100,00 %
06.11.2015 04:56 3,1 C 98 % 1024,3 hPa 0,0 l/m 0,0 km/h (0 Bft) S-SW 204 0 min 0,000 mm 0,0 UV-I 0 W/m 2,8 C 3,1 C 0,0 km/h (0 Bft) 100,00 %
06.11.2015 04:57 3,0 C 98 % 1024,3 hPa 0,0 l/m 0,0 km/h (0 Bft) S-SW 204 0 min 0,000 mm 0,0 UV-I 0 W/m 2,7 C 3,0 C 0,0 km/h (0 Bft) 100,00 %
06.11.2015 04:58 3,0 C 98 % 1024,3 hPa 0,0 l/m 0,0 km/h (0 Bft) S-SW 204 0 min 0,000 mm 0,0 UV-I 0 W/m 2,7 C 3,0 C 0,0 km/h (0 Bft) 100,00 %
06.11.2015 04:59 2,9 C 98 % 1024,3 hPa 0,0 l/m 0,0 km/h (0 Bft) S-SW 204 0 min 0,000 mm 0,0 UV-I 0 W/m 2,6 C 2,9 C 0,0 km/h (0 Bft) 100,00 %
06.11.2015 05:00 2,9 C 98 % 1024,3 hPa 0,0 l/m 0,0 km/h (0 Bft) S-SW 204 0 min 0,000 mm 0,0 UV-I 0 W/m 2,6 C 2,9 C 0,0 km/h (0 Bft) 100,00 %
06.11.2015 05:01 2,9 C 98 % 1024,2 hPa 0,0 l/m 0,0 km/h (0 Bft) S-SW 204 0 min 0,000 mm 0,0 UV-I 0 W/m 2,6 C 2,9 C 0,0 km/h (0 Bft) 100,00 %
06.11.2015 05:02 2,9 C 98 % 1024,3 hPa 0,0 l/m 0,0 km/h (0 Bft) S-SW 204 0 min 0,000 mm 0,0 UV-I 0 W/m 2,6 C 2,9 C 0,0 km/h (0 Bft) 100,00 %
06.11.2015 05:03 2,9 C 98 % 1024,2 hPa 0,0 l/m 0,0 km/h (0 Bft) S-SW 204 0 min 0,000 mm 0,0 UV-I 0 W/m 2,6 C 2,9 C 0,0 km/h (0 Bft) 100,00 %
06.11.2015 05:04 2,9 C 98 % 1024,3 hPa 0,0 l/m 0,0 km/h (0 Bft) S-SW 204 0 min 0,000 mm 0,0 UV-I 0 W/m 2,6 C 2,9 C 0,0 km/h (0 Bft) 100,00 %
06.11.2015 05:05 2,9 C 98 % 1024,3 hPa 0,0 l/m 0,0 km/h (0 Bft) S-SW 204 0 min 0,000 mm 0,0 UV-I 0 W/m 2,6 C 2,9 C 0,0 km/h (0 Bft) 95,65 %
06.11.2015 05:06 2,9 C 98 % 1024,3 hPa 0,0 l/m 0,0 km/h (0 Bft) S-SW 204 0 min 0,000 mm 0,0 UV-I 0 W/m 2,6 C 2,9 C 0,0 km/h (0 Bft) 100,00 %
06.11.2015 05:07 2,9 C 98 % 1024,3 hPa 0,0 l/m 0,0 km/h (0 Bft) S-SW 204 0 min 0,000 mm 0,0 UV-I 0 W/m 2,6 C 2,9 C 0,0 km/h (0 Bft) 95,65 %
06.11.2015 05:08 2,8 C 98 % 1024,3 hPa 0,0 l/m 0,0 km/h (0 Bft) S-SW 204 0 min 0,000 mm 0,0 UV-I 0 W/m 2,5 C 2,8 C 0,0 km/h (0 Bft) 100,00 %
06.11.2015 05:09 2,8 C 98 % 1024,3 hPa 0,0 l/m 0,0 km/h (0 Bft) S-SW 204 0 min 0,000 mm 0,0 UV-I 0 W/m 2,5 C 2,8 C 0,0 km/h (0 Bft) 100,00 %
06.11.2015 05:10 2,8 C 98 % 1024,3 hPa 0,0 l/m 0,0 km/h (0 Bft) S-SW 204 0 min 0,000 mm 0,0 UV-I 0 W/m 2,5 C 2,8 C 0,0 km/h (0 Bft) 100,00 %
06.11.2015 05:11 2,8 C 98 % 1024,3 hPa 0,0 l/m 0,0 km/h (0 Bft) S-SW 204 0 min 0,000 mm 0,0 UV-I 0 W/m 2,5 C 2,8 C 0,0 km/h (0 Bft) 100,00 %
06.11.2015 05:12 2,8 C 98 % 1024,3 hPa 0,0 l/m 0,1 km/h (0 Bft) S-SW 204 0 min 0,000 mm 0,0 UV-I 0 W/m 2,5 C 2,8 C 1,6 km/h (1 Bft) 100,00 %
06.11.2015 05:13 2,8 C 98 % 1024,3 hPa 0,0 l/m 0,0 km/h (0 Bft) S-SW 204 0 min 0,000 mm 0,0 UV-I 0 W/m 2,5 C 2,8 C 0,0 km/h (0 Bft) 100,00 %
06.11.2015 05:14 2,8 C 98 % 1024,3 hPa 0,0 l/m 0,0 km/h (0 Bft) S-SW 204 0 min 0,000 mm 0,0 UV-I 0 W/m 2,5 C 2,8 C 0,0 km/h (0 Bft) 100,00 %
06.11.2015 05:15 2,7 C 98 % 1024,3 hPa 0,0 l/m 0,0 km/h (0 Bft) S-SW 204 0 min 0,000 mm 0,0 UV-I 0 W/m 2,4 C 2,7 C 0,0 km/h (0 Bft) 100,00 %
06.11.2015 05:16 2,7 C 98 % 1024,3 hPa 0,0 l/m 0,0 km/h (0 Bft) S-SW 204 0 min 0,000 mm 0,0 UV-I 0 W/m 2,4 C 2,7 C 0,0 km/h (0 Bft) 100,00 %
06.11.2015 05:17 2,7 C 98 % 1024,3 hPa 0,0 l/m 0,0 km/h (0 Bft) S-SW 204 0 min 0,000 mm 0,0 UV-I 0 W/m 2,4 C 2,7 C 0,0 km/h (0 Bft) 100,00 %
06.11.2015 05:18 2,7 C 98 % 1024,3 hPa 0,0 l/m 0,5 km/h (0 Bft) S-SW 202 0 min 0,000 mm 0,0 UV-I 0 W/m 2,4 C 2,7 C 1,6 km/h (1 Bft) 100,00 %
06.11.2015 05:19 2,7 C 98 % 1024,3 hPa 0,0 l/m 1,1 km/h (1 Bft) S-SW 196 0 min 0,000 mm 0,0 UV-I 0 W/m 2,4 C 2,7 C 1,6 km/h (1 Bft) 100,00 %
06.11.2015 05:20 2,6 C 98 % 1024,4 hPa 0,0 l/m 0,1 km/h (0 Bft) S-SW 196 0 min 0,000 mm 0,0 UV-I 0 W/m 2,3 C 2,6 C 1,6 km/h (1 Bft) 100,00 %
06.11.2015 05:21 2,5 C 98 % 1024,3 hPa 0,0 l/m 0,0 km/h (0 Bft) S-SW 196 0 min 0,000 mm 0,0 UV-I 0 W/m 2,2 C 2,5 C 0,0 km/h (0 Bft) 100,00 %
06.11.2015 05:22 2,4 C 98 % 1024,3 hPa 0,0 l/m 0,0 km/h (0 Bft) S-SW 196 0 min 0,000 mm 0,0 UV-I 0 W/m 2,1 C 2,4 C 0,0 km/h (0 Bft) 100,00 %
06.11.2015 05:23 2,4 C 98 % 1024,3 hPa 0,0 l/m 0,0 km/h (0 Bft) S-SW 196 0 min 0,000 mm 0,0 UV-I 0 W/m 2,1 C 2,4 C 0,0 km/h (0 Bft) 100,00 %
06.11.2015 05:24 2,4 C 98 % 1024,3 hPa 0,0 l/m 0,0 km/h (0 Bft) S-SW 196 0 min 0,000 mm 0,0 UV-I 0 W/m 2,1 C 2,4 C 0,0 km/h (0 Bft) 100,00 %
06.11.2015 05:25 2,4 C 98 % 1024,3 hPa 0,0 l/m 0,0 km/h (0 Bft) S-SW 196 0 min 0,000 mm 0,0 UV-I 0 W/m 2,1 C 2,4 C 0,0 km/h (0 Bft) 100,00 %
06.11.2015 05:26 2,4 C 98 % 1024,4 hPa 0,0 l/m 0,0 km/h (0 Bft) S-SW 196 0 min 0,000 mm 0,0 UV-I 0 W/m 2,1 C 2,4 C 0,0 km/h (0 Bft) 100,00 %
06.11.2015 05:27 2,4 C 98 % 1024,3 hPa 0,0 l/m 0,0 km/h (0 Bft) S-SW 196 0 min 0,000 mm 0,0 UV-I 0 W/m 2,1 C 2,4 C 0,0 km/h (0 Bft) 100,00 %
06.11.2015 05:28 2,4 C 98 % 1024,4 hPa 0,0 l/m 0,0 km/h (0 Bft) S-SW 196 0 min 0,000 mm 0,0 UV-I 0 W/m 2,1 C 2,4 C 0,0 km/h (0 Bft) 95,65 %
06.11.2015 05:29 2,4 C 98 % 1024,4 hPa 0,0 l/m 0,0 km/h (0 Bft) S-SW 196 0 min 0,000 mm 0,0 UV-I 0 W/m 2,1 C 2,4 C 0,0 km/h (0 Bft) 100,00 %
06.11.2015 05:30 2,4 C 98 % 1024,4 hPa 0,0 l/m 0,0 km/h (0 Bft) S-SW 196 0 min 0,000 mm 0,0 UV-I 0 W/m 2,1 C 2,4 C 0,0 km/h (0 Bft) 100,00 %
06.11.2015 05:31 2,4 C 98 % 1024,4 hPa 0,0 l/m 0,0 km/h (0 Bft) S-SW 196 0 min 0,000 mm 0,0 UV-I 0 W/m 2,1 C 2,4 C 0,0 km/h (0 Bft) 100,00 %
06.11.2015 05:32 2,4 C 98 % 1024,4 hPa 0,0 l/m 0,0 km/h (0 Bft) S-SW 196 0 min 0,000 mm 0,0 UV-I 0 W/m 2,1 C 2,4 C 0,0 km/h (0 Bft) 100,00 %
06.11.2015 05:33 2,4 C 98 % 1024,4 hPa 0,0 l/m 0,0 km/h (0 Bft) S-SW 196 0 min 0,000 mm 0,0 UV-I 0 W/m 2,1 C 2,4 C 0,0 km/h (0 Bft) 100,00 %
06.11.2015 05:34 2,4 C 98 % 1024,4 hPa 0,0 l/m 0,0 km/h (0 Bft) S-SW 196 0 min 0,000 mm 0,0 UV-I 0 W/m 2,1 C 2,4 C 0,0 km/h (0 Bft) 96,30 %
06.11.2015 05:35 2,5 C 98 % 1024,4 hPa 0,0 l/m 0,0 km/h (0 Bft) S-SW 196 0 min 0,000 mm 0,0 UV-I 0 W/m 2,2 C 2,5 C 0,0 km/h (0 Bft) 100,00 %
06.11.2015 05:36 2,5 C 98 % 1024,3 hPa 0,0 l/m 0,0 km/h (0 Bft) S-SW 196 0 min 0,000 mm 0,0 UV-I 0 W/m 2,2 C 2,5 C 0,0 km/h (0 Bft) 100,00 %
06.11.2015 05:37 2,4 C 98 % 1024,4 hPa 0,0 l/m 0,0 km/h (0 Bft) S-SW 196 0 min 0,000 mm 0,0 UV-I 0 W/m 2,1 C 2,4 C 0,0 km/h (0 Bft) 100,00 %
06.11.2015 05:38 2,4 C 98 % 1024,4 hPa 0,0 l/m 0,0 km/h (0 Bft) S-SW 196 0 min 0,000 mm 0,0 UV-I 0 W/m 2,1 C 2,4 C 0,0 km/h (0 Bft) 100,00 %
06.11.2015 05:39 2,4 C 98 % 1024,4 hPa 0,0 l/m 0,0 km/h (0 Bft) S-SW 196 0 min 0,000 mm 0,0 UV-I 0 W/m 2,1 C 2,4 C 0,0 km/h (0 Bft) 100,00 %
06.11.2015 05:40 2,3 C 98 % 1024,4 hPa 0,0 l/m 0,0 km/h (0 Bft) S-SW 196 0 min 0,000 mm 0,0 UV-I 0 W/m 2,0 C 2,3 C 0,0 km/h (0 Bft) 100,00 %
06.11.2015 05:41 2,3 C 98 % 1024,4 hPa 0,0 l/m 0,0 km/h (0 Bft) S-SW 196 0 min 0,000 mm 0,0 UV-I 0 W/m 2,0 C 2,3 C 0,0 km/h (0 Bft) 100,00 %
06.11.2015 05:42 2,3 C 98 % 1024,4 hPa 0,0 l/m 0,0 km/h (0 Bft) S-SW 196 0 min 0,000 mm 0,0 UV-I 0 W/m 2,0 C 2,3 C 0,0 km/h (0 Bft) 100,00 %
06.11.2015 05:43 2,3 C 98 % 1024,5 hPa 0,0 l/m 0,0 km/h (0 Bft) S-SW 196 0 min 0,000 mm 0,0 UV-I 0 W/m 2,0 C 2,3 C 0,0 km/h (0 Bft) 100,00 %
06.11.2015 05:44 2,3 C 98 % 1024,4 hPa 0,0 l/m 0,0 km/h (0 Bft) S-SW 196 0 min 0,000 mm 0,0 UV-I 0 W/m 2,0 C 2,3 C 0,0 km/h (0 Bft) 100,00 %
06.11.2015 05:45 2,3 C 98 % 1024,5 hPa 0,0 l/m 0,0 km/h (0 Bft) S-SW 196 0 min 0,000 mm 0,0 UV-I 0 W/m 2,0 C 2,3 C 0,0 km/h (0 Bft) 100,00 %
06.11.2015 05:46 2,3 C 98 % 1024,5 hPa 0,0 l/m 0,0 km/h (0 Bft) S-SW 196 0 min 0,000 mm 0,0 UV-I 0 W/m 2,0 C 2,3 C 0,0 km/h (0 Bft) 100,00 %
06.11.2015 05:47 2,3 C 98 % 1024,4 hPa 0,0 l/m 0,0 km/h (0 Bft) S-SW 196 0 min 0,000 mm 0,0 UV-I 0 W/m 2,0 C 2,3 C 0,0 km/h (0 Bft) 91,30 %
06.11.2015 05:48 2,3 C 98 % 1024,5 hPa 0,0 l/m 0,0 km/h (0 Bft) S-SW 196 0 min 0,000 mm 0,0 UV-I 0 W/m 2,0 C 2,3 C 0,0 km/h (0 Bft) 100,00 %
06.11.2015 05:49 2,3 C 98 % 1024,5 hPa 0,0 l/m 0,0 km/h (0 Bft) S-SW 196 0 min 0,000 mm 0,0 UV-I 0 W/m 2,0 C 2,3 C 0,0 km/h (0 Bft) 100,00 %
06.11.2015 05:50 2,3 C 98 % 1024,5 hPa 0,0 l/m 0,0 km/h (0 Bft) S-SW 196 0 min 0,000 mm 0,0 UV-I 0 W/m 2,0 C 2,3 C 0,0 km/h (0 Bft) 100,00 %
06.11.2015 05:51 2,3 C 98 % 1024,5 hPa 0,0 l/m 0,0 km/h (0 Bft) S-SW 196 0 min 0,000 mm 0,0 UV-I 0 W/m 2,0 C 2,3 C 0,0 km/h (0 Bft) 100,00 %
06.11.2015 05:52 2,3 C 98 % 1024,5 hPa 0,0 l/m 0,0 km/h (0 Bft) S-SW 196 0 min 0,000 mm 0,0 UV-I 0 W/m 2,0 C 2,3 C 0,0 km/h (0 Bft) 100,00 %
06.11.2015 05:53 2,3 C 98 % 1024,5 hPa 0,0 l/m 0,0 km/h (0 Bft) S-SW 196 0 min 0,000 mm 0,0 UV-I 0 W/m 2,0 C 2,3 C 0,0 km/h (0 Bft) 100,00 %
06.11.2015 05:54 2,3 C 98 % 1024,5 hPa 0,0 l/m 0,0 km/h (0 Bft) S-SW 196 0 min 0,000 mm 0,0 UV-I 0 W/m 2,0 C 2,3 C 0,0 km/h (0 Bft) 100,00 %
06.11.2015 05:55 2,3 C 98 % 1024,6 hPa 0,0 l/m 0,0 km/h (0 Bft) S-SW 196 0 min 0,000 mm 0,0 UV-I 0 W/m 2,0 C 2,3 C 0,0 km/h (0 Bft) 100,00 %
06.11.2015 05:56 2,3 C 98 % 1024,5 hPa 0,0 l/m 0,0 km/h (0 Bft) S-SW 196 0 min 0,000 mm 0,0 UV-I 0 W/m 2,0 C 2,3 C 0,0 km/h (0 Bft) 100,00 %
06.11.2015 05:57 2,3 C 98 % 1024,5 hPa 0,0 l/m 0,0 km/h (0 Bft) S-SW 196 0 min 0,000 mm 0,0 UV-I 0 W/m 2,0 C 2,3 C 0,0 km/h (0 Bft) 100,00 %
06.11.2015 05:58 2,3 C 98 % 1024,5 hPa 0,0 l/m 0,0 km/h (0 Bft) S-SW 196 0 min 0,000 mm 0,0 UV-I 0 W/m 2,0 C 2,3 C 0,0 km/h (0 Bft) 100,00 %
06.11.2015 05:59 2,3 C 98 % 1024,5 hPa 0,0 l/m 0,0 km/h (0 Bft) S-SW 196 0 min 0,000 mm 0,0 UV-I 0 W/m 2,0 C 2,3 C 0,0 km/h (0 Bft) 100,00 %
06.11.2015 06:00 2,2 C 98 % 1024,5 hPa 0,0 l/m 0,0 km/h (0 Bft) S-SW 196 0 min 0,000 mm 0,0 UV-I 0 W/m 1,9 C 2,2 C 0,0 km/h (0 Bft) 95,65 %
06.11.2015 06:01 2,2 C 98 % 1024,5 hPa 0,0 l/m 0,0 km/h (0 Bft) S-SW 196 0 min 0,000 mm 0,0 UV-I 0 W/m 1,9 C 2,2 C 0,0 km/h (0 Bft) 100,00 %
06.11.2015 06:02 2,2 C 98 % 1024,6 hPa 0,0 l/m 0,0 km/h (0 Bft) S-SW 196 0 min 0,000 mm 0,0 UV-I 0 W/m 1,9 C 2,2 C 0,0 km/h (0 Bft) 95,65 %
06.11.2015 06:03 2,1 C 98 % 1024,6 hPa 0,0 l/m 0,0 km/h (0 Bft) S-SW 196 0 min 0,000 mm 0,0 UV-I 0 W/m 1,8 C 2,1 C 0,0 km/h (0 Bft) 100,00 %
06.11.2015 06:04 2,1 C 98 % 1024,6 hPa 0,0 l/m 0,0 km/h (0 Bft) S-SW 196 0 min 0,000 mm 0,0 UV-I 0 W/m 1,8 C 2,1 C 0,0 km/h (0 Bft) 100,00 %
06.11.2015 06:05 2,1 C 98 % 1024,7 hPa 0,0 l/m 0,0 km/h (0 Bft) S-SW 196 0 min 0,000 mm 0,0 UV-I 0 W/m 1,8 C 2,1 C 0,0 km/h (0 Bft) 100,00 %
06.11.2015 06:06 2,1 C 98 % 1024,7 hPa 0,0 l/m 0,0 km/h (0 Bft) S-SW 196 0 min 0,000 mm 0,0 UV-I 0 W/m 1,8 C 2,1 C 0,0 km/h (0 Bft) 100,00 %
06.11.2015 06:07 2,1 C 98 % 1024,7 hPa 0,0 l/m 0,0 km/h (0 Bft) S-SW 196 0 min 0,000 mm 0,0 UV-I 0 W/m 1,8 C 2,1 C 0,0 km/h (0 Bft) 100,00 %
06.11.2015 06:08 2,1 C 98 % 1024,7 hPa 0,0 l/m 0,0 km/h (0 Bft) S-SW 196 0 min 0,000 mm 0,0 UV-I 0 W/m 1,8 C 2,1 C 0,0 km/h (0 Bft) 96,15 %
06.11.2015 06:09 2,1 C 98 % 1024,7 hPa 0,0 l/m 0,0 km/h (0 Bft) S-SW 196 0 min 0,000 mm 0,0 UV-I 0 W/m 1,8 C 2,1 C 0,0 km/h (0 Bft) 100,00 %
06.11.2015 06:10 2,2 C 98 % 1024,7 hPa 0,0 l/m 0,0 km/h (0 Bft) S-SW 196 0 min 0,000 mm 0,0 UV-I 0 W/m 1,9 C 2,2 C 0,0 km/h (0 Bft) 100,00 %
06.11.2015 06:11 2,2 C 98 % 1024,8 hPa 0,0 l/m 0,0 km/h (0 Bft) S-SW 196 0 min 0,000 mm 0,0 UV-I 0 W/m 1,9 C 2,2 C 0,0 km/h (0 Bft) 100,00 %
06.11.2015 06:12 2,1 C 98 % 1024,7 hPa 0,0 l/m 0,0 km/h (0 Bft) S-SW 196 0 min 0,000 mm 0,0 UV-I 0 W/m 1,8 C 2,1 C 0,0 km/h (0 Bft) 100,00 %
06.11.2015 06:13 2,1 C 98 % 1024,8 hPa 0,0 l/m 0,0 km/h (0 Bft) S-SW 196 0 min 0,000 mm 0,0 UV-I 0 W/m 1,8 C 2,1 C 0,0 km/h (0 Bft) 100,00 %
06.11.2015 06:14 2,1 C 98 % 1024,8 hPa 0,0 l/m 0,0 km/h (0 Bft) S-SW 196 0 min 0,000 mm 0,0 UV-I 0 W/m 1,8 C 2,1 C 0,0 km/h (0 Bft) 100,00 %
06.11.2015 06:15 2,0 C 98 % 1024,8 hPa 0,0 l/m 0,0 km/h (0 Bft) S-SW 196 0 min 0,000 mm 0,0 UV-I 0 W/m 1,7 C 2,0 C 0,0 km/h (0 Bft) 100,00 %
06.11.2015 06:16 2,0 C 98 % 1024,8 hPa 0,0 l/m 0,0 km/h (0 Bft) S-SW 196 0 min 0,000 mm 0,0 UV-I 0 W/m 1,7 C 2,0 C 0,0 km/h (0 Bft) 100,00 %
06.11.2015 06:17 2,0 C 98 % 1024,8 hPa 0,0 l/m 0,0 km/h (0 Bft) S-SW 196 0 min 0,000 mm 0,0 UV-I 0 W/m 1,7 C 2,0 C 0,0 km/h (0 Bft) 100,00 %
06.11.2015 06:18 2,0 C 98 % 1024,8 hPa 0,0 l/m 0,0 km/h (0 Bft) S-SW 196 0 min 0,000 mm 0,0 UV-I 0 W/m 1,7 C 2,0 C 0,0 km/h (0 Bft) 100,00 %
06.11.2015 06:19 1,9 C 98 % 1024,8 hPa 0,0 l/m 0,0 km/h (0 Bft) S-SW 196 0 min 0,000 mm 0,0 UV-I 0 W/m 1,6 C 1,9 C 0,0 km/h (0 Bft) 96,15 %
06.11.2015 06:20 1,9 C 98 % 1024,8 hPa 0,0 l/m 0,0 km/h (0 Bft) S-SW 196 0 min 0,000 mm 0,0 UV-I 0 W/m 1,6 C 1,9 C 0,0 km/h (0 Bft) 96,30 %
06.11.2015 06:21 1,9 C 98 % 1024,8 hPa 0,0 l/m 0,0 km/h (0 Bft) S-SW 196 0 min 0,000 mm 0,0 UV-I 0 W/m 1,6 C 1,9 C 0,0 km/h (0 Bft) 100,00 %
06.11.2015 06:22 1,9 C 98 % 1024,8 hPa 0,0 l/m 0,0 km/h (0 Bft) S-SW 196 0 min 0,000 mm 0,0 UV-I 0 W/m 1,6 C 1,9 C 0,0 km/h (0 Bft) 95,83 %
06.11.2015 06:23 1,9 C 98 % 1024,8 hPa 0,0 l/m 0,0 km/h (0 Bft) S-SW 196 0 min 0,000 mm 0,0 UV-I 0 W/m 1,6 C 1,9 C 0,0 km/h (0 Bft) 95,65 %
06.11.2015 06:24 1,9 C 98 % 1024,7 hPa 0,0 l/m 0,7 km/h (0 Bft) S-SW 196 0 min 0,000 mm 0,0 UV-I 0 W/m 1,6 C 1,9 C 1,6 km/h (1 Bft) 95,83 %
06.11.2015 06:25 1,9 C 98 % 1024,8 hPa 0,0 l/m 0,8 km/h (0 Bft) S-SW 196 0 min 0,000 mm 0,0 UV-I 0 W/m 1,6 C 1,9 C 1,6 km/h (1 Bft) 92,86 %
06.11.2015 06:26 1,8 C 98 % 1024,8 hPa 0,0 l/m 0,9 km/h (0 Bft) S-SW 196 0 min 0,000 mm 0,0 UV-I 0 W/m 1,5 C 1,8 C 1,6 km/h (1 Bft) 100,00 %
06.11.2015 06:27 1,8 C 98 % 1024,8 hPa 0,0 l/m 0,9 km/h (0 Bft) S-SW 196 0 min 0,000 mm 0,0 UV-I 0 W/m 1,5 C 1,8 C 1,6 km/h (1 Bft) 96,15 %
06.11.2015 06:28 1,9 C 98 % 1024,8 hPa 0,0 l/m 0,1 km/h (0 Bft) S-SW 196 0 min 0,000 mm 0,0 UV-I 0 W/m 1,6 C 1,9 C 1,6 km/h (1 Bft) 100,00 %
06.11.2015 06:29 1,9 C 98 % 1024,8 hPa 0,0 l/m 0,0 km/h (0 Bft) S-SW 196 0 min 0,000 mm 0,0 UV-I 0 W/m 1,6 C 1,9 C 0,0 km/h (0 Bft) 96,15 %
06.11.2015 06:30 1,9 C 98 % 1024,8 hPa 0,0 l/m 0,0 km/h (0 Bft) S-SW 196 0 min 0,000 mm 0,0 UV-I 0 W/m 1,6 C 1,9 C 0,0 km/h (0 Bft) 100,00 %
06.11.2015 06:31 1,9 C 98 % 1024,8 hPa 0,0 l/m 0,0 km/h (0 Bft) S-SW 196 0 min 0,000 mm 0,0 UV-I 0 W/m 1,6 C 1,9 C 0,0 km/h (0 Bft) 95,65 %
06.11.2015 06:32 1,9 C 98 % 1024,8 hPa 0,0 l/m 0,0 km/h (0 Bft) S-SW 196 0 min 0,000 mm 0,0 UV-I 0 W/m 1,6 C 1,9 C 0,0 km/h (0 Bft) 100,00 %
06.11.2015 06:33 1,9 C 98 % 1024,9 hPa 0,0 l/m 0,0 km/h (0 Bft) S-SW 196 0 min 0,000 mm 0,0 UV-I 0 W/m 1,6 C 1,9 C 0,0 km/h (0 Bft) 100,00 %
06.11.2015 06:34 1,9 C 98 % 1024,9 hPa 0,0 l/m 0,0 km/h (0 Bft) S-SW 196 0 min 0,000 mm 0,0 UV-I 0 W/m 1,6 C 1,9 C 0,0 km/h (0 Bft) 100,00 %
06.11.2015 06:35 2,0 C 98 % 1024,9 hPa 0,0 l/m 0,0 km/h (0 Bft) S-SW 196 0 min 0,000 mm 0,0 UV-I 0 W/m 1,7 C 2,0 C 0,0 km/h (0 Bft) 95,65 %
06.11.2015 06:36 2,0 C 98 % 1024,9 hPa 0,0 l/m 0,0 km/h (0 Bft) S-SW 196 0 min 0,000 mm 0,0 UV-I 0 W/m 1,7 C 2,0 C 0,0 km/h (0 Bft) 100,00 %
06.11.2015 06:37 2,0 C 98 % 1024,9 hPa 0,0 l/m 0,0 km/h (0 Bft) S-SW 196 0 min 0,000 mm 0,0 UV-I 0 W/m 1,7 C 2,0 C 0,0 km/h (0 Bft) 100,00 %
06.11.2015 06:38 2,0 C 98 % 1024,9 hPa 0,0 l/m 0,0 km/h (0 Bft) S-SW 196 0 min 0,000 mm 0,0 UV-I 0 W/m 1,7 C 2,0 C 0,0 km/h (0 Bft) 100,00 %
06.11.2015 06:39 2,0 C 98 % 1025,0 hPa 0,0 l/m 0,0 km/h (0 Bft) S-SW 196 0 min 0,000 mm 0,0 UV-I 0 W/m 1,7 C 2,0 C 0,0 km/h (0 Bft) 100,00 %
06.11.2015 06:40 1,9 C 98 % 1024,9 hPa 0,0 l/m 0,0 km/h (0 Bft) S-SW 196 0 min 0,000 mm 0,0 UV-I 0 W/m 1,6 C 1,9 C 0,0 km/h (0 Bft) 100,00 %
06.11.2015 06:41 1,9 C 98 % 1024,9 hPa 0,0 l/m 0,0 km/h (0 Bft) S-SW 196 0 min 0,000 mm 0,0 UV-I 0 W/m 1,6 C 1,9 C 0,0 km/h (0 Bft) 100,00 %
06.11.2015 06:42 1,9 C 98 % 1025,0 hPa 0,0 l/m 0,0 km/h (0 Bft) S-SW 196 0 min 0,000 mm 0,0 UV-I 0 W/m 1,6 C 1,9 C 0,0 km/h (0 Bft) 100,00 %
06.11.2015 06:43 1,9 C 98 % 1025,0 hPa 0,0 l/m 0,0 km/h (0 Bft) S-SW 196 0 min 0,000 mm 0,0 UV-I 0 W/m 1,6 C 1,9 C 0,0 km/h (0 Bft) 100,00 %
06.11.2015 06:44 1,9 C 98 % 1025,0 hPa 0,0 l/m 0,0 km/h (0 Bft) S-SW 196 0 min 0,000 mm 0,0 UV-I 4 W/m 1,6 C 1,9 C 0,0 km/h (0 Bft) 100,00 %
06.11.2015 06:45 1,9 C 98 % 1025,1 hPa 0,0 l/m 0,0 km/h (0 Bft) S-SW 196 0 min 0,000 mm 0,0 UV-I 5 W/m 1,6 C 1,9 C 0,0 km/h (0 Bft) 100,00 %
06.11.2015 06:46 1,9 C 98 % 1025,1 hPa 0,0 l/m 0,0 km/h (0 Bft) S-SW 196 0 min 0,000 mm 0,0 UV-I 5 W/m 1,6 C 1,9 C 0,0 km/h (0 Bft) 100,00 %
06.11.2015 06:47 1,9 C 98 % 1025,1 hPa 0,0 l/m 0,0 km/h (0 Bft) S-SW 196 0 min 0,000 mm 0,0 UV-I 7 W/m 1,6 C 1,9 C 0,0 km/h (0 Bft) 100,00 %
06.11.2015 06:48 1,8 C 98 % 1025,1 hPa 0,0 l/m 0,0 km/h (0 Bft) S-SW 196 0 min 0,000 mm 0,0 UV-I 7 W/m 1,5 C 1,8 C 0,0 km/h (0 Bft) 100,00 %
06.11.2015 06:49 1,8 C 98 % 1025,1 hPa 0,0 l/m 0,0 km/h (0 Bft) S-SW 196 0 min 0,000 mm 0,0 UV-I 7 W/m 1,5 C 1,8 C 0,0 km/h (0 Bft) 100,00 %
06.11.2015 06:50 1,8 C 98 % 1025,1 hPa 0,0 l/m 0,0 km/h (0 Bft) S-SW 196 0 min 0,000 mm 0,0 UV-I 9 W/m 1,5 C 1,8 C 0,0 km/h (0 Bft) 100,00 %
06.11.2015 06:51 1,8 C 98 % 1025,1 hPa 0,0 l/m 0,0 km/h (0 Bft) S-SW 196 0 min 0,000 mm 0,0 UV-I 9 W/m 1,5 C 1,8 C 0,0 km/h (0 Bft) 100,00 %
06.11.2015 06:52 1,7 C 98 % 1025,1 hPa 0,0 l/m 0,0 km/h (0 Bft) S-SW 196 0 min 0,000 mm 0,0 UV-I 9 W/m 1,4 C 1,7 C 0,0 km/h (0 Bft) 100,00 %
06.11.2015 06:53 1,7 C 98 % 1025,1 hPa 0,0 l/m 0,0 km/h (0 Bft) S-SW 196 0 min 0,000 mm 0,0 UV-I 11 W/m 1,4 C 1,7 C 0,0 km/h (0 Bft) 100,00 %
06.11.2015 06:54 1,7 C 98 % 1025,1 hPa 0,0 l/m 0,0 km/h (0 Bft) S-SW 196 0 min 0,000 mm 0,0 UV-I 11 W/m 1,4 C 1,7 C 0,0 km/h (0 Bft) 100,00 %
06.11.2015 06:55 1,6 C 98 % 1025,1 hPa 0,0 l/m 0,0 km/h (0 Bft) S-SW 196 0 min 0,000 mm 0,0 UV-I 11 W/m 1,3 C 1,6 C 0,0 km/h (0 Bft) 100,00 %
06.11.2015 06:56 1,6 C 98 % 1025,2 hPa 0,0 l/m 0,0 km/h (0 Bft) S-SW 196 0 min 0,000 mm 0,0 UV-I 12 W/m 1,3 C 1,6 C 0,0 km/h (0 Bft) 96,15 %
06.11.2015 06:57 1,5 C 98 % 1025,2 hPa 0,0 l/m 0,0 km/h (0 Bft) S-SW 196 0 min 0,000 mm 0,0 UV-I 12 W/m 1,2 C 1,5 C 0,0 km/h (0 Bft) 100,00 %
06.11.2015 06:58 1,4 C 98 % 1025,2 hPa 0,0 l/m 0,0 km/h (0 Bft) S-SW 196 0 min 0,000 mm 0,0 UV-I 12 W/m 1,1 C 1,4 C 0,0 km/h (0 Bft) 100,00 %
06.11.2015 06:59 1,4 C 98 % 1025,2 hPa 0,0 l/m 0,0 km/h (0 Bft) S-SW 196 0 min 0,000 mm 0,0 UV-I 13 W/m 1,1 C 1,4 C 0,0 km/h (0 Bft) 100,00 %
06.11.2015 07:00 1,4 C 98 % 1025,2 hPa 0,0 l/m 0,1 km/h (0 Bft) S-SW 196 0 min 0,000 mm 0,0 UV-I 14 W/m 1,1 C 1,4 C 1,6 km/h (1 Bft) 100,00 %
06.11.2015 07:01 1,4 C 98 % 1025,3 hPa 0,0 l/m 0,0 km/h (0 Bft) S-SW 196 0 min 0,000 mm 0,0 UV-I 14 W/m 1,1 C 1,4 C 0,0 km/h (0 Bft) 95,65 %
06.11.2015 07:02 1,4 C 98 % 1025,2 hPa 0,0 l/m 0,0 km/h (0 Bft) S-SW 196 0 min 0,000 mm 0,0 UV-I 14 W/m 1,1 C 1,4 C 0,0 km/h (0 Bft) 100,00 %
06.11.2015 07:03 1,5 C 98 % 1025,3 hPa 0,0 l/m 0,0 km/h (0 Bft) S-SW 196 0 min 0,000 mm 0,0 UV-I 16 W/m 1,2 C 1,5 C 0,0 km/h (0 Bft) 100,00 %
06.11.2015 07:04 1,6 C 98 % 1025,3 hPa 0,0 l/m 0,0 km/h (0 Bft) S-SW 196 0 min 0,000 mm 0,0 UV-I 16 W/m 1,3 C 1,6 C 0,0 km/h (0 Bft) 100,00 %
06.11.2015 07:05 1,6 C 98 % 1025,3 hPa 0,0 l/m 0,0 km/h (0 Bft) S-SW 196 0 min 0,000 mm 0,0 UV-I 17 W/m 1,3 C 1,6 C 0,0 km/h (0 Bft) 95,65 %
06.11.2015 07:06 1,6 C 98 % 1025,3 hPa 0,0 l/m 0,0 km/h (0 Bft) S-SW 196 0 min 0,000 mm 0,0 UV-I 18 W/m 1,3 C 1,6 C 0,0 km/h (0 Bft) 100,00 %
06.11.2015 07:07 1,7 C 98 % 1025,3 hPa 0,0 l/m 0,0 km/h (0 Bft) S-SW 196 1 min 0,000 mm 0,0 UV-I 19 W/m 1,4 C 1,7 C 0,0 km/h (0 Bft) 100,00 %
06.11.2015 07:08 1,6 C 98 % 1025,4 hPa 0,0 l/m 0,0 km/h (0 Bft) S-SW 196 1 min 0,000 mm 0,0 UV-I 19 W/m 1,3 C 1,6 C 0,0 km/h (0 Bft) 100,00 %
06.11.2015 07:09 1,7 C 98 % 1025,4 hPa 0,0 l/m 0,1 km/h (0 Bft) S-SW 196 1 min 0,000 mm 0,0 UV-I 21 W/m 1,4 C 1,7 C 1,6 km/h (1 Bft) 100,00 %
06.11.2015 07:10 1,6 C 98 % 1025,4 hPa 0,0 l/m 0,3 km/h (0 Bft) S-SW 196 1 min 0,000 mm 0,0 UV-I 21 W/m 1,3 C 1,6 C 1,6 km/h (1 Bft) 100,00 %
06.11.2015 07:11 1,6 C 98 % 1025,4 hPa 0,0 l/m 0,1 km/h (0 Bft) S-SW 196 1 min 0,000 mm 0,0 UV-I 24 W/m 1,3 C 1,6 C 1,6 km/h (1 Bft) 100,00 %
06.11.2015 07:12 1,6 C 98 % 1025,4 hPa 0,0 l/m 0,0 km/h (0 Bft) S-SW 196 1 min 0,000 mm 0,0 UV-I 25 W/m 1,3 C 1,6 C 0,0 km/h (0 Bft) 100,00 %
06.11.2015 07:13 1,6 C 98 % 1025,5 hPa 0,0 l/m 0,0 km/h (0 Bft) S-SW 196 1 min 0,000 mm 0,0 UV-I 26 W/m 1,3 C 1,6 C 0,0 km/h (0 Bft) 100,00 %
06.11.2015 07:14 1,6 C 98 % 1025,5 hPa 0,0 l/m 0,0 km/h (0 Bft) S-SW 196 1 min 0,000 mm 0,0 UV-I 28 W/m 1,3 C 1,6 C 0,0 km/h (0 Bft) 100,00 %
06.11.2015 07:15 1,6 C 98 % 1025,4 hPa 0,0 l/m 0,0 km/h (0 Bft) S-SW 196 1 min 0,000 mm 0,0 UV-I 28 W/m 1,3 C 1,6 C 0,0 km/h (0 Bft) 100,00 %
06.11.2015 07:16 1,6 C 98 % 1025,5 hPa 0,0 l/m 0,0 km/h (0 Bft) S-SW 196 1 min 0,000 mm 0,0 UV-I 30 W/m 1,3 C 1,6 C 0,0 km/h (0 Bft) 100,00 %
06.11.2015 07:17 1,7 C 98 % 1025,5 hPa 0,0 l/m 0,0 km/h (0 Bft) S-SW 196 1 min 0,000 mm 0,0 UV-I 31 W/m 1,4 C 1,7 C 0,0 km/h (0 Bft) 100,00 %
06.11.2015 07:18 1,7 C 98 % 1025,5 hPa 0,0 l/m 0,0 km/h (0 Bft) S-SW 196 1 min 0,000 mm 0,0 UV-I 32 W/m 1,4 C 1,7 C 0,0 km/h (0 Bft) 95,65 %
06.11.2015 07:19 1,8 C 98 % 1025,5 hPa 0,0 l/m 0,0 km/h (0 Bft) S-SW 196 1 min 0,000 mm 0,0 UV-I 32 W/m 1,5 C 1,8 C 0,0 km/h (0 Bft) 95,83 %
06.11.2015 07:20 1,8 C 98 % 1025,5 hPa 0,0 l/m 0,0 km/h (0 Bft) S-SW 196 1 min 0,000 mm 0,0 UV-I 33 W/m 1,5 C 1,8 C 0,0 km/h (0 Bft) 100,00 %
06.11.2015 07:21 1,8 C 98 % 1025,4 hPa 0,0 l/m 0,0 km/h (0 Bft) S-SW 196 1 min 0,000 mm 0,0 UV-I 33 W/m 1,5 C 1,8 C 0,0 km/h (0 Bft) 100,00 %
06.11.2015 07:22 1,9 C 98 % 1025,4 hPa 0,0 l/m 0,0 km/h (0 Bft) S-SW 196 1 min 0,000 mm 0,0 UV-I 34 W/m 1,6 C 1,9 C 0,0 km/h (0 Bft) 100,00 %
06.11.2015 07:23 1,9 C 98 % 1025,4 hPa 0,0 l/m 0,0 km/h (0 Bft) S-SW 196 1 min 0,000 mm 0,0 UV-I 35 W/m 1,6 C 1,9 C 0,0 km/h (0 Bft) 100,00 %
06.11.2015 07:24 2,0 C 98 % 1025,4 hPa 0,0 l/m 0,0 km/h (0 Bft) S-SW 196 1 min 0,000 mm 0,0 UV-I 35 W/m 1,7 C 2,0 C 0,0 km/h (0 Bft) 100,00 %
06.11.2015 07:25 2,1 C 98 % 1025,4 hPa 0,0 l/m 0,2 km/h (0 Bft) S 187 1 min 0,000 mm 0,0 UV-I 35 W/m 1,8 C 2,1 C 1,6 km/h (1 Bft) 100,00 %
06.11.2015 07:26 2,1 C 98 % 1025,4 hPa 0,0 l/m 1,2 km/h (1 Bft) S 177 0 min 0,000 mm 0,0 UV-I 35 W/m 1,8 C 2,1 C 1,6 km/h (1 Bft) 100,00 %
06.11.2015 07:27 2,1 C 98 % 1025,4 hPa 0,0 l/m 0,3 km/h (0 Bft) S 177 0 min 0,000 mm 0,0 UV-I 35 W/m 1,8 C 2,1 C 1,6 km/h (1 Bft) 100,00 %
06.11.2015 07:28 2,1 C 98 % 1025,4 hPa 0,0 l/m 0,0 km/h (0 Bft) S 177 0 min 0,000 mm 0,0 UV-I 37 W/m 1,8 C 2,1 C 0,0 km/h (0 Bft) 100,00 %
06.11.2015 07:29 2,1 C 98 % 1025,4 hPa 0,0 l/m 0,0 km/h (0 Bft) S 177 0 min 0,000 mm 0,0 UV-I 37 W/m 1,8 C 2,1 C 0,0 km/h (0 Bft) 100,00 %
06.11.2015 07:30 2,1 C 98 % 1025,4 hPa 0,0 l/m 0,0 km/h (0 Bft) S 177 0 min 0,000 mm 0,0 UV-I 38 W/m 1,8 C 2,1 C 0,0 km/h (0 Bft) 91,30 %
06.11.2015 07:31 2,1 C 98 % 1025,4 hPa 0,0 l/m 0,0 km/h (0 Bft) S 177 1 min 0,000 mm 0,0 UV-I 43 W/m 1,8 C 2,1 C 0,0 km/h (0 Bft) 100,00 %
06.11.2015 07:32 2,1 C 98 % 1025,4 hPa 0,0 l/m 0,0 km/h (0 Bft) S 177 1 min 0,000 mm 0,0 UV-I 46 W/m 1,8 C 2,1 C 0,0 km/h (0 Bft) 96,15 %
06.11.2015 07:33 2,2 C 98 % 1025,4 hPa 0,0 l/m 0,0 km/h (0 Bft) S 177 0 min 0,000 mm 0,0 UV-I 42 W/m 1,9 C 2,2 C 0,0 km/h (0 Bft) 100,00 %
06.11.2015 07:34 2,2 C 98 % 1025,4 hPa 0,0 l/m 0,0 km/h (0 Bft) S 177 0 min 0,000 mm 0,0 UV-I 42 W/m 1,9 C 2,2 C 0,0 km/h (0 Bft) 100,00 %
06.11.2015 07:35 2,2 C 98 % 1025,4 hPa 0,0 l/m 0,0 km/h (0 Bft) S 177 0 min 0,000 mm 0,0 UV-I 43 W/m 1,9 C 2,2 C 0,0 km/h (0 Bft) 100,00 %
06.11.2015 07:36 2,2 C 98 % 1025,4 hPa 0,0 l/m 0,0 km/h (0 Bft) S 177 0 min 0,000 mm 0,0 UV-I 45 W/m 1,9 C 2,2 C 0,0 km/h (0 Bft) 100,00 %
06.11.2015 07:37 2,2 C 98 % 1025,4 hPa 0,0 l/m 0,0 km/h (0 Bft) S 177 0 min 0,000 mm 0,0 UV-I 46 W/m 1,9 C 2,2 C 0,0 km/h (0 Bft) 100,00 %
06.11.2015 07:38 2,2 C 98 % 1025,4 hPa 0,0 l/m 0,0 km/h (0 Bft) S 177 0 min 0,000 mm 0,0 UV-I 44 W/m 1,9 C 2,2 C 0,0 km/h (0 Bft) 100,00 %
06.11.2015 07:39 2,2 C 98 % 1025,4 hPa 0,0 l/m 0,0 km/h (0 Bft) S 177 0 min 0,000 mm 0,0 UV-I 42 W/m 1,9 C 2,2 C 0,0 km/h (0 Bft) 100,00 %
06.11.2015 07:40 2,2 C 98 % 1025,4 hPa 0,0 l/m 0,0 km/h (0 Bft) S 177 0 min 0,000 mm 0,0 UV-I 42 W/m 1,9 C 2,2 C 0,0 km/h (0 Bft) 100,00 %
06.11.2015 07:41 2,3 C 98 % 1025,4 hPa 0,0 l/m 0,0 km/h (0 Bft) S 177 0 min 0,000 mm 0,0 UV-I 43 W/m 2,0 C 2,3 C 0,0 km/h (0 Bft) 100,00 %
06.11.2015 07:42 2,3 C 98 % 1025,4 hPa 0,0 l/m 0,0 km/h (0 Bft) S 177 0 min 0,000 mm 0,0 UV-I 46 W/m 2,0 C 2,3 C 0,0 km/h (0 Bft) 100,00 %
06.11.2015 07:43 2,4 C 98 % 1025,4 hPa 0,0 l/m 0,0 km/h (0 Bft) S 177 0 min 0,000 mm 0,0 UV-I 47 W/m 2,1 C 2,4 C 0,0 km/h (0 Bft) 100,00 %
06.11.2015 07:44 2,4 C 98 % 1025,5 hPa 0,0 l/m 0,0 km/h (0 Bft) S 177 0 min 0,000 mm 0,0 UV-I 51 W/m 2,1 C 2,4 C 0,0 km/h (0 Bft) 100,00 %
06.11.2015 07:45 2,4 C 98 % 1025,5 hPa 0,0 l/m 0,0 km/h (0 Bft) S 177 0 min 0,000 mm 0,0 UV-I 55 W/m 2,1 C 2,4 C 0,0 km/h (0 Bft) 100,00 %
06.11.2015 07:46 2,4 C 98 % 1025,5 hPa 0,0 l/m 0,0 km/h (0 Bft) S 177 0 min 0,000 mm 0,0 UV-I 59 W/m 2,1 C 2,4 C 0,0 km/h (0 Bft) 100,00 %
06.11.2015 07:47 2,4 C 98 % 1025,5 hPa 0,0 l/m 0,0 km/h (0 Bft) S 177 0 min 0,000 mm 0,0 UV-I 61 W/m 2,1 C 2,4 C 0,0 km/h (0 Bft) 96,15 %
06.11.2015 07:48 2,4 C 98 % 1025,5 hPa 0,0 l/m 0,0 km/h (0 Bft) S 177 0 min 0,000 mm 0,0 UV-I 63 W/m 2,1 C 2,4 C 0,0 km/h (0 Bft) 100,00 %
06.11.2015 07:49 2,4 C 98 % 1025,5 hPa 0,0 l/m 0,0 km/h (0 Bft) S 177 0 min 0,000 mm 0,0 UV-I 66 W/m 2,1 C 2,4 C 0,0 km/h (0 Bft) 100,00 %
06.11.2015 07:50 2,4 C 98 % 1025,5 hPa 0,0 l/m 0,0 km/h (0 Bft) S 177 1 min 0,000 mm 0,0 UV-I 69 W/m 2,1 C 2,4 C 0,0 km/h (0 Bft) 100,00 %
06.11.2015 07:51 2,4 C 98 % 1025,5 hPa 0,0 l/m 0,0 km/h (0 Bft) S 177 1 min 0,000 mm 0,0 UV-I 72 W/m 2,1 C 2,4 C 0,0 km/h (0 Bft) 95,65 %
06.11.2015 07:52 2,4 C 98 % 1025,5 hPa 0,0 l/m 0,0 km/h (0 Bft) S 177 1 min 0,000 mm 0,0 UV-I 79 W/m 2,1 C 2,4 C 0,0 km/h (0 Bft) 100,00 %
06.11.2015 07:53 2,5 C 98 % 1025,5 hPa 0,0 l/m 0,0 km/h (0 Bft) S 177 1 min 0,000 mm 0,0 UV-I 87 W/m 2,2 C 2,5 C 0,0 km/h (0 Bft) 96,15 %
06.11.2015 07:54 2,5 C 98 % 1025,5 hPa 0,0 l/m 0,1 km/h (0 Bft) S 177 1 min 0,000 mm 0,0 UV-I 91 W/m 2,2 C 2,5 C 1,6 km/h (1 Bft) 100,00 %
06.11.2015 07:55 2,6 C 98 % 1025,5 hPa 0,0 l/m 0,0 km/h (0 Bft) S 177 1 min 0,000 mm 0,0 UV-I 93 W/m 2,3 C 2,6 C 0,0 km/h (0 Bft) 100,00 %
06.11.2015 07:56 2,6 C 98 % 1025,5 hPa 0,0 l/m 0,0 km/h (0 Bft) S 177 1 min 0,000 mm 0,0 UV-I 95 W/m 2,3 C 2,6 C 0,0 km/h (0 Bft) 100,00 %
06.11.2015 07:57 2,6 C 98 % 1025,5 hPa 0,0 l/m 0,0 km/h (0 Bft) S 177 1 min 0,000 mm 0,0 UV-I 92 W/m 2,3 C 2,6 C 0,0 km/h (0 Bft) 100,00 %
06.11.2015 07:58 2,6 C 98 % 1025,6 hPa 0,0 l/m 0,0 km/h (0 Bft) S 177 1 min 0,000 mm 0,0 UV-I 82 W/m 2,3 C 2,6 C 0,0 km/h (0 Bft) 100,00 %
06.11.2015 07:59 2,7 C 98 % 1025,7 hPa 0,0 l/m 0,0 km/h (0 Bft) S 177 0 min 0,000 mm 0,0 UV-I 74 W/m 2,4 C 2,7 C 0,0 km/h (0 Bft) 100,00 %
06.11.2015 08:00 2,7 C 98 % 1025,7 hPa 0,0 l/m 0,0 km/h (0 Bft) S 177 0 min 0,000 mm 0,0 UV-I 67 W/m 2,4 C 2,7 C 0,0 km/h (0 Bft) 90,91 %
06.11.2015 08:01 2,7 C 98 % 1025,7 hPa 0,0 l/m 0,0 km/h (0 Bft) S 177 0 min 0,025 mm 0,0 UV-I 63 W/m 2,4 C 2,7 C 0,0 km/h (0 Bft) 100,00 %
06.11.2015 08:02 2,7 C 98 % 1025,7 hPa 0,0 l/m 0,0 km/h (0 Bft) S 177 0 min 0,000 mm 0,0 UV-I 65 W/m 2,4 C 2,7 C 0,0 km/h (0 Bft) 95,65 %
06.11.2015 08:03 2,8 C 98 % 1025,8 hPa 0,0 l/m 0,0 km/h (0 Bft) S 177 0 min 0,000 mm 0,0 UV-I 65 W/m 2,5 C 2,8 C 0,0 km/h (0 Bft) 100,00 %
06.11.2015 08:04 2,8 C 98 % 1025,8 hPa 0,0 l/m 0,0 km/h (0 Bft) S 177 0 min 0,000 mm 0,0 UV-I 66 W/m 2,5 C 2,8 C 0,0 km/h (0 Bft) 100,00 %
06.11.2015 08:05 2,8 C 98 % 1025,8 hPa 0,0 l/m 0,7 km/h (0 Bft) S 178 0 min 0,000 mm 0,0 UV-I 68 W/m 2,5 C 2,8 C 1,6 km/h (1 Bft) 100,00 %
06.11.2015 08:06 2,8 C 98 % 1025,8 hPa 0,0 l/m 0,9 km/h (0 Bft) S 178 0 min 0,000 mm 0,0 UV-I 70 W/m 2,5 C 2,8 C 1,6 km/h (1 Bft) 100,00 %
06.11.2015 08:07 2,8 C 98 % 1025,8 hPa 0,0 l/m 0,4 km/h (0 Bft) S 178 0 min 0,000 mm 0,0 UV-I 70 W/m 2,5 C 2,8 C 1,6 km/h (1 Bft) 100,00 %
06.11.2015 08:08 2,7 C 98 % 1025,8 hPa 0,0 l/m 0,0 km/h (0 Bft) S 178 0 min 0,000 mm 0,0 UV-I 74 W/m 2,4 C 2,7 C 0,0 km/h (0 Bft) 100,00 %
06.11.2015 08:09 2,7 C 98 % 1025,8 hPa 0,0 l/m 0,8 km/h (0 Bft) S 178 0 min 0,000 mm 0,0 UV-I 76 W/m 2,4 C 2,7 C 1,6 km/h (1 Bft) 100,00 %
06.11.2015 08:10 2,6 C 98 % 1025,8 hPa 0,0 l/m 0,7 km/h (0 Bft) S 178 0 min 0,000 mm 0,0 UV-I 78 W/m 2,3 C 2,6 C 1,6 km/h (1 Bft) 100,00 %
06.11.2015 08:11 2,6 C 98 % 1025,9 hPa 0,0 l/m 0,5 km/h (0 Bft) S 178 0 min 0,000 mm 0,0 UV-I 80 W/m 2,3 C 2,6 C 1,6 km/h (1 Bft) 100,00 %
06.11.2015 08:12 2,6 C 98 % 1025,9 hPa 0,0 l/m 0,0 km/h (0 Bft) S 178 0 min 0,000 mm 0,0 UV-I 83 W/m 2,3 C 2,6 C 0,0 km/h (0 Bft) 96,15 %
06.11.2015 08:13 2,6 C 98 % 1025,9 hPa 0,0 l/m 0,0 km/h (0 Bft) S 178 0 min 0,000 mm 0,0 UV-I 86 W/m 2,3 C 2,6 C 0,0 km/h (0 Bft) 100,00 %
06.11.2015 08:14 2,6 C 98 % 1025,9 hPa 0,0 l/m 0,0 km/h (0 Bft) S 178 0 min 0,000 mm 0,0 UV-I 88 W/m 2,3 C 2,6 C 0,0 km/h (0 Bft) 100,00 %
06.11.2015 08:15 2,7 C 98 % 1025,9 hPa 0,0 l/m 0,0 km/h (0 Bft) S 178 0 min 0,000 mm 0,0 UV-I 90 W/m 2,4 C 2,7 C 0,0 km/h (0 Bft) 100,00 %
06.11.2015 08:16 2,7 C 98 % 1025,8 hPa 0,0 l/m 0,0 km/h (0 Bft) S 178 0 min 0,000 mm 0,0 UV-I 93 W/m 2,4 C 2,7 C 0,0 km/h (0 Bft) 95,83 %
06.11.2015 08:17 2,7 C 98 % 1025,8 hPa 0,0 l/m 0,0 km/h (0 Bft) S 178 0 min 0,000 mm 0,0 UV-I 97 W/m 2,4 C 2,7 C 0,0 km/h (0 Bft) 100,00 %
06.11.2015 08:18 2,8 C 98 % 1025,8 hPa 0,0 l/m 0,0 km/h (0 Bft) S 178 0 min 0,000 mm 0,0 UV-I 103 W/m 2,5 C 2,8 C 0,0 km/h (0 Bft) 100,00 %
06.11.2015 08:19 2,8 C 98 % 1025,8 hPa 0,0 l/m 0,0 km/h (0 Bft) S 178 1 min 0,000 mm 0,0 UV-I 113 W/m 2,5 C 2,8 C 0,0 km/h (0 Bft) 100,00 %
06.11.2015 08:20 2,8 C 98 % 1025,8 hPa 0,0 l/m 0,0 km/h (0 Bft) S 178 1 min 0,000 mm 0,0 UV-I 122 W/m 2,5 C 2,8 C 0,0 km/h (0 Bft) 100,00 %
06.11.2015 08:21 2,9 C 98 % 1025,8 hPa 0,0 l/m 0,0 km/h (0 Bft) S 178 1 min 0,000 mm 0,0 UV-I 133 W/m 2,6 C 2,9 C 0,0 km/h (0 Bft) 100,00 %
06.11.2015 08:22 2,9 C 98 % 1025,8 hPa 0,0 l/m 0,1 km/h (0 Bft) S 178 1 min 0,000 mm 0,0 UV-I 133 W/m 2,6 C 2,9 C 1,6 km/h (1 Bft) 100,00 %
06.11.2015 08:23 2,9 C 98 % 1025,8 hPa 0,0 l/m 0,6 km/h (0 Bft) S 179 1 min 0,000 mm 0,0 UV-I 140 W/m 2,6 C 2,9 C 1,6 km/h (1 Bft) 100,00 %
06.11.2015 08:24 3,0 C 98 % 1025,8 hPa 0,0 l/m 0,1 km/h (0 Bft) S 179 1 min 0,000 mm 0,0 UV-I 150 W/m 2,7 C 3,0 C 1,6 km/h (1 Bft) 100,00 %
06.11.2015 08:25 3,1 C 98 % 1025,8 hPa 0,0 l/m 0,0 km/h (0 Bft) S 179 1 min 0,000 mm 0,0 UV-I 159 W/m 2,8 C 3,1 C 0,0 km/h (0 Bft) 100,00 %
06.11.2015 08:26 3,1 C 98 % 1025,9 hPa 0,0 l/m 0,0 km/h (0 Bft) S 179 1 min 0,000 mm 0,0 UV-I 168 W/m 2,8 C 3,1 C 0,0 km/h (0 Bft) 100,00 %
06.11.2015 08:27 3,2 C 98 % 1025,9 hPa 0,0 l/m 0,0 km/h (0 Bft) S 179 1 min 0,000 mm 0,0 UV-I 163 W/m 2,9 C 3,2 C 0,0 km/h (0 Bft) 100,00 %
06.11.2015 08:28 3,2 C 98 % 1025,8 hPa 0,0 l/m 0,0 km/h (0 Bft) S 179 1 min 0,000 mm 0,0 UV-I 153 W/m 2,9 C 3,2 C 0,0 km/h (0 Bft) 100,00 %
06.11.2015 08:29 3,3 C 98 % 1025,9 hPa 0,0 l/m 0,0 km/h (0 Bft) S 179 1 min 0,000 mm 0,0 UV-I 145 W/m 3,0 C 3,3 C 0,0 km/h (0 Bft) 100,00 %
06.11.2015 08:30 3,3 C 98 % 1025,8 hPa 0,0 l/m 0,0 km/h (0 Bft) S 179 1 min 0,000 mm 0,0 UV-I 140 W/m 3,0 C 3,3 C 0,0 km/h (0 Bft) 95,83 %
06.11.2015 08:31 3,4 C 98 % 1025,8 hPa 0,0 l/m 0,0 km/h (0 Bft) S 179 1 min 0,000 mm 0,0 UV-I 137 W/m 3,1 C 3,4 C 0,0 km/h (0 Bft) 100,00 %
06.11.2015 08:32 3,4 C 98 % 1025,8 hPa 0,0 l/m 0,0 km/h (0 Bft) S 179 1 min 0,000 mm 0,0 UV-I 138 W/m 3,1 C 3,4 C 0,0 km/h (0 Bft) 100,00 %
06.11.2015 08:33 3,4 C 98 % 1025,8 hPa 0,0 l/m 0,0 km/h (0 Bft) S 179 1 min 0,000 mm 0,0 UV-I 145 W/m 3,1 C 3,4 C 0,0 km/h (0 Bft) 100,00 %
06.11.2015 08:34 3,4 C 98 % 1025,8 hPa 0,0 l/m 0,1 km/h (0 Bft) S 179 1 min 0,000 mm 0,0 UV-I 164 W/m 3,1 C 3,4 C 1,6 km/h (1 Bft) 100,00 %
06.11.2015 08:35 3,5 C 98 % 1025,8 hPa 0,0 l/m 0,1 km/h (0 Bft) S 179 1 min 0,000 mm 0,0 UV-I 185 W/m 3,2 C 3,5 C 1,6 km/h (1 Bft) 100,00 %
06.11.2015 08:36 3,6 C 98 % 1025,9 hPa 0,0 l/m 0,0 km/h (0 Bft) S 179 1 min 0,000 mm 0,0 UV-I 198 W/m 3,3 C 3,6 C 0,0 km/h (0 Bft) 100,00 %
06.11.2015 08:37 3,6 C 98 % 1025,9 hPa 0,0 l/m 0,7 km/h (0 Bft) S 179 1 min 0,000 mm 0,0 UV-I 214 W/m 3,3 C 3,6 C 1,6 km/h (1 Bft) 100,00 %
06.11.2015 08:38 3,7 C 98 % 1025,9 hPa 0,0 l/m 0,8 km/h (0 Bft) S 179 1 min 0,000 mm 0,0 UV-I 210 W/m 3,4 C 3,7 C 1,6 km/h (1 Bft) 100,00 %
06.11.2015 08:39 3,7 C 98 % 1026,0 hPa 0,0 l/m 0,8 km/h (0 Bft) SW 226 1 min 0,000 mm 0,0 UV-I 206 W/m 3,4 C 3,7 C 1,6 km/h (1 Bft) 100,00 %
06.11.2015 08:40 3,7 C 98 % 1026,0 hPa 0,0 l/m 1,5 km/h (1 Bft) W-NW 288 1 min 0,000 mm 0,0 UV-I 197 W/m 3,4 C 3,7 C 1,6 km/h (1 Bft) 100,00 %
06.11.2015 08:41 3,7 C 98 % 1026,0 hPa 0,0 l/m 0,8 km/h (0 Bft) W-NW 300 1 min 0,000 mm 0,0 UV-I 168 W/m 3,4 C 3,7 C 1,6 km/h (1 Bft) 100,00 %
06.11.2015 08:42 3,7 C 98 % 1026,0 hPa 0,0 l/m 0,8 km/h (0 Bft) W-NW 300 0 min 0,000 mm 0,0 UV-I 127 W/m 3,4 C 3,7 C 1,6 km/h (1 Bft) 92,31 %
06.11.2015 08:43 3,8 C 98 % 1026,0 hPa 0,0 l/m 0,1 km/h (0 Bft) W-NW 300 0 min 0,000 mm 0,0 UV-I 104 W/m 3,5 C 3,8 C 1,6 km/h (1 Bft) 100,00 %
06.11.2015 08:44 3,8 C 98 % 1026,0 hPa 0,0 l/m 0,0 km/h (0 Bft) W-NW 300 0 min 0,000 mm 0,0 UV-I 96 W/m 3,5 C 3,8 C 0,0 km/h (0 Bft) 95,65 %
06.11.2015 08:45 3,8 C 98 % 1026,0 hPa 0,0 l/m 0,1 km/h (0 Bft) W-NW 300 0 min 0,000 mm 0,0 UV-I 93 W/m 3,5 C 3,8 C 1,6 km/h (1 Bft) 99,32 %
06.11.2015 08:46 3,8 C 98 % 1026,0 hPa 0,0 l/m 0,0 km/h (0 Bft) W-NW 300 0 min 0,000 mm 0,0 UV-I 95 W/m 3,5 C 3,8 C 0,0 km/h (0 Bft) 100,00 %
06.11.2015 08:47 3,8 C 98 % 1026,0 hPa 0,0 l/m 0,2 km/h (0 Bft) W-NW 300 0 min 0,000 mm 0,0 UV-I 96 W/m 3,5 C 3,8 C 1,6 km/h (1 Bft) 100,00 %
06.11.2015 08:48 3,8 C 98 % 1026,0 hPa 0,0 l/m 0,3 km/h (0 Bft) W-NW 300 0 min 0,000 mm 0,0 UV-I 90 W/m 3,5 C 3,8 C 1,6 km/h (1 Bft) 100,00 %
06.11.2015 08:49 3,9 C 98 % 1026,0 hPa 0,0 l/m 0,2 km/h (0 Bft) W-NW 300 0 min 0,000 mm 0,0 UV-I 88 W/m 3,6 C 3,9 C 1,6 km/h (1 Bft) 100,00 %
06.11.2015 08:50 3,9 C 98 % 1026,1 hPa 0,0 l/m 0,0 km/h (0 Bft) W-NW 300 0 min 0,000 mm 0,0 UV-I 99 W/m 3,6 C 3,9 C 0,0 km/h (0 Bft) 100,00 %
06.11.2015 08:51 3,9 C 98 % 1026,1 hPa 0,0 l/m 0,1 km/h (0 Bft) W-NW 300 0 min 0,000 mm 0,0 UV-I 101 W/m 3,6 C 3,9 C 1,6 km/h (1 Bft) 100,00 %
06.11.2015 08:52 3,9 C 99 % 1026,1 hPa 0,0 l/m 0,1 km/h (0 Bft) W-NW 300 0 min 0,000 mm 0,0 UV-I 95 W/m 3,8 C 3,9 C 1,6 km/h (1 Bft) 100,00 %
06.11.2015 08:53 4,0 C 98 % 1026,0 hPa 0,0 l/m 0,0 km/h (0 Bft) W-NW 300 0 min 0,000 mm 0,0 UV-I 93 W/m 3,7 C 4,0 C 0,0 km/h (0 Bft) 100,00 %
06.11.2015 08:54 4,0 C 98 % 1026,0 hPa 0,0 l/m 0,0 km/h (0 Bft) W-NW 300 0 min 0,000 mm 0,0 UV-I 100 W/m 3,7 C 4,0 C 0,0 km/h (0 Bft) 100,00 %
06.11.2015 08:55 4,1 C 98 % 1026,1 hPa 0,0 l/m 0,0 km/h (0 Bft) W-NW 300 0 min 0,000 mm 0,0 UV-I 108 W/m 3,8 C 4,1 C 0,0 km/h (0 Bft) 100,00 %
06.11.2015 08:56 4,1 C 98 % 1026,1 hPa 0,0 l/m 0,1 km/h (0 Bft) W-NW 300 0 min 0,000 mm 0,0 UV-I 101 W/m 3,8 C 4,1 C 1,6 km/h (1 Bft) 100,00 %
06.11.2015 08:57 4,1 C 98 % 1026,1 hPa 0,0 l/m 0,0 km/h (0 Bft) W-NW 300 0 min 0,000 mm 0,0 UV-I 97 W/m 3,8 C 4,1 C 0,0 km/h (0 Bft) 95,65 %
06.11.2015 08:58 4,2 C 98 % 1026,2 hPa 0,0 l/m 0,0 km/h (0 Bft) W-NW 300 0 min 0,000 mm 0,0 UV-I 97 W/m 3,9 C 4,2 C 0,0 km/h (0 Bft) 96,30 %
06.11.2015 08:59 4,2 C 98 % 1026,2 hPa 0,0 l/m 0,0 km/h (0 Bft) W-NW 300 0 min 0,000 mm 0,0 UV-I 98 W/m 3,9 C 4,2 C 0,0 km/h (0 Bft) 100,00 %
06.11.2015 09:00 4,3 C 99 % 1026,1 hPa 0,0 l/m 0,1 km/h (0 Bft) W-NW 300 0 min 0,051 mm 0,0 UV-I 110 W/m 4,2 C 4,3 C 1,6 km/h (1 Bft) 100,00 %
06.11.2015 09:01 4,3 C 99 % 1026,1 hPa 0,0 l/m 0,0 km/h (0 Bft) W-NW 300 0 min 0,000 mm 0,0 UV-I 123 W/m 4,2 C 4,3 C 0,0 km/h (0 Bft) 100,00 %
06.11.2015 09:02 4,3 C 99 % 1026,2 hPa 0,0 l/m 0,4 km/h (0 Bft) W-NW 300 0 min 0,000 mm 0,1 UV-I 132 W/m 4,2 C 4,3 C 1,6 km/h (1 Bft) 100,00 %
06.11.2015 09:03 4,3 C 99 % 1026,2 hPa 0,0 l/m 0,0 km/h (0 Bft) W-NW 300 0 min 0,000 mm 0,5 UV-I 132 W/m 4,2 C 4,3 C 0,0 km/h (0 Bft) 100,00 %
06.11.2015 09:04 4,3 C 99 % 1026,2 hPa 0,0 l/m 0,5 km/h (0 Bft) NW 304 0 min 0,000 mm 0,5 UV-I 132 W/m 4,2 C 4,3 C 1,6 km/h (1 Bft) 100,00 %
06.11.2015 09:05 4,4 C 99 % 1026,2 hPa 0,0 l/m 0,9 km/h (0 Bft) N-NW 327 0 min 0,000 mm 0,5 UV-I 128 W/m 4,3 C 4,4 C 1,6 km/h (1 Bft) 96,15 %
06.11.2015 09:06 4,4 C 99 % 1026,2 hPa 0,0 l/m 1,5 km/h (1 Bft) N-NW 344 0 min 0,000 mm 0,5 UV-I 124 W/m 4,3 C 4,4 C 3,2 km/h (1 Bft) 100,00 %
06.11.2015 09:07 4,4 C 99 % 1026,2 hPa 0,0 l/m 0,4 km/h (0 Bft) N-NW 344 0 min 0,000 mm 0,5 UV-I 151 W/m 4,3 C 4,4 C 1,6 km/h (1 Bft) 100,00 %
06.11.2015 09:08 4,4 C 99 % 1026,2 hPa 0,0 l/m 0,1 km/h (0 Bft) N-NW 344 1 min 0,000 mm 0,5 UV-I 179 W/m 4,3 C 4,4 C 1,6 km/h (1 Bft) 100,00 %
06.11.2015 09:09 4,4 C 98 % 1026,2 hPa 0,0 l/m 0,0 km/h (0 Bft) N-NW 344 1 min 0,000 mm 0,5 UV-I 188 W/m 4,1 C 4,4 C 0,0 km/h (0 Bft) 100,00 %
06.11.2015 09:10 4,5 C 98 % 1026,1 hPa 0,0 l/m 0,0 km/h (0 Bft) N-NW 344 1 min 0,000 mm 0,5 UV-I 196 W/m 4,2 C 4,5 C 0,0 km/h (0 Bft) 95,83 %
06.11.2015 09:11 4,6 C 98 % 1026,1 hPa 0,0 l/m 0,1 km/h (0 Bft) N-NW 344 1 min 0,000 mm 0,5 UV-I 248 W/m 4,3 C 4,6 C 1,6 km/h (1 Bft) 100,00 %
06.11.2015 09:12 4,6 C 99 % 1026,2 hPa 0,0 l/m 0,7 km/h (0 Bft) N-NW 346 1 min 0,000 mm 0,5 UV-I 291 W/m 4,5 C 4,6 C 1,6 km/h (1 Bft) 100,00 %
06.11.2015 09:13 4,7 C 99 % 1026,2 hPa 0,0 l/m 0,2 km/h (0 Bft) N-NW 346 1 min 0,000 mm 0,5 UV-I 309 W/m 4,6 C 4,7 C 1,6 km/h (1 Bft) 96,15 %
06.11.2015 09:14 4,7 C 99 % 1026,2 hPa 0,0 l/m 1,5 km/h (1 Bft) N 349 1 min 0,000 mm 0,6 UV-I 288 W/m 4,6 C 4,7 C 3,2 km/h (1 Bft) 100,00 %
06.11.2015 09:15 4,7 C 99 % 1026,2 hPa 0,0 l/m 1,5 km/h (1 Bft) N 349 1 min 0,000 mm 0,5 UV-I 245 W/m 4,6 C 4,7 C 3,2 km/h (1 Bft) 100,00 %
06.11.2015 09:16 4,7 C 98 % 1026,2 hPa 0,0 l/m 0,7 km/h (0 Bft) N 349 1 min 0,000 mm 0,6 UV-I 272 W/m 4,4 C 4,7 C 1,6 km/h (1 Bft) 100,00 %
06.11.2015 09:17 4,8 C 98 % 1026,2 hPa 0,0 l/m 1,1 km/h (1 Bft) N 349 1 min 0,000 mm 0,6 UV-I 295 W/m 4,5 C 4,8 C 1,6 km/h (1 Bft) 100,00 %
06.11.2015 09:18 4,8 C 98 % 1026,2 hPa 0,0 l/m 1,7 km/h (1 Bft) N-NO 18 1 min 0,000 mm 0,5 UV-I 256 W/m 4,5 C 4,8 C 3,2 km/h (1 Bft) 100,00 %
06.11.2015 09:19 4,9 C 98 % 1026,2 hPa 0,0 l/m 1,7 km/h (1 Bft) NO 49 1 min 0,000 mm 0,5 UV-I 221 W/m 4,6 C 4,9 C 3,2 km/h (1 Bft) 100,00 %
06.11.2015 09:20 4,9 C 98 % 1026,2 hPa 0,0 l/m 1,2 km/h (1 Bft) NO 43 1 min 0,000 mm 0,5 UV-I 232 W/m 4,6 C 4,9 C 3,2 km/h (1 Bft) 100,00 %
06.11.2015 09:21 5,0 C 99 % 1026,2 hPa 0,0 l/m 1,0 km/h (0 Bft) O-NO 61 1 min 0,000 mm 0,5 UV-I 215 W/m 4,9 C 5,0 C 1,6 km/h (1 Bft) 100,00 %
06.11.2015 09:22 5,0 C 99 % 1026,2 hPa 0,0 l/m 1,0 km/h (0 Bft) O-NO 57 1 min 0,000 mm 0,5 UV-I 201 W/m 4,9 C 5,0 C 1,6 km/h (1 Bft) 100,00 %
06.11.2015 09:23 4,9 C 99 % 1026,2 hPa 0,0 l/m 0,6 km/h (0 Bft) O-NO 57 1 min 0,000 mm 0,6 UV-I 237 W/m 4,8 C 4,9 C 1,6 km/h (1 Bft) 100,00 %
06.11.2015 09:24 4,9 C 99 % 1026,2 hPa 0,0 l/m 0,0 km/h (0 Bft) O-NO 57 1 min 0,000 mm 0,6 UV-I 295 W/m 4,8 C 4,9 C 0,0 km/h (0 Bft) 100,00 %
06.11.2015 09:25 5,0 C 99 % 1026,2 hPa 0,0 l/m 0,3 km/h (0 Bft) O-NO 57 1 min 0,000 mm 0,6 UV-I 249 W/m 4,9 C 5,0 C 1,6 km/h (1 Bft) 100,00 %
06.11.2015 09:26 4,9 C 99 % 1026,2 hPa 0,0 l/m 0,5 km/h (0 Bft) NO 53 1 min 0,000 mm 0,6 UV-I 195 W/m 4,8 C 4,9 C 1,6 km/h (1 Bft) 100,00 %
06.11.2015 09:27 4,9 C 99 % 1026,3 hPa 0,0 l/m 0,3 km/h (0 Bft) NO 53 1 min 0,000 mm 0,6 UV-I 205 W/m 4,8 C 4,9 C 1,6 km/h (1 Bft) 100,00 %
06.11.2015 09:28 5,0 C 99 % 1026,3 hPa 0,0 l/m 0,2 km/h (0 Bft) NO 53 1 min 0,000 mm 0,6 UV-I 225 W/m 4,9 C 5,0 C 1,6 km/h (1 Bft) 95,65 %
06.11.2015 09:29 5,0 C 98 % 1026,3 hPa 0,0 l/m 0,5 km/h (0 Bft) NO 53 1 min 0,000 mm 0,6 UV-I 242 W/m 4,7 C 5,0 C 1,6 km/h (1 Bft) 100,00 %
06.11.2015 09:30 5,1 C 99 % 1026,2 hPa 0,0 l/m 0,6 km/h (0 Bft) NO 49 1 min 0,000 mm 0,6 UV-I 227 W/m 5,0 C 5,1 C 1,6 km/h (1 Bft) 100,00 %
06.11.2015 09:31 5,1 C 98 % 1026,2 hPa 0,0 l/m 0,8 km/h (0 Bft) NO 49 0 min 0,000 mm 0,5 UV-I 164 W/m 4,8 C 5,1 C 1,6 km/h (1 Bft) 100,00 %
06.11.2015 09:32 5,1 C 98 % 1026,3 hPa 0,0 l/m 0,9 km/h (0 Bft) NO 44 0 min 0,000 mm 0,5 UV-I 136 W/m 4,8 C 5,1 C 1,6 km/h (1 Bft) 100,00 %
06.11.2015 09:33 5,1 C 98 % 1026,3 hPa 0,0 l/m 1,2 km/h (1 Bft) NO 44 0 min 0,000 mm 0,5 UV-I 137 W/m 4,8 C 5,1 C 1,6 km/h (1 Bft) 100,00 %
06.11.2015 09:34 5,1 C 98 % 1026,3 hPa 0,0 l/m 0,0 km/h (0 Bft) NO 42 0 min 0,000 mm 0,5 UV-I 120 W/m 4,8 C 5,1 C 0,0 km/h (0 Bft) 100,00 %
06.11.2015 09:35 5,0 C 98 % 1026,2 hPa 0,0 l/m 1,0 km/h (0 Bft) N-NO 27 0 min 0,000 mm 0,6 UV-I 119 W/m 4,7 C 5,0 C 1,6 km/h (1 Bft) 94,74 %
06.11.2015 09:36 5,0 C 99 % 1026,2 hPa 0,0 l/m 0,8 km/h (0 Bft) N-NO 24 0 min 0,000 mm 0,6 UV-I 139 W/m 4,9 C 5,0 C 1,6 km/h (1 Bft) 100,00 %
06.11.2015 09:37 4,9 C 99 % 1026,3 hPa 0,0 l/m 1,3 km/h (1 Bft) N 355 0 min 0,000 mm 0,6 UV-I 145 W/m 4,8 C 4,9 C 1,6 km/h (1 Bft) 100,00 %
06.11.2015 09:38 4,9 C 99 % 1026,2 hPa 0,0 l/m 0,9 km/h (0 Bft) N 355 0 min 0,000 mm 0,6 UV-I 127 W/m 4,8 C 4,9 C 1,6 km/h (1 Bft) 100,00 %
06.11.2015 09:39 4,9 C 98 % 1026,2 hPa 0,0 l/m 0,7 km/h (0 Bft) N 355 0 min 0,000 mm 0,6 UV-I 118 W/m 4,6 C 4,9 C 1,6 km/h (1 Bft) 100,00 %
06.11.2015 09:40 4,9 C 98 % 1026,2 hPa 0,0 l/m 0,1 km/h (0 Bft) N 355 0 min 0,000 mm 0,6 UV-I 101 W/m 4,6 C 4,9 C 1,6 km/h (1 Bft) 100,00 %
06.11.2015 09:41 4,9 C 98 % 1026,2 hPa 0,0 l/m 0,0 km/h (0 Bft) N 355 0 min 0,000 mm 0,6 UV-I 108 W/m 4,6 C 4,9 C 0,0 km/h (0 Bft) 100,00 %
06.11.2015 09:42 4,9 C 98 % 1026,1 hPa 0,0 l/m 0,0 km/h (0 Bft) N 355 0 min 0,000 mm 0,6 UV-I 125 W/m 4,6 C 4,9 C 0,0 km/h (0 Bft) 100,00 %
06.11.2015 09:43 4,9 C 98 % 1026,1 hPa 0,0 l/m 0,0 km/h (0 Bft) N 355 0 min 0,000 mm 0,7 UV-I 187 W/m 4,6 C 4,9 C 0,0 km/h (0 Bft) 100,00 %
06.11.2015 09:44 5,0 C 98 % 1026,1 hPa 0,0 l/m 0,1 km/h (0 Bft) N 355 1 min 0,000 mm 0,7 UV-I 273 W/m 4,7 C 5,0 C 1,6 km/h (1 Bft) 100,00 %
06.11.2015 09:45 5,1 C 98 % 1026,1 hPa 0,0 l/m 0,2 km/h (0 Bft) N 355 1 min 0,000 mm 0,8 UV-I 313 W/m 4,8 C 5,1 C 1,6 km/h (1 Bft) 100,00 %
06.11.2015 09:46 5,1 C 98 % 1026,1 hPa 0,0 l/m 0,0 km/h (0 Bft) N 355 1 min 0,000 mm 0,8 UV-I 328 W/m 4,8 C 5,1 C 0,0 km/h (0 Bft) 100,00 %
06.11.2015 09:47 5,2 C 98 % 1026,1 hPa 0,0 l/m 0,3 km/h (0 Bft) N 355 1 min 0,000 mm 0,8 UV-I 274 W/m 4,9 C 5,2 C 1,6 km/h (1 Bft) 100,00 %
06.11.2015 09:48 5,3 C 98 % 1026,1 hPa 0,0 l/m 0,5 km/h (0 Bft) N 355 1 min 0,000 mm 0,7 UV-I 246 W/m 5,0 C 5,3 C 1,6 km/h (1 Bft) 95,83 %
06.11.2015 09:49 5,3 C 98 % 1026,1 hPa 0,0 l/m 1,0 km/h (0 Bft) N 355 1 min 0,000 mm 0,8 UV-I 291 W/m 5,0 C 5,3 C 3,2 km/h (1 Bft) 93,10 %
06.11.2015 09:50 5,4 C 98 % 1026,1 hPa 0,0 l/m 1,9 km/h (1 Bft) N 355 1 min 0,000 mm 0,8 UV-I 351 W/m 5,1 C 5,4 C 3,2 km/h (1 Bft) 100,00 %
06.11.2015 09:51 5,3 C 98 % 1026,1 hPa 0,0 l/m 0,7 km/h (0 Bft) N 355 1 min 0,000 mm 0,8 UV-I 345 W/m 5,0 C 5,3 C 1,6 km/h (1 Bft) 100,00 %
06.11.2015 09:52 5,5 C 98 % 1026,1 hPa 0,0 l/m 0,6 km/h (0 Bft) N 355 1 min 0,000 mm 0,8 UV-I 264 W/m 5,2 C 5,5 C 1,6 km/h (1 Bft) 96,30 %
06.11.2015 09:53 5,4 C 98 % 1026,1 hPa 0,0 l/m 0,6 km/h (0 Bft) N 355 1 min 0,000 mm 0,8 UV-I 296 W/m 5,1 C 5,4 C 1,6 km/h (1 Bft) 95,83 %
06.11.2015 09:54 5,4 C 98 % 1026,1 hPa 0,0 l/m 0,6 km/h (0 Bft) N 355 1 min 0,000 mm 0,8 UV-I 301 W/m 5,1 C 5,4 C 1,6 km/h (1 Bft) 100,00 %
06.11.2015 09:55 5,4 C 98 % 1026,1 hPa 0,0 l/m 0,1 km/h (0 Bft) N 355 1 min 0,000 mm 0,9 UV-I 339 W/m 5,1 C 5,4 C 1,6 km/h (1 Bft) 100,00 %
06.11.2015 09:56 5,4 C 98 % 1026,1 hPa 0,0 l/m 0,3 km/h (0 Bft) N 355 1 min 0,000 mm 0,9 UV-I 342 W/m 5,1 C 5,4 C 1,6 km/h (1 Bft) 100,00 %
06.11.2015 09:57 5,6 C 98 % 1026,1 hPa 0,0 l/m 0,0 km/h (0 Bft) N 355 1 min 0,000 mm 0,9 UV-I 338 W/m 5,3 C 5,6 C 0,0 km/h (0 Bft) 100,00 %
06.11.2015 09:58 5,7 C 98 % 1026,2 hPa 0,0 l/m 0,5 km/h (0 Bft) N 355 1 min 0,000 mm 0,9 UV-I 345 W/m 5,4 C 5,7 C 3,2 km/h (1 Bft) 100,00 %
06.11.2015 09:59 5,8 C 98 % 1026,1 hPa 0,0 l/m 1,2 km/h (1 Bft) N 355 1 min 0,000 mm 0,9 UV-I 366 W/m 5,5 C 5,8 C 3,2 km/h (1 Bft) 100,00 %
06.11.2015 10:00 5,8 C 98 % 1026,1 hPa 0,0 l/m 0,6 km/h (0 Bft) N-NW 344 1 min 0,102 mm 0,9 UV-I 370 W/m 5,5 C 5,8 C 1,6 km/h (1 Bft) 100,00 %
06.11.2015 10:01 5,8 C 98 % 1026,1 hPa 0,0 l/m 1,4 km/h (1 Bft) N 349 1 min 0,000 mm 0,9 UV-I 374 W/m 5,5 C 5,8 C 3,2 km/h (1 Bft) 100,00 %
06.11.2015 10:02 5,8 C 98 % 1026,0 hPa 0,0 l/m 2,1 km/h (1 Bft) N 350 1 min 0,000 mm 0,9 UV-I 355 W/m 5,5 C 5,8 C 3,2 km/h (1 Bft) 100,00 %
06.11.2015 10:03 5,8 C 98 % 1026,0 hPa 0,0 l/m 2,3 km/h (1 Bft) N 355 1 min 0,000 mm 0,9 UV-I 342 W/m 5,5 C 5,8 C 3,2 km/h (1 Bft) 100,00 %
06.11.2015 10:04 5,9 C 98 % 1026,0 hPa 0,0 l/m 1,9 km/h (1 Bft) N 355 1 min 0,000 mm 0,9 UV-I 353 W/m 5,6 C 5,9 C 3,2 km/h (1 Bft) 100,00 %
06.11.2015 10:05 5,9 C 98 % 1026,0 hPa 0,0 l/m 1,7 km/h (1 Bft) NW 319 1 min 0,000 mm 0,9 UV-I 356 W/m 5,6 C 5,9 C 3,2 km/h (1 Bft) 100,00 %
06.11.2015 10:06 5,9 C 98 % 1026,1 hPa 0,0 l/m 1,9 km/h (1 Bft) W-NW 296 1 min 0,000 mm 0,9 UV-I 348 W/m 5,6 C 5,9 C 3,2 km/h (1 Bft) 100,00 %
06.11.2015 10:07 6,1 C 98 % 1026,1 hPa 0,0 l/m 0,8 km/h (0 Bft) W-NW 296 1 min 0,000 mm 0,9 UV-I 351 W/m 5,8 C 6,1 C 3,2 km/h (1 Bft) 100,00 %
06.11.2015 10:08 6,1 C 98 % 1026,0 hPa 0,0 l/m 3,4 km/h (1 Bft) NW 317 1 min 0,000 mm 0,9 UV-I 353 W/m 5,8 C 6,1 C 4,8 km/h (1 Bft) 100,00 %
06.11.2015 10:09 6,0 C 98 % 1026,1 hPa 0,0 l/m 1,8 km/h (1 Bft) W-NW 300 1 min 0,000 mm 0,9 UV-I 313 W/m 5,7 C 6,0 C 3,2 km/h (1 Bft) 100,00 %
06.11.2015 10:10 5,9 C 98 % 1026,1 hPa 0,0 l/m 2,3 km/h (1 Bft) W-NW 286 1 min 0,000 mm 0,9 UV-I 297 W/m 5,6 C 5,9 C 3,2 km/h (1 Bft) 100,00 %
06.11.2015 10:11 5,9 C 98 % 1026,1 hPa 0,0 l/m 1,9 km/h (1 Bft) W-NW 286 1 min 0,000 mm 0,9 UV-I 258 W/m 5,6 C 5,9 C 3,2 km/h (1 Bft) 100,00 %
06.11.2015 10:12 5,9 C 98 % 1026,1 hPa 0,0 l/m 0,3 km/h (0 Bft) W-NW 286 1 min 0,000 mm 0,9 UV-I 298 W/m 5,6 C 5,9 C 1,6 km/h (1 Bft) 100,00 %
06.11.2015 10:13 5,9 C 98 % 1026,0 hPa 0,0 l/m 1,4 km/h (1 Bft) W-NW 286 1 min 0,000 mm 0,9 UV-I 307 W/m 5,6 C 5,9 C 3,2 km/h (1 Bft) 100,00 %
06.11.2015 10:14 6,1 C 98 % 1026,0 hPa 0,0 l/m 0,8 km/h (0 Bft) W-NW 286 1 min 0,000 mm 0,9 UV-I 308 W/m 5,8 C 6,1 C 1,6 km/h (1 Bft) 100,00 %
06.11.2015 10:15 6,1 C 98 % 1026,1 hPa 0,0 l/m 1,4 km/h (1 Bft) W-NW 286 1 min 0,000 mm 0,9 UV-I 294 W/m 5,8 C 6,1 C 1,6 km/h (1 Bft) 100,00 %
06.11.2015 10:16 6,1 C 98 % 1026,0 hPa 0,0 l/m 0,7 km/h (0 Bft) W-NW 286 1 min 0,000 mm 0,9 UV-I 260 W/m 5,8 C 6,1 C 1,6 km/h (1 Bft) 100,00 %
06.11.2015 10:17 6,1 C 98 % 1026,0 hPa 0,0 l/m 0,1 km/h (0 Bft) W-NW 292 1 min 0,000 mm 0,9 UV-I 262 W/m 5,8 C 6,1 C 1,6 km/h (1 Bft) 100,00 %
06.11.2015 10:18 6,1 C 98 % 1026,0 hPa 0,0 l/m 1,5 km/h (1 Bft) N 355 1 min 0,000 mm 1,0 UV-I 284 W/m 5,8 C 6,1 C 3,2 km/h (1 Bft) 100,00 %
06.11.2015 10:19 6,3 C 97 % 1026,0 hPa 0,0 l/m 1,5 km/h (1 Bft) N 355 1 min 0,000 mm 1,0 UV-I 292 W/m 5,9 C 6,3 C 3,2 km/h (1 Bft) 100,00 %
06.11.2015 10:20 6,3 C 98 % 1026,1 hPa 0,0 l/m 0,9 km/h (0 Bft) N-NW 340 1 min 0,000 mm 1,0 UV-I 294 W/m 6,0 C 6,3 C 1,6 km/h (1 Bft) 100,00 %
06.11.2015 10:21 6,4 C 98 % 1026,1 hPa 0,0 l/m 2,2 km/h (1 Bft) N-NW 336 1 min 0,000 mm 1,0 UV-I 294 W/m 6,1 C 6,4 C 3,2 km/h (1 Bft) 95,65 %
06.11.2015 10:22 6,4 C 98 % 1026,1 hPa 0,0 l/m 1,7 km/h (1 Bft) N-NW 336 1 min 0,000 mm 1,0 UV-I 266 W/m 6,1 C 6,4 C 3,2 km/h (1 Bft) 100,00 %
06.11.2015 10:23 6,4 C 98 % 1026,0 hPa 0,0 l/m 1,4 km/h (1 Bft) N-NW 336 1 min 0,000 mm 1,0 UV-I 257 W/m 6,1 C 6,4 C 3,2 km/h (1 Bft) 100,00 %
06.11.2015 10:24 6,4 C 97 % 1026,0 hPa 0,0 l/m 0,9 km/h (0 Bft) N-NW 336 1 min 0,000 mm 1,0 UV-I 258 W/m 6,0 C 6,4 C 1,6 km/h (1 Bft) 95,83 %
06.11.2015 10:25 6,4 C 97 % 1026,0 hPa 0,0 l/m 0,0 km/h (0 Bft) N-NW 336 1 min 0,000 mm 1,0 UV-I 252 W/m 6,0 C 6,4 C 0,0 km/h (0 Bft) 100,00 %
06.11.2015 10:26 6,4 C 97 % 1026,0 hPa 0,0 l/m 1,2 km/h (1 Bft) N 350 1 min 0,000 mm 1,0 UV-I 245 W/m 6,0 C 6,4 C 3,2 km/h (1 Bft) 100,00 %
06.11.2015 10:27 6,4 C 97 % 1026,0 hPa 0,0 l/m 1,4 km/h (1 Bft) N 350 1 min 0,000 mm 1,0 UV-I 249 W/m 6,0 C 6,4 C 3,2 km/h (1 Bft) 100,00 %
06.11.2015 10:28 6,5 C 97 % 1026,0 hPa 0,0 l/m 1,0 km/h (0 Bft) N 349 1 min 0,000 mm 1,0 UV-I 251 W/m 6,1 C 6,5 C 1,6 km/h (1 Bft) 100,00 %
06.11.2015 10:29 6,6 C 97 % 1026,0 hPa 0,0 l/m 0,7 km/h (0 Bft) N 349 1 min 0,000 mm 1,0 UV-I 252 W/m 6,2 C 6,6 C 1,6 km/h (1 Bft) 100,00 %
06.11.2015 10:30 6,6 C 97 % 1026,0 hPa 0,0 l/m 0,6 km/h (0 Bft) N 349 1 min 0,000 mm 1,0 UV-I 252 W/m 6,2 C 6,6 C 1,6 km/h (1 Bft) 100,00 %
06.11.2015 10:31 6,7 C 97 % 1026,0 hPa 0,0 l/m 1,2 km/h (1 Bft) N 349 1 min 0,000 mm 1,0 UV-I 242 W/m 6,3 C 6,7 C 1,6 km/h (1 Bft) 100,00 %
06.11.2015 10:32 6,8 C 97 % 1025,9 hPa 0,0 l/m 0,9 km/h (0 Bft) N 349 1 min 0,000 mm 1,0 UV-I 256 W/m 6,4 C 6,8 C 3,2 km/h (1 Bft) 100,00 %
06.11.2015 10:33 6,8 C 97 % 1025,9 hPa 0,0 l/m 1,0 km/h (0 Bft) N 349 1 min 0,000 mm 1,0 UV-I 270 W/m 6,4 C 6,8 C 1,6 km/h (1 Bft) 100,00 %
06.11.2015 10:34 6,8 C 96 % 1025,9 hPa 0,0 l/m 0,7 km/h (0 Bft) N 349 1 min 0,000 mm 1,1 UV-I 270 W/m 6,2 C 6,8 C 1,6 km/h (1 Bft) 100,00 %
06.11.2015 10:35 6,7 C 96 % 1025,9 hPa 0,0 l/m 0,7 km/h (0 Bft) N 349 1 min 0,000 mm 1,1 UV-I 256 W/m 6,1 C 6,7 C 1,6 km/h (1 Bft) 100,00 %
06.11.2015 10:36 6,7 C 96 % 1025,9 hPa 0,0 l/m 0,7 km/h (0 Bft) N 349 1 min 0,000 mm 1,1 UV-I 258 W/m 6,1 C 6,7 C 1,6 km/h (1 Bft) 96,15 %
06.11.2015 10:37 6,7 C 96 % 1025,9 hPa 0,0 l/m 0,3 km/h (0 Bft) N 349 1 min 0,000 mm 1,1 UV-I 284 W/m 6,1 C 6,7 C 1,6 km/h (1 Bft) 100,00 %
06.11.2015 10:38 6,8 C 96 % 1025,9 hPa 0,0 l/m 0,0 km/h (0 Bft) N 349 1 min 0,000 mm 1,1 UV-I 310 W/m 6,2 C 6,8 C 0,0 km/h (0 Bft) 100,00 %
06.11.2015 10:39 6,8 C 96 % 1025,9 hPa 0,0 l/m 1,4 km/h (1 Bft) N 11 1 min 0,000 mm 1,2 UV-I 342 W/m 6,2 C 6,8 C 3,2 km/h (1 Bft) 95,83 %
06.11.2015 10:40 6,9 C 96 % 1025,9 hPa 0,0 l/m 1,6 km/h (1 Bft) N-NO 27 1 min 0,000 mm 1,2 UV-I 371 W/m 6,3 C 6,9 C 3,2 km/h (1 Bft) 100,00 %
06.11.2015 10:41 7,1 C 97 % 1025,9 hPa 0,0 l/m 1,1 km/h (1 Bft) N-NO 16 1 min 0,000 mm 1,2 UV-I 372 W/m 6,7 C 7,1 C 3,2 km/h (1 Bft) 100,00 %
06.11.2015 10:42 7,1 C 97 % 1026,0 hPa 0,0 l/m 2,3 km/h (1 Bft) N-NO 16 1 min 0,000 mm 1,2 UV-I 375 W/m 6,7 C 7,1 C 3,2 km/h (1 Bft) 100,00 %
06.11.2015 10:43 7,1 C 96 % 1026,0 hPa 0,0 l/m 1,3 km/h (1 Bft) N-NO 16 1 min 0,000 mm 1,2 UV-I 376 W/m 6,5 C 7,1 C 3,2 km/h (1 Bft) 100,00 %
06.11.2015 10:44 7,2 C 97 % 1026,0 hPa 0,0 l/m 0,3 km/h (0 Bft) N-NO 16 1 min 0,000 mm 1,2 UV-I 360 W/m 6,8 C 7,2 C 1,6 km/h (1 Bft) 100,00 %
06.11.2015 10:45 7,2 C 96 % 1025,9 hPa 0,0 l/m 1,8 km/h (1 Bft) N-NO 20 1 min 0,000 mm 1,2 UV-I 348 W/m 6,6 C 7,2 C 3,2 km/h (1 Bft) 100,00 %
06.11.2015 10:46 7,2 C 96 % 1025,9 hPa 0,0 l/m 1,7 km/h (1 Bft) N-NO 20 1 min 0,000 mm 1,2 UV-I 338 W/m 6,6 C 7,2 C 3,2 km/h (1 Bft) 100,00 %
06.11.2015 10:47 7,2 C 95 % 1025,9 hPa 0,0 l/m 1,0 km/h (0 Bft) N-NO 29 1 min 0,000 mm 1,2 UV-I 340 W/m 6,5 C 7,2 C 3,2 km/h (1 Bft) 100,00 %
06.11.2015 10:48 7,3 C 96 % 1025,9 hPa 0,0 l/m 0,9 km/h (0 Bft) N-NO 29 1 min 0,000 mm 1,2 UV-I 353 W/m 6,7 C 7,3 C 1,6 km/h (1 Bft) 100,00 %
06.11.2015 10:49 7,3 C 96 % 1025,9 hPa 0,0 l/m 0,9 km/h (0 Bft) N-NO 29 1 min 0,000 mm 1,3 UV-I 355 W/m 6,7 C 7,3 C 1,6 km/h (1 Bft) 100,00 %
06.11.2015 10:50 7,3 C 96 % 1025,9 hPa 0,0 l/m 0,9 km/h (0 Bft) N-NO 29 1 min 0,000 mm 1,3 UV-I 366 W/m 6,7 C 7,3 C 1,6 km/h (1 Bft) 100,00 %
06.11.2015 10:51 7,4 C 96 % 1026,0 hPa 0,0 l/m 2,4 km/h (1 Bft) N-NW 344 1 min 0,000 mm 1,3 UV-I 379 W/m 6,8 C 7,4 C 4,8 km/h (1 Bft) 100,00 %
06.11.2015 10:52 7,4 C 96 % 1026,0 hPa 0,0 l/m 2,2 km/h (1 Bft) N 360 1 min 0,000 mm 1,3 UV-I 354 W/m 6,8 C 7,4 C 3,2 km/h (1 Bft) 100,00 %
06.11.2015 10:53 7,4 C 96 % 1026,1 hPa 0,0 l/m 1,7 km/h (1 Bft) N 360 1 min 0,000 mm 1,2 UV-I 334 W/m 6,8 C 7,4 C 3,2 km/h (1 Bft) 100,00 %
06.11.2015 10:54 7,5 C 96 % 1026,1 hPa 0,0 l/m 2,9 km/h (1 Bft) W-NW 294 1 min 0,000 mm 1,2 UV-I 330 W/m 6,9 C 7,5 C 4,8 km/h (1 Bft) 100,00 %
06.11.2015 10:55 7,6 C 95 % 1026,1 hPa 0,0 l/m 2,3 km/h (1 Bft) NW 316 1 min 0,000 mm 1,3 UV-I 338 W/m 6,9 C 7,6 C 3,2 km/h (1 Bft) 95,65 %
06.11.2015 10:56 7,6 C 95 % 1026,1 hPa 0,0 l/m 2,8 km/h (1 Bft) N-NW 336 1 min 0,000 mm 1,3 UV-I 348 W/m 6,9 C 7,6 C 4,8 km/h (1 Bft) 100,00 %
06.11.2015 10:57 7,6 C 95 % 1026,0 hPa 0,0 l/m 1,4 km/h (1 Bft) N-NO 13 1 min 0,000 mm 1,3 UV-I 359 W/m 6,9 C 7,6 C 3,2 km/h (1 Bft) 100,00 %
06.11.2015 10:58 7,6 C 96 % 1026,0 hPa 0,0 l/m 2,6 km/h (1 Bft) W-NW 288 1 min 0,000 mm 1,3 UV-I 347 W/m 7,0 C 7,6 C 4,8 km/h (1 Bft) 100,00 %
06.11.2015 10:59 7,7 C 95 % 1026,0 hPa 0,0 l/m 0,9 km/h (0 Bft) W-NW 291 1 min 0,000 mm 1,2 UV-I 302 W/m 7,0 C 7,7 C 1,6 km/h (1 Bft) 100,00 %
06.11.2015 11:00 7,7 C 95 % 1026,0 hPa 0,0 l/m 0,7 km/h (0 Bft) NW 319 1 min 0,127 mm 1,2 UV-I 289 W/m 7,0 C 7,7 C 1,6 km/h (1 Bft) 100,00 %
06.11.2015 11:01 7,8 C 95 % 1025,9 hPa 0,0 l/m 1,7 km/h (1 Bft) N 350 1 min 0,000 mm 1,2 UV-I 258 W/m 7,0 C 7,8 C 3,2 km/h (1 Bft) 100,00 %
06.11.2015 11:02 7,8 C 95 % 1026,0 hPa 0,0 l/m 2,0 km/h (1 Bft) N 355 0 min 0,000 mm 1,2 UV-I 223 W/m 7,0 C 7,8 C 3,2 km/h (1 Bft) 100,00 %
06.11.2015 11:03 7,7 C 94 % 1026,0 hPa 0,0 l/m 2,1 km/h (1 Bft) N 355 1 min 0,000 mm 1,3 UV-I 263 W/m 6,8 C 7,7 C 3,2 km/h (1 Bft) 100,00 %
06.11.2015 11:04 7,7 C 94 % 1026,0 hPa 0,0 l/m 1,1 km/h (1 Bft) N 351 1 min 0,000 mm 1,3 UV-I 311 W/m 6,8 C 7,7 C 1,6 km/h (1 Bft) 100,00 %
06.11.2015 11:05 7,8 C 94 % 1026,0 hPa 0,0 l/m 2,2 km/h (1 Bft) N 5 1 min 0,000 mm 1,4 UV-I 373 W/m 6,9 C 7,8 C 4,8 km/h (1 Bft) 100,00 %
06.11.2015 11:06 7,8 C 95 % 1026,0 hPa 0,0 l/m 1,1 km/h (1 Bft) N-NO 12 1 min 0,000 mm 1,4 UV-I 378 W/m 7,0 C 7,8 C 3,2 km/h (1 Bft) 100,00 %
06.11.2015 11:07 7,9 C 96 % 1026,1 hPa 0,0 l/m 2,0 km/h (1 Bft) NW 320 1 min 0,000 mm 1,4 UV-I 391 W/m 7,3 C 7,9 C 3,2 km/h (1 Bft) 96,15 %
06.11.2015 11:08 8,1 C 95 % 1026,1 hPa 0,0 l/m 3,0 km/h (1 Bft) W 272 1 min 0,000 mm 1,4 UV-I 386 W/m 7,3 C 8,1 C 4,8 km/h (1 Bft) 100,00 %
06.11.2015 11:09 8,1 C 95 % 1026,1 hPa 0,0 l/m 2,6 km/h (1 Bft) W-NW 290 1 min 0,000 mm 1,4 UV-I 391 W/m 7,3 C 8,1 C 4,8 km/h (1 Bft) 100,00 %
06.11.2015 11:10 8,2 C 95 % 1026,1 hPa 0,0 l/m 1,3 km/h (1 Bft) N-NW 338 1 min 0,000 mm 1,4 UV-I 388 W/m 7,4 C 8,2 C 3,2 km/h (1 Bft) 100,00 %
06.11.2015 11:11 8,2 C 95 % 1026,1 hPa 0,0 l/m 1,7 km/h (1 Bft) W 276 1 min 0,000 mm 1,4 UV-I 388 W/m 7,4 C 8,2 C 3,2 km/h (1 Bft) 100,00 %
06.11.2015 11:12 8,3 C 95 % 1026,1 hPa 0,0 l/m 1,6 km/h (1 Bft) N 5 1 min 0,000 mm 1,4 UV-I 389 W/m 7,5 C 8,3 C 3,2 km/h (1 Bft) 100,00 %
06.11.2015 11:13 8,3 C 94 % 1026,1 hPa 0,0 l/m 1,4 km/h (1 Bft) W-NW 302 1 min 0,000 mm 1,4 UV-I 383 W/m 7,4 C 8,3 C 3,2 km/h (1 Bft) 95,83 %
06.11.2015 11:14 8,5 C 95 % 1026,0 hPa 0,0 l/m 0,8 km/h (0 Bft) NW 310 1 min 0,000 mm 1,3 UV-I 370 W/m 7,7 C 8,5 C 1,6 km/h (1 Bft) 100,00 %
06.11.2015 11:15 8,6 C 95 % 1026,0 hPa 0,0 l/m 1,4 km/h (1 Bft) NW 317 1 min 0,000 mm 1,3 UV-I 338 W/m 7,8 C 8,6 C 1,6 km/h (1 Bft) 100,00 %
06.11.2015 11:16 8,7 C 94 % 1026,0 hPa 0,0 l/m 3,0 km/h (1 Bft) N-NO 19 1 min 0,000 mm 1,3 UV-I 324 W/m 7,8 C 8,7 C 4,8 km/h (1 Bft) 100,00 %
06.11.2015 11:17 8,7 C 94 % 1026,0 hPa 0,0 l/m 3,0 km/h (1 Bft) N 355 1 min 0,000 mm 1,3 UV-I 353 W/m 7,8 C 8,7 C 4,8 km/h (1 Bft) 100,00 %
06.11.2015 11:18 8,7 C 95 % 1026,0 hPa 0,0 l/m 3,0 km/h (1 Bft) N-NO 25 1 min 0,000 mm 1,4 UV-I 397 W/m 7,9 C 8,7 C 4,8 km/h (1 Bft) 100,00 %
06.11.2015 11:19 8,7 C 94 % 1026,0 hPa 0,0 l/m 3,9 km/h (1 Bft) N 350 1 min 0,000 mm 1,4 UV-I 426 W/m 7,8 C 8,7 C 6,4 km/h (2 Bft) 100,00 %
06.11.2015 11:20 8,7 C 94 % 1026,0 hPa 0,0 l/m 3,1 km/h (1 Bft) NW 313 1 min 0,000 mm 1,4 UV-I 425 W/m 7,8 C 8,7 C 6,4 km/h (2 Bft) 100,00 %
06.11.2015 11:21 8,7 C 94 % 1026,0 hPa 0,0 l/m 3,4 km/h (1 Bft) N 5 1 min 0,000 mm 1,4 UV-I 353 W/m 7,8 C 8,7 C 6,4 km/h (2 Bft) 100,00 %
06.11.2015 11:22 8,7 C 94 % 1026,1 hPa 0,0 l/m 3,6 km/h (1 Bft) N-NO 15 1 min 0,000 mm 1,3 UV-I 375 W/m 7,8 C 8,7 C 4,8 km/h (1 Bft) 100,00 %
06.11.2015 11:23 8,7 C 94 % 1026,1 hPa 0,0 l/m 1,4 km/h (1 Bft) N-NO 14 1 min 0,000 mm 1,4 UV-I 423 W/m 7,8 C 8,7 C 3,2 km/h (1 Bft) 100,00 %
06.11.2015 11:24 8,7 C 95 % 1026,0 hPa 0,0 l/m 2,9 km/h (1 Bft) N 355 1 min 0,000 mm 1,4 UV-I 415 W/m 7,9 C 8,7 C 4,8 km/h (1 Bft) 100,00 %
06.11.2015 11:25 8,7 C 93 % 1026,0 hPa 0,0 l/m 2,0 km/h (1 Bft) N 5 1 min 0,000 mm 1,4 UV-I 395 W/m 7,6 C 8,7 C 3,2 km/h (1 Bft) 100,00 %
06.11.2015 11:26 8,6 C 93 % 1026,0 hPa 0,0 l/m 3,0 km/h (1 Bft) N-NO 24 1 min 0,000 mm 1,4 UV-I 379 W/m 7,5 C 8,6 C 4,8 km/h (1 Bft) 100,00 %
06.11.2015 11:27 8,6 C 94 % 1026,0 hPa 0,0 l/m 3,0 km/h (1 Bft) NO 55 1 min 0,000 mm 1,4 UV-I 390 W/m 7,7 C 8,6 C 4,8 km/h (1 Bft) 100,00 %
06.11.2015 11:28 8,7 C 94 % 1026,0 hPa 0,0 l/m 2,9 km/h (1 Bft) N 9 1 min 0,000 mm 1,4 UV-I 404 W/m 7,8 C 8,7 C 4,8 km/h (1 Bft) 100,00 %
06.11.2015 11:29 8,7 C 94 % 1026,0 hPa 0,0 l/m 1,8 km/h (1 Bft) N-NW 340 1 min 0,000 mm 1,4 UV-I 411 W/m 7,8 C 8,7 C 3,2 km/h (1 Bft) 100,00 %
06.11.2015 11:30 8,7 C 93 % 1025,9 hPa 0,0 l/m 3,6 km/h (1 Bft) N 5 1 min 0,000 mm 1,4 UV-I 414 W/m 7,6 C 8,7 C 6,4 km/h (2 Bft) 100,00 %
06.11.2015 11:31 8,7 C 94 % 1026,0 hPa 0,0 l/m 2,1 km/h (1 Bft) N 355 1 min 0,000 mm 1,4 UV-I 409 W/m 7,8 C 8,7 C 3,2 km/h (1 Bft) 100,00 %
06.11.2015 11:32 8,7 C 95 % 1025,9 hPa 0,0 l/m 2,0 km/h (1 Bft) N 10 1 min 0,000 mm 1,3 UV-I 415 W/m 7,9 C 8,7 C 4,8 km/h (1 Bft) 100,00 %
06.11.2015 11:33 8,8 C 95 % 1025,9 hPa 0,0 l/m 3,7 km/h (1 Bft) N-NO 19 1 min 0,000 mm 1,3 UV-I 379 W/m 8,0 C 8,8 C 6,4 km/h (2 Bft) 100,00 %
06.11.2015 11:34 8,7 C 95 % 1025,9 hPa 0,0 l/m 3,4 km/h (1 Bft) N-NO 30 1 min 0,000 mm 1,3 UV-I 355 W/m 7,9 C 8,7 C 6,4 km/h (2 Bft) 100,00 %
06.11.2015 11:35 8,7 C 95 % 1025,9 hPa 0,0 l/m 3,9 km/h (1 Bft) N 360 1 min 0,000 mm 1,2 UV-I 278 W/m 7,9 C 8,7 C 4,8 km/h (1 Bft) 100,00 %
06.11.2015 11:36 8,6 C 94 % 1025,9 hPa 0,0 l/m 3,4 km/h (1 Bft) N 360 0 min 0,000 mm 1,3 UV-I 241 W/m 7,7 C 8,6 C 6,4 km/h (2 Bft) 100,00 %
06.11.2015 11:37 8,5 C 95 % 1025,9 hPa 0,0 l/m 2,1 km/h (1 Bft) N 11 1 min 0,000 mm 1,3 UV-I 383 W/m 7,7 C 8,5 C 3,2 km/h (1 Bft) 100,00 %
06.11.2015 11:38 8,4 C 94 % 1025,9 hPa 0,0 l/m 2,7 km/h (1 Bft) N-NO 15 1 min 0,000 mm 1,4 UV-I 395 W/m 7,5 C 8,4 C 3,2 km/h (1 Bft) 93,33 %
06.11.2015 11:39 8,3 C 94 % 1025,8 hPa 0,0 l/m 2,4 km/h (1 Bft) N-NO 23 1 min 0,000 mm 1,4 UV-I 418 W/m 7,4 C 8,3 C 3,2 km/h (1 Bft) 100,00 %
06.11.2015 11:40 8,2 C 93 % 1025,8 hPa 0,0 l/m 2,1 km/h (1 Bft) N-NO 14 1 min 0,000 mm 1,4 UV-I 408 W/m 7,1 C 8,2 C 3,2 km/h (1 Bft) 100,00 %
06.11.2015 11:41 8,3 C 95 % 1025,9 hPa 0,0 l/m 2,1 km/h (1 Bft) N-NO 16 1 min 0,000 mm 1,4 UV-I 414 W/m 7,5 C 8,3 C 3,2 km/h (1 Bft) 100,00 %
06.11.2015 11:42 8,3 C 95 % 1025,9 hPa 0,0 l/m 2,6 km/h (1 Bft) N-NO 16 1 min 0,000 mm 1,4 UV-I 411 W/m 7,5 C 8,3 C 3,2 km/h (1 Bft) 100,00 %
06.11.2015 11:43 8,3 C 95 % 1025,8 hPa 0,0 l/m 1,8 km/h (1 Bft) NW 313 1 min 0,000 mm 1,4 UV-I 399 W/m 7,5 C 8,3 C 3,2 km/h (1 Bft) 100,00 %
06.11.2015 11:44 8,4 C 94 % 1025,8 hPa 0,0 l/m 2,5 km/h (1 Bft) W-NW 301 1 min 0,000 mm 1,4 UV-I 390 W/m 7,5 C 8,4 C 3,2 km/h (1 Bft) 95,83 %
06.11.2015 11:45 8,4 C 94 % 1025,8 hPa 0,0 l/m 2,1 km/h (1 Bft) W-NW 297 1 min 0,000 mm 1,4 UV-I 390 W/m 7,5 C 8,4 C 3,2 km/h (1 Bft) 100,00 %
06.11.2015 11:46 8,4 C 94 % 1025,8 hPa 0,0 l/m 2,3 km/h (1 Bft) W-NW 292 1 min 0,000 mm 1,4 UV-I 391 W/m 7,5 C 8,4 C 3,2 km/h (1 Bft) 100,00 %
06.11.2015 11:47 8,4 C 94 % 1025,8 hPa 0,0 l/m 2,3 km/h (1 Bft) NW 321 1 min 0,000 mm 1,4 UV-I 389 W/m 7,5 C 8,4 C 3,2 km/h (1 Bft) 100,00 %
06.11.2015 11:48 8,4 C 94 % 1025,8 hPa 0,0 l/m 0,9 km/h (0 Bft) NW 321 1 min 0,000 mm 1,4 UV-I 387 W/m 7,5 C 8,4 C 1,6 km/h (1 Bft) 100,00 %
06.11.2015 11:49 8,4 C 94 % 1025,7 hPa 0,0 l/m 0,9 km/h (0 Bft) NW 325 1 min 0,000 mm 1,4 UV-I 387 W/m 7,5 C 8,4 C 1,6 km/h (1 Bft) 100,00 %
06.11.2015 11:50 8,5 C 94 % 1025,7 hPa 0,0 l/m 1,0 km/h (0 Bft) NW 325 1 min 0,000 mm 1,4 UV-I 388 W/m 7,6 C 8,5 C 1,6 km/h (1 Bft) 100,00 %
06.11.2015 11:51 8,6 C 95 % 1025,7 hPa 0,0 l/m 1,2 km/h (1 Bft) N-NW 327 1 min 0,000 mm 1,4 UV-I 392 W/m 7,8 C 8,6 C 1,6 km/h (1 Bft) 100,00 %
06.11.2015 11:52 8,7 C 94 % 1025,6 hPa 0,0 l/m 2,3 km/h (1 Bft) N-NO 15 1 min 0,000 mm 1,4 UV-I 394 W/m 7,8 C 8,7 C 3,2 km/h (1 Bft) 100,00 %
06.11.2015 11:53 8,7 C 94 % 1025,7 hPa 0,0 l/m 1,7 km/h (1 Bft) N-NW 327 1 min 0,000 mm 1,4 UV-I 396 W/m 7,8 C 8,7 C 3,2 km/h (1 Bft) 100,00 %
06.11.2015 11:54 8,7 C 94 % 1025,7 hPa 0,0 l/m 0,9 km/h (0 Bft) N-NW 327 1 min 0,000 mm 1,4 UV-I 396 W/m 7,8 C 8,7 C 1,6 km/h (1 Bft) 100,00 %
06.11.2015 11:55 8,7 C 94 % 1025,6 hPa 0,0 l/m 0,5 km/h (0 Bft) N-NW 327 1 min 0,000 mm 1,4 UV-I 394 W/m 7,8 C 8,7 C 1,6 km/h (1 Bft) 100,00 %
06.11.2015 11:56 8,7 C 94 % 1025,6 hPa 0,0 l/m 0,1 km/h (0 Bft) N-NW 327 1 min 0,000 mm 1,4 UV-I 394 W/m 7,8 C 8,7 C 1,6 km/h (1 Bft) 95,65 %
06.11.2015 11:57 8,8 C 94 % 1025,6 hPa 0,0 l/m 1,3 km/h (1 Bft) NW 306 1 min 0,000 mm 1,4 UV-I 393 W/m 7,9 C 8,8 C 3,2 km/h (1 Bft) 100,00 %
06.11.2015 11:58 8,9 C 94 % 1025,6 hPa 0,0 l/m 1,1 km/h (1 Bft) NW 309 1 min 0,000 mm 1,4 UV-I 395 W/m 8,0 C 8,9 C 1,6 km/h (1 Bft) 100,00 %
06.11.2015 11:59 9,0 C 94 % 1025,6 hPa 0,0 l/m 0,3 km/h (0 Bft) NW 309 1 min 0,000 mm 1,4 UV-I 397 W/m 8,1 C 9,0 C 1,6 km/h (1 Bft) 100,00 %
06.11.2015 12:00 9,1 C 93 % 1025,6 hPa 0,0 l/m 1,9 km/h (1 Bft) N 5 1 min 0,000 mm 1,4 UV-I 388 W/m 8,0 C 9,1 C 3,2 km/h (1 Bft) 100,00 %
06.11.2015 12:02 9,0 C 92 % 1025,6 hPa 0,0 l/m 1,4 km/h (1 Bft) N 5 2 min 0,178 mm 1,4 UV-I 394 W/m 7,8 C 9,0 C 3,2 km/h (1 Bft) 100,00 %
06.11.2015 12:03 9,1 C 93 % 1025,6 hPa 0,0 l/m 0,5 km/h (0 Bft) N 5 1 min 0,000 mm 1,4 UV-I 396 W/m 8,0 C 9,1 C 1,6 km/h (1 Bft) 100,00 %
06.11.2015 12:04 9,1 C 94 % 1025,6 hPa 0,0 l/m 1,4 km/h (1 Bft) N-NW 344 1 min 0,000 mm 1,4 UV-I 396 W/m 8,2 C 9,1 C 3,2 km/h (1 Bft) 100,00 %
06.11.2015 12:05 9,2 C 93 % 1025,6 hPa 0,0 l/m 0,8 km/h (0 Bft) N-NW 344 1 min 0,000 mm 1,5 UV-I 395 W/m 8,1 C 9,2 C 3,2 km/h (1 Bft) 100,00 %
06.11.2015 12:06 9,2 C 93 % 1025,6 hPa 0,0 l/m 1,1 km/h (1 Bft) N 9 1 min 0,000 mm 1,5 UV-I 396 W/m 8,1 C 9,2 C 3,2 km/h (1 Bft) 100,00 %
06.11.2015 12:07 9,3 C 93 % 1025,6 hPa 0,0 l/m 2,2 km/h (1 Bft) N 11 1 min 0,000 mm 1,5 UV-I 394 W/m 8,2 C 9,3 C 3,2 km/h (1 Bft) 100,00 %
06.11.2015 12:08 9,3 C 93 % 1025,5 hPa 0,0 l/m 1,7 km/h (1 Bft) N-NO 12 1 min 0,000 mm 1,4 UV-I 394 W/m 8,2 C 9,3 C 3,2 km/h (1 Bft) 100,00 %
06.11.2015 12:09 9,4 C 93 % 1025,5 hPa 0,0 l/m 1,4 km/h (1 Bft) N-NO 22 1 min 0,000 mm 1,4 UV-I 395 W/m 8,3 C 9,4 C 3,2 km/h (1 Bft) 100,00 %
06.11.2015 12:10 9,4 C 92 % 1025,5 hPa 0,0 l/m 0,4 km/h (0 Bft) N-NO 28 1 min 0,000 mm 1,4 UV-I 396 W/m 8,2 C 9,4 C 1,6 km/h (1 Bft) 100,00 %
06.11.2015 12:11 9,6 C 93 % 1025,5 hPa 0,0 l/m 2,4 km/h (1 Bft) N 11 1 min 0,000 mm 1,5 UV-I 397 W/m 8,5 C 9,6 C 4,8 km/h (1 Bft) 100,00 %
06.11.2015 12:12 9,6 C 91 % 1025,5 hPa 0,0 l/m 0,8 km/h (0 Bft) N 11 1 min 0,000 mm 1,4 UV-I 396 W/m 8,2 C 9,6 C 1,6 km/h (1 Bft) 100,00 %
06.11.2015 12:13 9,6 C 92 % 1025,5 hPa 0,0 l/m 1,1 km/h (1 Bft) N-NO 13 1 min 0,000 mm 1,5 UV-I 397 W/m 8,4 C 9,6 C 3,2 km/h (1 Bft) 100,00 %
06.11.2015 12:14 9,6 C 92 % 1025,5 hPa 0,0 l/m 2,1 km/h (1 Bft) N-NO 17 1 min 0,000 mm 1,4 UV-I 399 W/m 8,4 C 9,6 C 3,2 km/h (1 Bft) 100,00 %
06.11.2015 12:15 9,6 C 92 % 1025,5 hPa 0,0 l/m 1,5 km/h (1 Bft) N-NO 16 1 min 0,000 mm 1,4 UV-I 397 W/m 8,4 C 9,6 C 3,2 km/h (1 Bft) 100,00 %
06.11.2015 12:16 9,6 C 92 % 1025,5 hPa 0,0 l/m 1,3 km/h (1 Bft) N-NO 30 1 min 0,000 mm 1,4 UV-I 392 W/m 8,4 C 9,6 C 3,2 km/h (1 Bft) 100,00 %
06.11.2015 12:17 9,7 C 92 % 1025,5 hPa 0,0 l/m 1,9 km/h (1 Bft) N-NO 30 1 min 0,000 mm 1,4 UV-I 388 W/m 8,5 C 9,7 C 3,2 km/h (1 Bft) 100,00 %
06.11.2015 12:18 9,6 C 91 % 1025,5 hPa 0,0 l/m 2,5 km/h (1 Bft) N-NO 21 1 min 0,000 mm 1,4 UV-I 388 W/m 8,2 C 9,6 C 4,8 km/h (1 Bft) 100,00 %
06.11.2015 12:19 9,6 C 92 % 1025,5 hPa 0,0 l/m 2,2 km/h (1 Bft) NO 51 1 min 0,000 mm 1,4 UV-I 390 W/m 8,4 C 9,6 C 3,2 km/h (1 Bft) 100,00 %
06.11.2015 12:20 9,7 C 92 % 1025,5 hPa 0,0 l/m 0,9 km/h (0 Bft) NO 51 1 min 0,000 mm 1,4 UV-I 390 W/m 8,5 C 9,7 C 1,6 km/h (1 Bft) 100,00 %
06.11.2015 12:21 9,8 C 93 % 1025,5 hPa 0,0 l/m 0,9 km/h (0 Bft) NO 49 1 min 0,000 mm 1,4 UV-I 392 W/m 8,7 C 9,8 C 1,6 km/h (1 Bft) 100,00 %
06.11.2015 12:22 9,8 C 92 % 1025,5 hPa 0,0 l/m 1,9 km/h (1 Bft) N-NO 14 1 min 0,000 mm 1,4 UV-I 392 W/m 8,6 C 9,8 C 3,2 km/h (1 Bft) 91,67 %
06.11.2015 12:23 9,9 C 92 % 1025,5 hPa 0,0 l/m 1,9 km/h (1 Bft) N-NO 19 1 min 0,000 mm 1,4 UV-I 393 W/m 8,7 C 9,9 C 3,2 km/h (1 Bft) 100,00 %
06.11.2015 12:24 10,0 C 92 % 1025,6 hPa 0,0 l/m 1,7 km/h (1 Bft) N-NO 19 1 min 0,000 mm 1,4 UV-I 394 W/m 8,8 C 10,0 C 3,2 km/h (1 Bft) 100,00 %
06.11.2015 12:25 10,0 C 91 % 1025,6 hPa 0,0 l/m 2,1 km/h (1 Bft) N-NW 333 1 min 0,000 mm 1,4 UV-I 392 W/m 8,6 C 10,0 C 4,8 km/h (1 Bft) 100,00 %
06.11.2015 12:26 10,0 C 92 % 1025,6 hPa 0,0 l/m 2,6 km/h (1 Bft) N-NW 345 1 min 0,000 mm 1,4 UV-I 390 W/m 8,8 C 10,0 C 4,8 km/h (1 Bft) 100,00 %
06.11.2015 12:27 10,0 C 92 % 1025,6 hPa 0,0 l/m 2,1 km/h (1 Bft) N 355 1 min 0,000 mm 1,4 UV-I 390 W/m 8,8 C 10,0 C 3,2 km/h (1 Bft) 100,00 %
06.11.2015 12:28 9,9 C 91 % 1025,5 hPa 0,0 l/m 2,5 km/h (1 Bft) N 5 1 min 0,000 mm 1,4 UV-I 389 W/m 8,5 C 9,9 C 3,2 km/h (1 Bft) 100,00 %
06.11.2015 12:29 9,9 C 91 % 1025,5 hPa 0,0 l/m 2,3 km/h (1 Bft) N 5 1 min 0,000 mm 1,4 UV-I 388 W/m 8,5 C 9,9 C 3,2 km/h (1 Bft) 100,00 %
06.11.2015 12:30 9,9 C 92 % 1025,5 hPa 0,0 l/m 1,6 km/h (1 Bft) N 5 1 min 0,000 mm 1,3 UV-I 388 W/m 8,7 C 9,9 C 3,2 km/h (1 Bft) 100,00 %
06.11.2015 12:31 9,9 C 92 % 1025,5 hPa 0,0 l/m 2,1 km/h (1 Bft) N-NO 20 1 min 0,000 mm 1,3 UV-I 388 W/m 8,7 C 9,9 C 3,2 km/h (1 Bft) 100,00 %
06.11.2015 12:32 10,0 C 92 % 1025,5 hPa 0,0 l/m 0,7 km/h (0 Bft) N-NO 20 1 min 0,000 mm 1,3 UV-I 388 W/m 8,8 C 10,0 C 1,6 km/h (1 Bft) 100,00 %
06.11.2015 12:33 10,0 C 92 % 1025,5 hPa 0,0 l/m 1,9 km/h (1 Bft) N-NO 17 1 min 0,000 mm 1,3 UV-I 386 W/m 8,8 C 10,0 C 3,2 km/h (1 Bft) 100,00 %
06.11.2015 12:34 10,1 C 93 % 1025,6 hPa 0,0 l/m 1,9 km/h (1 Bft) N-NO 18 1 min 0,000 mm 1,3 UV-I 386 W/m 9,0 C 10,1 C 3,2 km/h (1 Bft) 100,00 %
06.11.2015 12:35 10,2 C 91 % 1025,5 hPa 0,0 l/m 1,9 km/h (1 Bft) N-NO 16 1 min 0,000 mm 1,3 UV-I 386 W/m 8,8 C 10,2 C 3,2 km/h (1 Bft) 100,00 %
06.11.2015 12:36 10,2 C 92 % 1025,5 hPa 0,0 l/m 3,5 km/h (1 Bft) N-NO 21 1 min 0,000 mm 1,3 UV-I 381 W/m 9,0 C 10,2 C 4,8 km/h (1 Bft) 100,00 %
06.11.2015 12:37 10,3 C 92 % 1025,5 hPa 0,0 l/m 2,4 km/h (1 Bft) N 5 1 min 0,000 mm 1,3 UV-I 381 W/m 9,1 C 10,3 C 3,2 km/h (1 Bft) 100,00 %
06.11.2015 12:38 10,3 C 91 % 1025,5 hPa 0,0 l/m 3,3 km/h (1 Bft) N-NO 27 1 min 0,000 mm 1,3 UV-I 378 W/m 8,9 C 10,3 C 4,8 km/h (1 Bft) 100,00 %
06.11.2015 12:39 10,2 C 91 % 1025,5 hPa 0,0 l/m 3,4 km/h (1 Bft) N-NO 29 1 min 0,000 mm 1,3 UV-I 375 W/m 8,8 C 10,2 C 4,8 km/h (1 Bft) 100,00 %
06.11.2015 12:40 10,2 C 91 % 1025,5 hPa 0,0 l/m 3,3 km/h (1 Bft) NO 35 1 min 0,000 mm 1,3 UV-I 377 W/m 8,8 C 10,2 C 4,8 km/h (1 Bft) 100,00 %
06.11.2015 12:41 10,2 C 91 % 1025,5 hPa 0,0 l/m 3,1 km/h (1 Bft) N-NO 15 1 min 0,000 mm 1,3 UV-I 380 W/m 8,8 C 10,2 C 4,8 km/h (1 Bft) 100,00 %
06.11.2015 12:42 10,2 C 92 % 1025,5 hPa 0,0 l/m 2,1 km/h (1 Bft) NO 36 1 min 0,000 mm 1,3 UV-I 378 W/m 9,0 C 10,2 C 3,2 km/h (1 Bft) 100,00 %
06.11.2015 12:43 10,2 C 90 % 1025,5 hPa 0,0 l/m 2,5 km/h (1 Bft) N-NO 14 1 min 0,000 mm 1,3 UV-I 381 W/m 8,6 C 10,2 C 4,8 km/h (1 Bft) 100,00 %
06.11.2015 12:44 10,2 C 90 % 1025,5 hPa 0,0 l/m 2,8 km/h (1 Bft) N-NO 30 1 min 0,000 mm 1,3 UV-I 382 W/m 8,6 C 10,2 C 4,8 km/h (1 Bft) 100,00 %
06.11.2015 12:45 10,2 C 90 % 1025,5 hPa 0,0 l/m 2,4 km/h (1 Bft) N-NO 26 1 min 0,000 mm 1,3 UV-I 382 W/m 8,6 C 10,2 C 3,2 km/h (1 Bft) 100,00 %
06.11.2015 12:46 10,2 C 92 % 1025,6 hPa 0,0 l/m 2,3 km/h (1 Bft) N-NO 15 1 min 0,000 mm 1,3 UV-I 380 W/m 9,0 C 10,2 C 4,8 km/h (1 Bft) 100,00 %
06.11.2015 12:47 10,2 C 91 % 1025,6 hPa 0,0 l/m 4,3 km/h (1 Bft) N-NO 33 1 min 0,000 mm 1,3 UV-I 379 W/m 8,8 C 10,2 C 6,4 km/h (2 Bft) 100,00 %
06.11.2015 12:48 10,1 C 90 % 1025,6 hPa 0,0 l/m 2,5 km/h (1 Bft) N-NO 28 1 min 0,000 mm 1,3 UV-I 376 W/m 8,5 C 10,1 C 3,2 km/h (1 Bft) 100,00 %
06.11.2015 12:49 10,0 C 91 % 1025,6 hPa 0,0 l/m 1,7 km/h (1 Bft) N-NO 21 1 min 0,000 mm 1,2 UV-I 370 W/m 8,6 C 10,0 C 3,2 km/h (1 Bft) 100,00 %
06.11.2015 12:50 10,1 C 91 % 1025,6 hPa 0,0 l/m 2,2 km/h (1 Bft) N-NO 14 1 min 0,000 mm 1,2 UV-I 366 W/m 8,7 C 10,1 C 3,2 km/h (1 Bft) 100,00 %
06.11.2015 12:51 10,2 C 92 % 1025,6 hPa 0,0 l/m 2,5 km/h (1 Bft) N-NO 28 1 min 0,000 mm 1,2 UV-I 369 W/m 9,0 C 10,2 C 4,8 km/h (1 Bft) 100,00 %
06.11.2015 12:52 10,2 C 91 % 1025,6 hPa 0,0 l/m 1,6 km/h (1 Bft) N-NO 14 1 min 0,000 mm 1,2 UV-I 373 W/m 8,8 C 10,2 C 3,2 km/h (1 Bft) 100,00 %
06.11.2015 12:53 10,2 C 92 % 1025,5 hPa 0,0 l/m 3,5 km/h (1 Bft) N 5 1 min 0,000 mm 1,2 UV-I 370 W/m 9,0 C 10,2 C 4,8 km/h (1 Bft) 100,00 %
06.11.2015 12:54 10,3 C 91 % 1025,5 hPa 0,0 l/m 3,0 km/h (1 Bft) N 5 1 min 0,000 mm 1,2 UV-I 369 W/m 8,9 C 10,3 C 4,8 km/h (1 Bft) 100,00 %
06.11.2015 12:55 10,3 C 91 % 1025,5 hPa 0,0 l/m 2,5 km/h (1 Bft) N-NO 20 1 min 0,000 mm 1,2 UV-I 368 W/m 8,9 C 10,3 C 3,2 km/h (1 Bft) 100,00 %
06.11.2015 12:56 10,3 C 91 % 1025,5 hPa 0,0 l/m 2,6 km/h (1 Bft) O-NO 57 1 min 0,000 mm 1,2 UV-I 366 W/m 8,9 C 10,3 C 4,8 km/h (1 Bft) 100,00 %
06.11.2015 12:57 10,4 C 91 % 1025,5 hPa 0,0 l/m 1,9 km/h (1 Bft) N 11 1 min 0,000 mm 1,2 UV-I 366 W/m 9,0 C 10,4 C 3,2 km/h (1 Bft) 100,00 %
06.11.2015 12:58 10,6 C 91 % 1025,5 hPa 0,0 l/m 3,1 km/h (1 Bft) N-NO 25 1 min 0,000 mm 1,2 UV-I 366 W/m 9,2 C 10,6 C 4,8 km/h (1 Bft) 100,00 %
06.11.2015 12:59 10,6 C 90 % 1025,4 hPa 0,0 l/m 3,0 km/h (1 Bft) N-NO 23 1 min 0,000 mm 1,2 UV-I 366 W/m 9,0 C 10,6 C 4,8 km/h (1 Bft) 100,00 %
06.11.2015 13:00 10,6 C 91 % 1025,5 hPa 0,0 l/m 2,1 km/h (1 Bft) N-NO 14 1 min 0,177 mm 1,2 UV-I 367 W/m 9,2 C 10,6 C 3,2 km/h (1 Bft) 100,00 %
06.11.2015 13:01 10,6 C 90 % 1025,5 hPa 0,0 l/m 1,9 km/h (1 Bft) NO 34 1 min 0,000 mm 1,2 UV-I 367 W/m 9,0 C 10,6 C 3,2 km/h (1 Bft) 100,00 %
06.11.2015 13:02 10,6 C 90 % 1025,5 hPa 0,0 l/m 0,9 km/h (0 Bft) NO 34 1 min 0,000 mm 1,2 UV-I 366 W/m 9,0 C 10,6 C 3,2 km/h (1 Bft) 91,67 %
06.11.2015 13:03 10,7 C 90 % 1025,5 hPa 0,0 l/m 0,7 km/h (0 Bft) N 355 1 min 0,000 mm 1,1 UV-I 368 W/m 9,1 C 10,7 C 4,8 km/h (1 Bft) 91,67 %
06.11.2015 13:04 10,7 C 90 % 1025,5 hPa 0,0 l/m 2,6 km/h (1 Bft) N 355 1 min 0,000 mm 1,1 UV-I 370 W/m 9,1 C 10,7 C 4,8 km/h (1 Bft) 100,00 %
06.11.2015 13:05 10,8 C 89 % 1025,5 hPa 0,0 l/m 2,5 km/h (1 Bft) NW 313 1 min 0,000 mm 1,1 UV-I 377 W/m 9,1 C 10,8 C 4,8 km/h (1 Bft) 96,15 %
06.11.2015 13:06 10,8 C 88 % 1025,5 hPa 0,0 l/m 2,3 km/h (1 Bft) NW 305 1 min 0,000 mm 1,1 UV-I 385 W/m 8,9 C 10,8 C 3,2 km/h (1 Bft) 100,00 %
06.11.2015 13:07 10,8 C 89 % 1025,5 hPa 0,0 l/m 1,7 km/h (1 Bft) NW 306 1 min 0,000 mm 1,1 UV-I 392 W/m 9,1 C 10,8 C 3,2 km/h (1 Bft) 95,65 %
06.11.2015 13:08 10,8 C 89 % 1025,5 hPa 0,0 l/m 2,7 km/h (1 Bft) N-NW 346 1 min 0,000 mm 1,1 UV-I 403 W/m 9,1 C 10,8 C 4,8 km/h (1 Bft) 95,83 %
06.11.2015 13:09 10,8 C 90 % 1025,5 hPa 0,0 l/m 2,5 km/h (1 Bft) N 5 1 min 0,000 mm 1,2 UV-I 417 W/m 9,2 C 10,8 C 3,2 km/h (1 Bft) 100,00 %
06.11.2015 13:10 10,8 C 89 % 1025,5 hPa 0,0 l/m 2,6 km/h (1 Bft) N-NW 336 1 min 0,000 mm 1,2 UV-I 438 W/m 9,1 C 10,8 C 4,8 km/h (1 Bft) 100,00 %
06.11.2015 13:11 10,8 C 88 % 1025,5 hPa 0,0 l/m 1,9 km/h (1 Bft) N 355 1 min 0,000 mm 1,2 UV-I 458 W/m 8,9 C 10,8 C 3,2 km/h (1 Bft) 100,00 %
06.11.2015 13:12 10,9 C 88 % 1025,5 hPa 0,0 l/m 1,9 km/h (1 Bft) N 355 1 min 0,000 mm 1,2 UV-I 477 W/m 9,0 C 10,9 C 3,2 km/h (1 Bft) 100,00 %
06.11.2015 13:13 10,9 C 88 % 1025,5 hPa 0,0 l/m 2,0 km/h (1 Bft) N-NO 25 1 min 0,000 mm 1,2 UV-I 494 W/m 9,0 C 10,9 C 3,2 km/h (1 Bft) 100,00 %
06.11.2015 13:14 11,1 C 90 % 1025,4 hPa 0,0 l/m 1,3 km/h (1 Bft) N-NO 25 1 min 0,000 mm 1,2 UV-I 505 W/m 9,5 C 11,1 C 3,2 km/h (1 Bft) 95,65 %
06.11.2015 13:15 11,2 C 87 % 1025,4 hPa 0,0 l/m 2,0 km/h (1 Bft) N 355 1 min 0,000 mm 1,1 UV-I 499 W/m 9,1 C 11,2 C 3,2 km/h (1 Bft) 100,00 %
06.11.2015 13:16 11,2 C 86 % 1025,4 hPa 0,0 l/m 1,8 km/h (1 Bft) NW 325 1 min 0,000 mm 1,0 UV-I 357 W/m 8,9 C 11,2 C 3,2 km/h (1 Bft) 100,00 %
06.11.2015 13:17 11,1 C 86 % 1025,5 hPa 0,0 l/m 0,9 km/h (0 Bft) NW 326 1 min 0,000 mm 1,0 UV-I 351 W/m 8,8 C 11,1 C 3,2 km/h (1 Bft) 100,00 %
06.11.2015 13:18 11,0 C 88 % 1025,4 hPa 0,0 l/m 0,0 km/h (0 Bft) NW 326 1 min 0,000 mm 0,9 UV-I 278 W/m 9,1 C 11,0 C 0,0 km/h (0 Bft) 100,00 %
06.11.2015 13:19 11,0 C 87 % 1025,4 hPa 0,0 l/m 0,0 km/h (0 Bft) NW 326 1 min 0,000 mm 0,9 UV-I 302 W/m 8,9 C 11,0 C 0,0 km/h (0 Bft) 100,00 %
06.11.2015 13:20 11,1 C 87 % 1025,4 hPa 0,0 l/m 0,5 km/h (0 Bft) NW 326 1 min 0,000 mm 0,9 UV-I 289 W/m 9,0 C 11,1 C 1,6 km/h (1 Bft) 95,65 %
06.11.2015 13:21 11,1 C 87 % 1025,4 hPa 0,0 l/m 1,4 km/h (1 Bft) NW 326 1 min 0,000 mm 0,9 UV-I 251 W/m 9,0 C 11,1 C 3,2 km/h (1 Bft) 95,83 %
06.11.2015 13:22 11,1 C 88 % 1025,4 hPa 0,0 l/m 2,3 km/h (1 Bft) N 5 1 min 0,000 mm 0,9 UV-I 238 W/m 9,2 C 11,1 C 4,8 km/h (1 Bft) 99,40 %
06.11.2015 13:23 11,2 C 88 % 1025,4 hPa 0,0 l/m 1,4 km/h (1 Bft) N-NW 346 1 min 0,000 mm 0,8 UV-I 236 W/m 9,3 C 11,2 C 3,2 km/h (1 Bft) 100,00 %
06.11.2015 13:24 11,2 C 87 % 1025,4 hPa 0,0 l/m 1,9 km/h (1 Bft) N-NW 346 1 min 0,000 mm 0,8 UV-I 232 W/m 9,1 C 11,2 C 3,2 km/h (1 Bft) 100,00 %
06.11.2015 13:25 11,2 C 87 % 1025,4 hPa 0,0 l/m 1,5 km/h (1 Bft) N-NW 346 1 min 0,000 mm 0,8 UV-I 229 W/m 9,1 C 11,2 C 1,6 km/h (1 Bft) 100,00 %
06.11.2015 13:26 11,2 C 88 % 1025,4 hPa 0,0 l/m 0,3 km/h (0 Bft) N-NW 346 1 min 0,000 mm 0,8 UV-I 224 W/m 9,3 C 11,2 C 1,6 km/h (1 Bft) 100,00 %
06.11.2015 13:27 11,3 C 88 % 1025,4 hPa 0,0 l/m 0,6 km/h (0 Bft) N-NW 346 1 min 0,000 mm 0,8 UV-I 225 W/m 9,4 C 11,3 C 1,6 km/h (1 Bft) 100,00 %
06.11.2015 13:28 11,3 C 87 % 1025,5 hPa 0,0 l/m 2,4 km/h (1 Bft) NW 304 1 min 0,000 mm 0,8 UV-I 228 W/m 9,2 C 11,3 C 3,2 km/h (1 Bft) 95,65 %
06.11.2015 13:29 11,3 C 86 % 1025,4 hPa 0,0 l/m 1,2 km/h (1 Bft) NW 304 1 min 0,000 mm 0,8 UV-I 227 W/m 9,0 C 11,3 C 3,2 km/h (1 Bft) 100,00 %
06.11.2015 13:30 11,2 C 86 % 1025,4 hPa 0,0 l/m 0,9 km/h (0 Bft) NW 304 1 min 0,000 mm 0,8 UV-I 230 W/m 8,9 C 11,2 C 1,6 km/h (1 Bft) 100,00 %
06.11.2015 13:31 11,2 C 86 % 1025,5 hPa 0,0 l/m 0,1 km/h (0 Bft) NW 304 1 min 0,000 mm 0,8 UV-I 223 W/m 8,9 C 11,2 C 1,6 km/h (1 Bft) 100,00 %
06.11.2015 13:32 11,2 C 86 % 1025,4 hPa 0,0 l/m 0,9 km/h (0 Bft) NW 304 1 min 0,000 mm 0,8 UV-I 213 W/m 8,9 C 11,2 C 1,6 km/h (1 Bft) 100,00 %
06.11.2015 13:33 11,3 C 86 % 1025,4 hPa 0,0 l/m 0,4 km/h (0 Bft) NW 304 1 min 0,000 mm 0,8 UV-I 212 W/m 9,0 C 11,3 C 1,6 km/h (1 Bft) 100,00 %
06.11.2015 13:34 11,3 C 85 % 1025,4 hPa 0,0 l/m 0,2 km/h (0 Bft) NW 304 1 min 0,000 mm 0,8 UV-I 214 W/m 8,9 C 11,3 C 1,6 km/h (1 Bft) 100,00 %
06.11.2015 13:35 11,3 C 85 % 1025,4 hPa 0,0 l/m 0,7 km/h (0 Bft) NW 304 1 min 0,000 mm 0,8 UV-I 218 W/m 8,9 C 11,3 C 1,6 km/h (1 Bft) 96,15 %
06.11.2015 13:36 11,3 C 85 % 1025,4 hPa 0,0 l/m 1,3 km/h (1 Bft) NW 304 1 min 0,000 mm 0,8 UV-I 220 W/m 8,9 C 11,3 C 3,2 km/h (1 Bft) 100,00 %
06.11.2015 13:37 11,3 C 86 % 1025,4 hPa 0,0 l/m 1,4 km/h (1 Bft) NW 304 1 min 0,000 mm 0,7 UV-I 218 W/m 9,0 C 11,3 C 1,6 km/h (1 Bft) 100,00 %
06.11.2015 13:38 11,4 C 86 % 1025,4 hPa 0,0 l/m 1,3 km/h (1 Bft) NW 304 1 min 0,000 mm 0,7 UV-I 218 W/m 9,1 C 11,4 C 3,2 km/h (1 Bft) 100,00 %
06.11.2015 13:39 11,4 C 87 % 1025,5 hPa 0,0 l/m 1,1 km/h (1 Bft) N-NW 344 1 min 0,000 mm 0,7 UV-I 219 W/m 9,3 C 11,4 C 3,2 km/h (1 Bft) 100,00 %
06.11.2015 13:40 11,4 C 85 % 1025,5 hPa 0,0 l/m 1,7 km/h (1 Bft) N-NW 344 1 min 0,000 mm 0,7 UV-I 218 W/m 9,0 C 11,4 C 3,2 km/h (1 Bft) 100,00 %
06.11.2015 13:41 11,4 C 86 % 1025,5 hPa 0,0 l/m 1,5 km/h (1 Bft) N 350 1 min 0,000 mm 0,7 UV-I 212 W/m 9,1 C 11,4 C 3,2 km/h (1 Bft) 95,65 %
06.11.2015 13:42 11,4 C 85 % 1025,4 hPa 0,0 l/m 2,0 km/h (1 Bft) N-NO 12 1 min 0,000 mm 0,7 UV-I 209 W/m 9,0 C 11,4 C 3,2 km/h (1 Bft) 100,00 %
06.11.2015 13:43 11,4 C 85 % 1025,4 hPa 0,0 l/m 2,3 km/h (1 Bft) N 5 1 min 0,000 mm 0,7 UV-I 210 W/m 9,0 C 11,4 C 3,2 km/h (1 Bft) 96,15 %
06.11.2015 13:44 11,4 C 84 % 1025,4 hPa 0,0 l/m 1,8 km/h (1 Bft) N 5 1 min 0,000 mm 0,7 UV-I 212 W/m 8,8 C 11,4 C 3,2 km/h (1 Bft) 100,00 %
06.11.2015 13:45 11,4 C 85 % 1025,4 hPa 0,0 l/m 1,6 km/h (1 Bft) N 5 1 min 0,000 mm 0,7 UV-I 216 W/m 9,0 C 11,4 C 3,2 km/h (1 Bft) 100,00 %
06.11.2015 13:46 11,4 C 85 % 1025,4 hPa 0,0 l/m 1,9 km/h (1 Bft) N 5 1 min 0,000 mm 0,7 UV-I 224 W/m 9,0 C 11,4 C 3,2 km/h (1 Bft) 100,00 %
06.11.2015 13:47 11,4 C 85 % 1025,4 hPa 0,0 l/m 0,6 km/h (0 Bft) N 5 1 min 0,000 mm 0,8 UV-I 240 W/m 9,0 C 11,4 C 1,6 km/h (1 Bft) 100,00 %
06.11.2015 13:48 11,4 C 84 % 1025,4 hPa 0,0 l/m 1,5 km/h (1 Bft) N 5 1 min 0,000 mm 0,8 UV-I 311 W/m 8,8 C 11,4 C 3,2 km/h (1 Bft) 100,00 %
06.11.2015 13:49 11,4 C 85 % 1025,4 hPa 0,0 l/m 1,1 km/h (1 Bft) N 5 1 min 0,000 mm 0,8 UV-I 322 W/m 9,0 C 11,4 C 1,6 km/h (1 Bft) 100,00 %
06.11.2015 13:50 11,5 C 84 % 1025,4 hPa 0,0 l/m 0,3 km/h (0 Bft) N 5 1 min 0,000 mm 0,9 UV-I 322 W/m 8,9 C 11,5 C 1,6 km/h (1 Bft) 100,00 %
06.11.2015 13:51 11,6 C 85 % 1025,4 hPa 0,0 l/m 0,0 km/h (0 Bft) N 5 1 min 0,000 mm 0,8 UV-I 297 W/m 9,2 C 11,6 C 0,0 km/h (0 Bft) 100,00 %
06.11.2015 13:52 11,7 C 85 % 1025,4 hPa 0,0 l/m 0,1 km/h (0 Bft) N 5 1 min 0,000 mm 0,8 UV-I 291 W/m 9,3 C 11,7 C 1,6 km/h (1 Bft) 100,00 %
06.11.2015 13:53 11,8 C 86 % 1025,4 hPa 0,0 l/m 0,7 km/h (0 Bft) N 5 1 min 0,000 mm 0,8 UV-I 319 W/m 9,5 C 11,8 C 1,6 km/h (1 Bft) 100,00 %
06.11.2015 13:54 11,8 C 84 % 1025,4 hPa 0,0 l/m 1,4 km/h (1 Bft) N 5 1 min 0,000 mm 0,8 UV-I 325 W/m 9,2 C 11,8 C 1,6 km/h (1 Bft) 100,00 %
06.11.2015 13:55 11,8 C 84 % 1025,4 hPa 0,0 l/m 0,4 km/h (0 Bft) N 5 1 min 0,000 mm 0,8 UV-I 364 W/m 9,2 C 11,8 C 1,6 km/h (1 Bft) 100,00 %
06.11.2015 13:56 11,8 C 84 % 1025,4 hPa 0,0 l/m 0,1 km/h (0 Bft) N 5 1 min 0,000 mm 0,8 UV-I 361 W/m 9,2 C 11,8 C 1,6 km/h (1 Bft) 100,00 %
06.11.2015 13:57 11,8 C 84 % 1025,4 hPa 0,0 l/m 0,6 km/h (0 Bft) N 5 1 min 0,000 mm 0,8 UV-I 328 W/m 9,2 C 11,8 C 1,6 km/h (1 Bft) 100,00 %
06.11.2015 13:58 11,9 C 83 % 1025,4 hPa 0,0 l/m 0,3 km/h (0 Bft) N 5 1 min 0,000 mm 0,8 UV-I 341 W/m 9,1 C 11,9 C 1,6 km/h (1 Bft) 100,00 %
06.11.2015 13:59 11,9 C 85 % 1025,4 hPa 0,0 l/m 1,3 km/h (1 Bft) N 5 1 min 0,000 mm 0,8 UV-I 366 W/m 9,5 C 11,9 C 3,2 km/h (1 Bft) 100,00 %
06.11.2015 14:00 11,9 C 83 % 1025,4 hPa 0,0 l/m 0,7 km/h (0 Bft) N 5 1 min 0,000 mm 0,8 UV-I 346 W/m 9,1 C 11,9 C 1,6 km/h (1 Bft) 100,00 %
06.11.2015 14:01 11,9 C 84 % 1025,4 hPa 0,0 l/m 0,5 km/h (0 Bft) N 5 1 min 0,152 mm 0,8 UV-I 313 W/m 9,3 C 11,9 C 1,6 km/h (1 Bft) 100,00 %
06.11.2015 14:02 12,1 C 84 % 1025,4 hPa 0,0 l/m 1,2 km/h (1 Bft) N 5 1 min 0,001 mm 0,7 UV-I 311 W/m 9,5 C 12,1 C 1,6 km/h (1 Bft) 96,15 %
06.11.2015 14:03 12,1 C 82 % 1025,3 hPa 0,0 l/m 1,4 km/h (1 Bft) N 5 1 min 0,000 mm 0,8 UV-I 326 W/m 9,1 C 12,1 C 3,2 km/h (1 Bft) 100,00 %
06.11.2015 14:04 12,1 C 82 % 1025,4 hPa 0,0 l/m 1,0 km/h (0 Bft) N 355 1 min 0,000 mm 0,7 UV-I 334 W/m 9,1 C 12,1 C 3,2 km/h (1 Bft) 100,00 %
06.11.2015 14:05 12,2 C 83 % 1025,4 hPa 0,0 l/m 1,6 km/h (1 Bft) N 360 1 min 0,000 mm 0,7 UV-I 313 W/m 9,4 C 12,2 C 3,2 km/h (1 Bft) 100,00 %
06.11.2015 14:10 12,3 C 83 % 1025,4 hPa 0,0 l/m 0,0 km/h (0 Bft) N 360 5 min 0,000 mm 0,7 UV-I 310 W/m 9,5 C 12,3 C 3,2 km/h (1 Bft) 100,00 %
06.11.2015 14:13 12,4 C 81 % 1025,3 hPa 0,0 l/m 0,8 km/h (0 Bft) N 355 3 min 0,000 mm 0,7 UV-I 285 W/m 9,2 C 12,4 C 1,6 km/h (1 Bft) 100,00 %
06.11.2015 14:14 12,4 C 81 % 1025,3 hPa 0,0 l/m 0,5 km/h (0 Bft) N 355 1 min 0,000 mm 0,7 UV-I 282 W/m 9,2 C 12,4 C 1,6 km/h (1 Bft) 100,00 %
06.11.2015 14:15 12,4 C 83 % 1025,3 hPa 0,0 l/m 0,4 km/h (0 Bft) N 355 1 min 0,000 mm 0,7 UV-I 278 W/m 9,6 C 12,4 C 1,6 km/h (1 Bft) 95,83 %
06.11.2015 14:16 12,5 C 82 % 1025,3 hPa 0,0 l/m 0,9 km/h (0 Bft) O-SO 112 1 min 0,000 mm 0,6 UV-I 272 W/m 9,5 C 12,5 C 1,6 km/h (1 Bft) 100,00 %
06.11.2015 14:17 12,5 C 82 % 1025,3 hPa 0,0 l/m 1,8 km/h (1 Bft) O-SO 105 1 min 0,000 mm 0,6 UV-I 270 W/m 9,5 C 12,5 C 3,2 km/h (1 Bft) 96,30 %
06.11.2015 14:18 12,4 C 82 % 1025,3 hPa 0,0 l/m 2,8 km/h (1 Bft) O-SO 116 1 min 0,000 mm 0,6 UV-I 267 W/m 9,4 C 12,4 C 4,8 km/h (1 Bft) 100,00 %
06.11.2015 14:19 12,4 C 81 % 1025,2 hPa 0,0 l/m 2,5 km/h (1 Bft) O-SO 115 1 min 0,000 mm 0,6 UV-I 262 W/m 9,2 C 12,4 C 3,2 km/h (1 Bft) 100,00 %
06.11.2015 14:20 12,3 C 82 % 1025,2 hPa 0,0 l/m 1,9 km/h (1 Bft) O-SO 115 1 min 0,000 mm 0,6 UV-I 258 W/m 9,3 C 12,3 C 3,2 km/h (1 Bft) 95,65 %
06.11.2015 14:21 12,2 C 82 % 1025,2 hPa 0,0 l/m 1,9 km/h (1 Bft) O-SO 115 1 min 0,000 mm 0,6 UV-I 255 W/m 9,2 C 12,2 C 3,2 km/h (1 Bft) 100,00 %
06.11.2015 14:22 12,2 C 82 % 1025,3 hPa 0,0 l/m 1,5 km/h (1 Bft) O-SO 115 1 min 0,000 mm 0,6 UV-I 253 W/m 9,2 C 12,2 C 3,2 km/h (1 Bft) 95,83 %
06.11.2015 14:23 12,3 C 82 % 1025,2 hPa 0,0 l/m 0,5 km/h (0 Bft) O-SO 115 1 min 0,000 mm 0,6 UV-I 251 W/m 9,3 C 12,3 C 1,6 km/h (1 Bft) 100,00 %
06.11.2015 14:24 12,3 C 83 % 1025,2 hPa 0,0 l/m 0,8 km/h (0 Bft) O-SO 115 1 min 0,000 mm 0,6 UV-I 249 W/m 9,5 C 12,3 C 1,6 km/h (1 Bft) 100,00 %
06.11.2015 14:25 12,4 C 82 % 1025,2 hPa 0,0 l/m 0,1 km/h (0 Bft) O-SO 115 1 min 0,000 mm 0,6 UV-I 246 W/m 9,4 C 12,4 C 1,6 km/h (1 Bft) 100,00 %
06.11.2015 14:26 12,4 C 82 % 1025,2 hPa 0,0 l/m 0,2 km/h (0 Bft) O-SO 115 1 min 0,000 mm 0,6 UV-I 245 W/m 9,4 C 12,4 C 1,6 km/h (1 Bft) 100,00 %
06.11.2015 14:27 12,5 C 82 % 1025,2 hPa 0,0 l/m 1,4 km/h (1 Bft) SO 128 1 min 0,000 mm 0,6 UV-I 243 W/m 9,5 C 12,5 C 3,2 km/h (1 Bft) 95,65 %
06.11.2015 14:28 12,6 C 81 % 1025,2 hPa 0,0 l/m 1,0 km/h (0 Bft) SO 128 1 min 0,000 mm 0,6 UV-I 241 W/m 9,4 C 12,6 C 1,6 km/h (1 Bft) 100,00 %
06.11.2015 14:29 12,6 C 81 % 1025,2 hPa 0,0 l/m 0,1 km/h (0 Bft) SO 128 1 min 0,000 mm 0,5 UV-I 238 W/m 9,4 C 12,6 C 1,6 km/h (1 Bft) 100,00 %
06.11.2015 14:30 12,6 C 80 % 1025,2 hPa 0,0 l/m 0,1 km/h (0 Bft) SO 128 1 min 0,000 mm 0,5 UV-I 237 W/m 9,2 C 12,6 C 1,6 km/h (1 Bft) 100,00 %
06.11.2015 14:31 12,6 C 80 % 1025,2 hPa 0,0 l/m 0,1 km/h (0 Bft) SO 128 1 min 0,000 mm 0,5 UV-I 235 W/m 9,2 C 12,6 C 1,6 km/h (1 Bft) 100,00 %
06.11.2015 14:32 12,6 C 81 % 1025,2 hPa 0,0 l/m 1,0 km/h (0 Bft) W-SW 247 1 min 0,000 mm 0,5 UV-I 233 W/m 9,4 C 12,6 C 1,6 km/h (1 Bft) 100,00 %
06.11.2015 14:33 12,6 C 80 % 1025,2 hPa 0,0 l/m 1,3 km/h (1 Bft) W-SW 247 1 min 0,000 mm 0,5 UV-I 230 W/m 9,2 C 12,6 C 1,6 km/h (1 Bft) 100,00 %
06.11.2015 14:34 12,7 C 80 % 1025,2 hPa 0,0 l/m 0,2 km/h (0 Bft) W-SW 248 1 min 0,000 mm 0,5 UV-I 229 W/m 9,3 C 12,7 C 1,6 km/h (1 Bft) 100,00 %
06.11.2015 14:35 12,8 C 79 % 1025,2 hPa 0,0 l/m 1,1 km/h (1 Bft) W-NW 300 1 min 0,000 mm 0,5 UV-I 226 W/m 9,2 C 12,8 C 3,2 km/h (1 Bft) 100,00 %
06.11.2015 14:36 12,8 C 80 % 1025,2 hPa 0,0 l/m 0,1 km/h (0 Bft) W-NW 300 1 min 0,000 mm 0,5 UV-I 223 W/m 9,4 C 12,8 C 1,6 km/h (1 Bft) 100,00 %
06.11.2015 14:37 12,9 C 79 % 1025,2 hPa 0,0 l/m 0,1 km/h (0 Bft) W-NW 300 1 min 0,000 mm 0,5 UV-I 222 W/m 9,3 C 12,9 C 1,6 km/h (1 Bft) 100,00 %
06.11.2015 14:38 12,9 C 80 % 1025,2 hPa 0,0 l/m 0,0 km/h (0 Bft) W-NW 300 1 min 0,000 mm 0,5 UV-I 221 W/m 9,5 C 12,9 C 0,0 km/h (0 Bft) 100,00 %
06.11.2015 14:39 12,9 C 81 % 1025,2 hPa 0,0 l/m 0,9 km/h (0 Bft) W-NW 301 1 min 0,000 mm 0,5 UV-I 218 W/m 9,7 C 12,9 C 1,6 km/h (1 Bft) 100,00 %
06.11.2015 14:40 12,8 C 81 % 1025,2 hPa 0,0 l/m 0,4 km/h (0 Bft) W-NW 301 1 min 0,000 mm 0,5 UV-I 215 W/m 9,6 C 12,8 C 1,6 km/h (1 Bft) 95,83 %
06.11.2015 14:41 12,8 C 81 % 1025,2 hPa 0,0 l/m 0,8 km/h (0 Bft) N 355 1 min 0,000 mm 0,5 UV-I 212 W/m 9,6 C 12,8 C 1,6 km/h (1 Bft) 100,00 %
06.11.2015 14:42 12,8 C 81 % 1025,2 hPa 0,0 l/m 1,2 km/h (1 Bft) NO 35 1 min 0,000 mm 0,3 UV-I 209 W/m 9,6 C 12,8 C 3,2 km/h (1 Bft) 100,00 %
06.11.2015 14:43 12,8 C 82 % 1025,2 hPa 0,0 l/m 1,1 km/h (1 Bft) NO 35 1 min 0,000 mm 0,0 UV-I 208 W/m 9,8 C 12,8 C 1,6 km/h (1 Bft) 100,00 %
06.11.2015 14:44 12,9 C 81 % 1025,2 hPa 0,0 l/m 0,0 km/h (0 Bft) NO 35 1 min 0,000 mm 0,0 UV-I 207 W/m 9,7 C 12,9 C 0,0 km/h (0 Bft) 100,00 %
06.11.2015 14:45 12,9 C 80 % 1025,2 hPa 0,0 l/m 0,2 km/h (0 Bft) NO 34 1 min 0,000 mm 0,0 UV-I 206 W/m 9,5 C 12,9 C 1,6 km/h (1 Bft) 96,55 %
06.11.2015 14:46 13,0 C 81 % 1025,2 hPa 0,0 l/m 1,9 km/h (1 Bft) O 101 1 min 0,000 mm 0,0 UV-I 204 W/m 9,8 C 13,0 C 3,2 km/h (1 Bft) 100,00 %
06.11.2015 14:47 12,9 C 80 % 1025,2 hPa 0,0 l/m 3,1 km/h (1 Bft) O 98 1 min 0,000 mm 0,0 UV-I 201 W/m 9,5 C 12,9 C 4,8 km/h (1 Bft) 100,00 %
06.11.2015 14:48 12,9 C 79 % 1025,2 hPa 0,0 l/m 1,6 km/h (1 Bft) O 98 1 min 0,000 mm 0,0 UV-I 199 W/m 9,3 C 12,9 C 3,2 km/h (1 Bft) 100,00 %
06.11.2015 14:49 12,9 C 81 % 1025,3 hPa 0,0 l/m 1,1 km/h (1 Bft) O 98 1 min 0,000 mm 0,0 UV-I 198 W/m 9,7 C 12,9 C 1,6 km/h (1 Bft) 100,00 %
06.11.2015 14:50 12,9 C 81 % 1025,3 hPa 0,0 l/m 0,3 km/h (0 Bft) O 98 1 min 0,000 mm 0,0 UV-I 195 W/m 9,7 C 12,9 C 1,6 km/h (1 Bft) 100,00 %
06.11.2015 14:51 12,9 C 81 % 1025,3 hPa 0,0 l/m 0,2 km/h (0 Bft) O 98 1 min 0,000 mm 0,0 UV-I 192 W/m 9,7 C 12,9 C 1,6 km/h (1 Bft) 100,00 %
06.11.2015 14:52 13,0 C 83 % 1025,3 hPa 0,0 l/m 0,1 km/h (0 Bft) O 98 1 min 0,000 mm 0,0 UV-I 166 W/m 10,2 C 13,0 C 1,6 km/h (1 Bft) 100,00 %
06.11.2015 14:53 13,1 C 82 % 1025,3 hPa 0,0 l/m 0,2 km/h (0 Bft) O 98 0 min 0,000 mm 0,0 UV-I 104 W/m 10,1 C 13,1 C 1,6 km/h (1 Bft) 100,00 %
06.11.2015 14:54 13,1 C 81 % 1025,3 hPa 0,0 l/m 0,6 km/h (0 Bft) O 98 1 min 0,000 mm 0,0 UV-I 134 W/m 9,9 C 13,1 C 1,6 km/h (1 Bft) 100,00 %
06.11.2015 14:55 13,1 C 80 % 1025,3 hPa 0,0 l/m 1,4 km/h (1 Bft) O 98 1 min 0,000 mm 0,0 UV-I 164 W/m 9,7 C 13,1 C 1,6 km/h (1 Bft) 100,00 %
06.11.2015 14:56 13,0 C 80 % 1025,2 hPa 0,0 l/m 0,3 km/h (0 Bft) O 98 0 min 0,000 mm 0,0 UV-I 95 W/m 9,6 C 13,0 C 1,6 km/h (1 Bft) 96,15 %
06.11.2015 14:57 12,9 C 80 % 1025,3 hPa 0,0 l/m 1,0 km/h (0 Bft) O 98 0 min 0,000 mm 0,0 UV-I 81 W/m 9,5 C 12,9 C 1,6 km/h (1 Bft) 100,00 %
06.11.2015 14:58 12,9 C 80 % 1025,2 hPa 0,0 l/m 1,1 km/h (1 Bft) O 98 0 min 0,000 mm 0,0 UV-I 126 W/m 9,5 C 12,9 C 3,2 km/h (1 Bft) 100,00 %
06.11.2015 14:59 12,9 C 81 % 1025,2 hPa 0,0 l/m 1,5 km/h (1 Bft) O 98 1 min 0,000 mm 0,0 UV-I 170 W/m 9,7 C 12,9 C 3,2 km/h (1 Bft) 100,00 %
06.11.2015 15:00 12,9 C 81 % 1025,2 hPa 0,0 l/m 1,1 km/h (1 Bft) O 98 1 min 0,127 mm 0,0 UV-I 170 W/m 9,7 C 12,9 C 1,6 km/h (1 Bft) 100,00 %
06.11.2015 15:01 12,9 C 81 % 1025,2 hPa 0,0 l/m 1,6 km/h (1 Bft) O 98 1 min 0,000 mm 0,0 UV-I 165 W/m 9,7 C 12,9 C 3,2 km/h (1 Bft) 100,00 %
06.11.2015 15:02 12,8 C 81 % 1025,2 hPa 0,0 l/m 1,7 km/h (1 Bft) O 98 1 min 0,000 mm 0,0 UV-I 163 W/m 9,6 C 12,8 C 3,2 km/h (1 Bft) 95,65 %
06.11.2015 15:03 12,8 C 81 % 1025,2 hPa 0,0 l/m 1,3 km/h (1 Bft) O 98 1 min 0,000 mm 0,0 UV-I 162 W/m 9,6 C 12,8 C 3,2 km/h (1 Bft) 100,00 %
06.11.2015 15:04 12,9 C 81 % 1025,2 hPa 0,0 l/m 0,6 km/h (0 Bft) O 98 1 min 0,000 mm 0,0 UV-I 159 W/m 9,7 C 12,9 C 1,6 km/h (1 Bft) 100,00 %
06.11.2015 15:05 12,9 C 81 % 1025,2 hPa 0,0 l/m 0,5 km/h (0 Bft) O 98 1 min 0,000 mm 0,0 UV-I 156 W/m 9,7 C 12,9 C 1,6 km/h (1 Bft) 96,15 %
06.11.2015 15:06 12,9 C 81 % 1025,2 hPa 0,0 l/m 1,3 km/h (1 Bft) O 98 1 min 0,000 mm 0,0 UV-I 154 W/m 9,7 C 12,9 C 3,2 km/h (1 Bft) 100,00 %
06.11.2015 15:07 13,0 C 81 % 1025,2 hPa 0,0 l/m 1,2 km/h (1 Bft) O 98 1 min 0,000 mm 0,0 UV-I 150 W/m 9,8 C 13,0 C 1,6 km/h (1 Bft) 95,83 %
06.11.2015 15:08 12,9 C 80 % 1025,2 hPa 0,0 l/m 0,9 km/h (0 Bft) O 98 1 min 0,000 mm 0,0 UV-I 148 W/m 9,5 C 12,9 C 1,6 km/h (1 Bft) 95,65 %
06.11.2015 15:09 12,9 C 80 % 1025,2 hPa 0,0 l/m 0,9 km/h (0 Bft) O 98 1 min 0,000 mm 0,0 UV-I 146 W/m 9,5 C 12,9 C 1,6 km/h (1 Bft) 100,00 %
06.11.2015 15:10 13,0 C 81 % 1025,2 hPa 0,0 l/m 1,0 km/h (0 Bft) O 98 1 min 0,000 mm 0,0 UV-I 143 W/m 9,8 C 13,0 C 1,6 km/h (1 Bft) 100,00 %
06.11.2015 15:11 13,1 C 80 % 1025,1 hPa 0,0 l/m 0,1 km/h (0 Bft) O 98 1 min 0,000 mm 0,0 UV-I 140 W/m 9,7 C 13,1 C 1,6 km/h (1 Bft) 96,15 %
06.11.2015 15:12 13,1 C 80 % 1025,2 hPa 0,0 l/m 0,0 km/h (0 Bft) O 98 1 min 0,000 mm 0,0 UV-I 138 W/m 9,7 C 13,1 C 0,0 km/h (0 Bft) 100,00 %
06.11.2015 15:13 13,1 C 79 % 1025,2 hPa 0,0 l/m 0,8 km/h (0 Bft) O 98 1 min 0,000 mm 0,0 UV-I 135 W/m 9,5 C 13,1 C 1,6 km/h (1 Bft) 100,00 %
06.11.2015 15:14 13,2 C 79 % 1025,2 hPa 0,0 l/m 0,3 km/h (0 Bft) O 98 1 min 0,000 mm 0,0 UV-I 134 W/m 9,6 C 13,2 C 1,6 km/h (1 Bft) 100,00 %
06.11.2015 15:15 13,2 C 80 % 1025,2 hPa 0,0 l/m 0,4 km/h (0 Bft) O 98 1 min 0,000 mm 0,0 UV-I 132 W/m 9,8 C 13,2 C 1,6 km/h (1 Bft) 100,00 %
06.11.2015 15:16 13,2 C 81 % 1025,2 hPa 0,0 l/m 0,2 km/h (0 Bft) O 98 1 min 0,000 mm 0,0 UV-I 129 W/m 10,0 C 13,2 C 1,6 km/h (1 Bft) 100,00 %
06.11.2015 15:17 13,2 C 81 % 1025,1 hPa 0,0 l/m 0,6 km/h (0 Bft) O 98 1 min 0,000 mm 0,0 UV-I 128 W/m 10,0 C 13,2 C 1,6 km/h (1 Bft) 100,00 %
06.11.2015 15:18 13,2 C 80 % 1025,1 hPa 0,0 l/m 1,9 km/h (1 Bft) O 98 1 min 0,000 mm 0,0 UV-I 126 W/m 9,8 C 13,2 C 3,2 km/h (1 Bft) 96,30 %
06.11.2015 15:19 13,2 C 80 % 1025,1 hPa 0,0 l/m 1,0 km/h (0 Bft) O 89 1 min 0,000 mm 0,0 UV-I 124 W/m 9,8 C 13,2 C 3,2 km/h (1 Bft) 100,00 %
06.11.2015 15:20 13,2 C 80 % 1025,1 hPa 0,0 l/m 1,7 km/h (1 Bft) O 86 1 min 0,000 mm 0,0 UV-I 120 W/m 9,8 C 13,2 C 3,2 km/h (1 Bft) 95,83 %
06.11.2015 15:21 13,2 C 80 % 1025,1 hPa 0,0 l/m 2,5 km/h (1 Bft) O 99 1 min 0,000 mm 0,0 UV-I 118 W/m 9,8 C 13,2 C 3,2 km/h (1 Bft) 100,00 %
06.11.2015 15:22 13,2 C 80 % 1025,1 hPa 0,0 l/m 2,0 km/h (1 Bft) O 86 1 min 0,000 mm 0,0 UV-I 115 W/m 9,8 C 13,2 C 3,2 km/h (1 Bft) 100,00 %
06.11.2015 15:23 13,2 C 80 % 1025,1 hPa 0,0 l/m 1,4 km/h (1 Bft) O-NO 78 1 min 0,000 mm 0,0 UV-I 112 W/m 9,8 C 13,2 C 3,2 km/h (1 Bft) 100,00 %
06.11.2015 15:24 13,2 C 79 % 1025,1 hPa 0,0 l/m 2,5 km/h (1 Bft) O 82 1 min 0,000 mm 0,0 UV-I 110 W/m 9,6 C 13,2 C 3,2 km/h (1 Bft) 100,00 %
06.11.2015 15:25 13,2 C 79 % 1025,1 hPa 0,0 l/m 2,3 km/h (1 Bft) O 82 1 min 0,000 mm 0,0 UV-I 107 W/m 9,6 C 13,2 C 4,8 km/h (1 Bft) 100,00 %
06.11.2015 15:26 13,2 C 80 % 1025,1 hPa 0,0 l/m 1,1 km/h (1 Bft) O 84 1 min 0,000 mm 0,0 UV-I 105 W/m 9,8 C 13,2 C 3,2 km/h (1 Bft) 95,65 %
06.11.2015 15:27 13,2 C 80 % 1025,1 hPa 0,0 l/m 1,0 km/h (0 Bft) O 84 1 min 0,000 mm 0,0 UV-I 104 W/m 9,8 C 13,2 C 3,2 km/h (1 Bft) 100,00 %
06.11.2015 15:28 13,2 C 79 % 1025,1 hPa 0,0 l/m 2,0 km/h (1 Bft) O 92 1 min 0,000 mm 0,0 UV-I 100 W/m 9,6 C 13,2 C 3,2 km/h (1 Bft) 96,15 %
06.11.2015 15:29 13,0 C 81 % 1025,1 hPa 0,0 l/m 2,1 km/h (1 Bft) O 92 1 min 0,000 mm 0,0 UV-I 98 W/m 9,8 C 13,0 C 3,2 km/h (1 Bft) 100,00 %
06.11.2015 15:30 12,9 C 81 % 1025,0 hPa 0,0 l/m 0,9 km/h (0 Bft) O 92 1 min 0,000 mm 0,0 UV-I 96 W/m 9,7 C 12,9 C 1,6 km/h (1 Bft) 100,00 %
06.11.2015 15:31 12,9 C 81 % 1025,0 hPa 0,0 l/m 0,6 km/h (0 Bft) O 92 1 min 0,000 mm 0,0 UV-I 93 W/m 9,7 C 12,9 C 1,6 km/h (1 Bft) 100,00 %
06.11.2015 15:32 12,9 C 81 % 1025,0 hPa 0,0 l/m 1,0 km/h (0 Bft) O 92 1 min 0,000 mm 0,0 UV-I 91 W/m 9,7 C 12,9 C 1,6 km/h (1 Bft) 100,00 %
06.11.2015 15:33 12,9 C 81 % 1025,0 hPa 0,0 l/m 1,1 km/h (1 Bft) O 94 1 min 0,000 mm 0,0 UV-I 89 W/m 9,7 C 12,9 C 1,6 km/h (1 Bft) 100,00 %
06.11.2015 15:34 12,9 C 83 % 1025,1 hPa 0,0 l/m 0,5 km/h (0 Bft) O 94 1 min 0,000 mm 0,0 UV-I 87 W/m 10,1 C 12,9 C 1,6 km/h (1 Bft) 100,00 %
06.11.2015 15:35 12,9 C 82 % 1025,0 hPa 0,0 l/m 0,2 km/h (0 Bft) O 94 1 min 0,000 mm 0,0 UV-I 85 W/m 9,9 C 12,9 C 1,6 km/h (1 Bft) 100,00 %
06.11.2015 15:36 12,9 C 83 % 1025,0 hPa 0,0 l/m 0,7 km/h (0 Bft) O 94 1 min 0,000 mm 0,0 UV-I 83 W/m 10,1 C 12,9 C 1,6 km/h (1 Bft) 100,00 %
06.11.2015 15:37 12,8 C 84 % 1025,0 hPa 0,0 l/m 1,7 km/h (1 Bft) O 94 1 min 0,000 mm 0,0 UV-I 81 W/m 10,2 C 12,8 C 3,2 km/h (1 Bft) 100,00 %
06.11.2015 15:38 12,8 C 84 % 1025,0 hPa 0,0 l/m 1,1 km/h (1 Bft) O 94 1 min 0,000 mm 0,0 UV-I 79 W/m 10,2 C 12,8 C 1,6 km/h (1 Bft) 100,00 %
06.11.2015 15:39 12,8 C 84 % 1025,0 hPa 0,0 l/m 0,9 km/h (0 Bft) O 94 1 min 0,000 mm 0,0 UV-I 77 W/m 10,2 C 12,8 C 1,6 km/h (1 Bft) 100,00 %
06.11.2015 15:40 12,8 C 84 % 1025,0 hPa 0,0 l/m 1,5 km/h (1 Bft) O 94 1 min 0,000 mm 0,0 UV-I 75 W/m 10,2 C 12,8 C 3,2 km/h (1 Bft) 100,00 %
06.11.2015 15:41 12,8 C 83 % 1025,0 hPa 0,0 l/m 1,1 km/h (1 Bft) O 94 0 min 0,000 mm 0,0 UV-I 72 W/m 10,0 C 12,8 C 1,6 km/h (1 Bft) 100,00 %
06.11.2015 15:42 12,8 C 83 % 1024,9 hPa 0,0 l/m 0,9 km/h (0 Bft) O 94 0 min 0,000 mm 0,0 UV-I 69 W/m 10,0 C 12,8 C 1,6 km/h (1 Bft) 100,00 %
06.11.2015 15:43 12,8 C 82 % 1025,0 hPa 0,0 l/m 0,8 km/h (0 Bft) O 94 0 min 0,000 mm 0,0 UV-I 69 W/m 9,8 C 12,8 C 1,6 km/h (1 Bft) 100,00 %
06.11.2015 15:44 12,8 C 82 % 1025,0 hPa 0,0 l/m 0,7 km/h (0 Bft) O 94 0 min 0,000 mm 0,0 UV-I 67 W/m 9,8 C 12,8 C 1,6 km/h (1 Bft) 100,00 %
06.11.2015 15:45 12,8 C 82 % 1025,0 hPa 0,0 l/m 0,4 km/h (0 Bft) O 94 0 min 0,000 mm 0,0 UV-I 64 W/m 9,8 C 12,8 C 1,6 km/h (1 Bft) 95,65 %
06.11.2015 15:46 12,8 C 82 % 1025,0 hPa 0,0 l/m 0,1 km/h (0 Bft) O 94 0 min 0,000 mm 0,0 UV-I 63 W/m 9,8 C 12,8 C 1,6 km/h (1 Bft) 100,00 %
06.11.2015 15:47 12,8 C 81 % 1025,0 hPa 0,0 l/m 0,0 km/h (0 Bft) O 94 0 min 0,000 mm 0,0 UV-I 61 W/m 9,6 C 12,8 C 0,0 km/h (0 Bft) 100,00 %
06.11.2015 15:48 12,8 C 81 % 1025,0 hPa 0,0 l/m 0,0 km/h (0 Bft) O 94 0 min 0,000 mm 0,0 UV-I 58 W/m 9,6 C 12,8 C 0,0 km/h (0 Bft) 100,00 %
06.11.2015 15:49 12,9 C 79 % 1025,0 hPa 0,0 l/m 0,1 km/h (0 Bft) O 94 0 min 0,000 mm 0,0 UV-I 56 W/m 9,3 C 12,9 C 1,6 km/h (1 Bft) 100,00 %
06.11.2015 15:50 12,9 C 79 % 1025,0 hPa 0,0 l/m 0,0 km/h (0 Bft) O 94 0 min 0,000 mm 0,0 UV-I 54 W/m 9,3 C 12,9 C 0,0 km/h (0 Bft) 100,00 %
06.11.2015 15:51 13,0 C 79 % 1025,0 hPa 0,0 l/m 0,0 km/h (0 Bft) O 94 0 min 0,000 mm 0,0 UV-I 53 W/m 9,4 C 13,0 C 0,0 km/h (0 Bft) 100,00 %
06.11.2015 15:53 13,1 C 79 % 1025,0 hPa 0,0 l/m 0,1 km/h (0 Bft) O 94 0 min 0,000 mm 0,0 UV-I 49 W/m 9,5 C 13,1 C 1,6 km/h (1 Bft) 100,00 %
06.11.2015 15:54 13,0 C 79 % 1025,0 hPa 0,0 l/m 0,0 km/h (0 Bft) O 94 0 min 0,000 mm 0,0 UV-I 49 W/m 9,4 C 13,0 C 0,0 km/h (0 Bft) 95,83 %
06.11.2015 15:55 12,9 C 80 % 1025,0 hPa 0,0 l/m 0,0 km/h (0 Bft) O 94 0 min 0,000 mm 0,0 UV-I 47 W/m 9,5 C 12,9 C 0,0 km/h (0 Bft) 100,00 %
06.11.2015 15:56 12,8 C 81 % 1025,0 hPa 0,0 l/m 0,0 km/h (0 Bft) O 94 0 min 0,000 mm 0,0 UV-I 46 W/m 9,6 C 12,8 C 0,0 km/h (0 Bft) 91,67 %
06.11.2015 15:57 12,7 C 81 % 1024,9 hPa 0,0 l/m 1,7 km/h (1 Bft) O 94 0 min 0,000 mm 0,0 UV-I 43 W/m 9,5 C 12,7 C 3,2 km/h (1 Bft) 100,00 %
06.11.2015 15:58 12,6 C 83 % 1025,0 hPa 0,0 l/m 1,6 km/h (1 Bft) O 94 0 min 0,000 mm 0,0 UV-I 41 W/m 9,8 C 12,6 C 3,2 km/h (1 Bft) 100,00 %
06.11.2015 15:59 12,4 C 86 % 1025,0 hPa 0,0 l/m 1,4 km/h (1 Bft) O 94 0 min 0,000 mm 0,0 UV-I 39 W/m 10,1 C 12,4 C 3,2 km/h (1 Bft) 100,00 %
06.11.2015 16:00 12,2 C 86 % 1025,0 hPa 0,0 l/m 2,0 km/h (1 Bft) O 94 0 min 0,051 mm 0,0 UV-I 39 W/m 9,9 C 12,2 C 3,2 km/h (1 Bft) 100,00 %
06.11.2015 16:02 11,9 C 84 % 1025,0 hPa 0,0 l/m 0,7 km/h (0 Bft) O 94 0 min 0,000 mm 0,0 UV-I 36 W/m 9,3 C 11,9 C 1,6 km/h (1 Bft) 100,00 %
06.11.2015 16:03 11,9 C 85 % 1025,1 hPa 0,0 l/m 0,0 km/h (0 Bft) O 94 0 min 0,000 mm 0,0 UV-I 33 W/m 9,5 C 11,9 C 0,0 km/h (0 Bft) 100,00 %
06.11.2015 16:04 11,9 C 85 % 1025,0 hPa 0,0 l/m 0,0 km/h (0 Bft) O 94 0 min 0,000 mm 0,0 UV-I 31 W/m 9,5 C 11,9 C 0,0 km/h (0 Bft) 100,00 %
06.11.2015 16:05 12,1 C 84 % 1025,1 hPa 0,0 l/m 0,0 km/h (0 Bft) O 94 0 min 0,000 mm 0,0 UV-I 30 W/m 9,5 C 12,1 C 0,0 km/h (0 Bft) 95,65 %
06.11.2015 16:06 12,2 C 84 % 1025,0 hPa 0,0 l/m 0,9 km/h (0 Bft) O-NO 62 0 min 0,000 mm 0,0 UV-I 28 W/m 9,6 C 12,2 C 3,2 km/h (1 Bft) 100,00 %
06.11.2015 16:07 12,3 C 83 % 1025,1 hPa 0,0 l/m 0,4 km/h (0 Bft) O-NO 62 0 min 0,000 mm 0,0 UV-I 26 W/m 9,5 C 12,3 C 1,6 km/h (1 Bft) 100,00 %
06.11.2015 16:08 12,4 C 83 % 1025,1 hPa 0,0 l/m 2,3 km/h (1 Bft) O 95 0 min 0,000 mm 0,0 UV-I 26 W/m 9,6 C 12,4 C 3,2 km/h (1 Bft) 100,00 %
06.11.2015 16:09 12,5 C 82 % 1025,0 hPa 0,0 l/m 1,8 km/h (1 Bft) O 95 0 min 0,000 mm 0,0 UV-I 24 W/m 9,5 C 12,5 C 3,2 km/h (1 Bft) 100,00 %
06.11.2015 16:10 12,4 C 83 % 1025,1 hPa 0,0 l/m 1,3 km/h (1 Bft) O 95 0 min 0,000 mm 0,0 UV-I 23 W/m 9,6 C 12,4 C 1,6 km/h (1 Bft) 100,00 %
06.11.2015 16:11 12,3 C 83 % 1025,0 hPa 0,0 l/m 0,3 km/h (0 Bft) O 95 0 min 0,000 mm 0,0 UV-I 22 W/m 9,5 C 12,3 C 1,6 km/h (1 Bft) 100,00 %
06.11.2015 16:12 12,3 C 83 % 1025,1 hPa 0,0 l/m 0,0 km/h (0 Bft) O 95 0 min 0,000 mm 0,0 UV-I 21 W/m 9,5 C 12,3 C 0,0 km/h (0 Bft) 100,00 %
06.11.2015 16:13 12,2 C 83 % 1025,1 hPa 0,0 l/m 0,0 km/h (0 Bft) O 95 0 min 0,000 mm 0,0 UV-I 19 W/m 9,4 C 12,2 C 0,0 km/h (0 Bft) 100,00 %
06.11.2015 16:14 12,2 C 84 % 1025,1 hPa 0,0 l/m 0,0 km/h (0 Bft) O 95 0 min 0,000 mm 0,0 UV-I 19 W/m 9,6 C 12,2 C 0,0 km/h (0 Bft) 100,00 %
06.11.2015 16:15 12,2 C 84 % 1025,1 hPa 0,0 l/m 0,1 km/h (0 Bft) O 95 0 min 0,000 mm 0,0 UV-I 18 W/m 9,6 C 12,2 C 1,6 km/h (1 Bft) 100,00 %
06.11.2015 16:16 12,2 C 84 % 1025,0 hPa 0,0 l/m 0,1 km/h (0 Bft) O 95 0 min 0,000 mm 0,0 UV-I 18 W/m 9,6 C 12,2 C 1,6 km/h (1 Bft) 100,00 %
06.11.2015 16:17 12,2 C 84 % 1025,0 hPa 0,0 l/m 0,0 km/h (0 Bft) O 95 0 min 0,000 mm 0,0 UV-I 17 W/m 9,6 C 12,2 C 0,0 km/h (0 Bft) 100,00 %
06.11.2015 16:18 12,2 C 84 % 1025,1 hPa 0,0 l/m 0,0 km/h (0 Bft) O 95 0 min 0,000 mm 0,0 UV-I 16 W/m 9,6 C 12,2 C 0,0 km/h (0 Bft) 100,00 %
06.11.2015 16:19 12,1 C 84 % 1025,1 hPa 0,0 l/m 0,1 km/h (0 Bft) O 95 0 min 0,000 mm 0,0 UV-I 16 W/m 9,5 C 12,1 C 1,6 km/h (1 Bft) 100,00 %
06.11.2015 16:20 12,1 C 84 % 1025,1 hPa 0,0 l/m 0,0 km/h (0 Bft) O 95 0 min 0,000 mm 0,0 UV-I 14 W/m 9,5 C 12,1 C 0,0 km/h (0 Bft) 100,00 %
06.11.2015 16:21 12,1 C 84 % 1025,1 hPa 0,0 l/m 0,0 km/h (0 Bft) O 95 0 min 0,000 mm 0,0 UV-I 14 W/m 9,5 C 12,1 C 0,0 km/h (0 Bft) 100,00 %
06.11.2015 16:22 12,1 C 84 % 1025,1 hPa 0,0 l/m 0,8 km/h (0 Bft) O 95 0 min 0,000 mm 0,0 UV-I 14 W/m 9,5 C 12,1 C 1,6 km/h (1 Bft) 100,00 %
06.11.2015 16:23 12,0 C 84 % 1025,1 hPa 0,0 l/m 0,1 km/h (0 Bft) O 95 0 min 0,000 mm 0,0 UV-I 13 W/m 9,4 C 12,0 C 1,6 km/h (1 Bft) 95,83 %
06.11.2015 16:24 11,9 C 84 % 1025,1 hPa 0,0 l/m 0,0 km/h (0 Bft) O 95 0 min 0,000 mm 0,0 UV-I 12 W/m 9,3 C 11,9 C 0,0 km/h (0 Bft) 95,65 %
06.11.2015 16:25 11,9 C 84 % 1025,1 hPa 0,0 l/m 0,0 km/h (0 Bft) O 95 1 min 0,000 mm 0,0 UV-I 12 W/m 9,3 C 11,9 C 0,0 km/h (0 Bft) 95,83 %
06.11.2015 16:26 11,9 C 84 % 1025,1 hPa 0,0 l/m 0,1 km/h (0 Bft) O 95 1 min 0,000 mm 0,0 UV-I 12 W/m 9,3 C 11,9 C 1,6 km/h (1 Bft) 100,00 %
06.11.2015 16:27 11,9 C 85 % 1025,1 hPa 0,0 l/m 0,1 km/h (0 Bft) O 95 1 min 0,000 mm 0,0 UV-I 11 W/m 9,5 C 11,9 C 1,6 km/h (1 Bft) 100,00 %
06.11.2015 16:28 11,9 C 85 % 1025,1 hPa 0,0 l/m 0,0 km/h (0 Bft) O 95 0 min 0,000 mm 0,0 UV-I 10 W/m 9,5 C 11,9 C 0,0 km/h (0 Bft) 100,00 %
06.11.2015 16:29 11,8 C 85 % 1025,1 hPa 0,0 l/m 0,0 km/h (0 Bft) O 95 0 min 0,000 mm 0,0 UV-I 9 W/m 9,4 C 11,8 C 0,0 km/h (0 Bft) 100,00 %
06.11.2015 16:30 11,8 C 85 % 1025,1 hPa 0,0 l/m 0,0 km/h (0 Bft) O 95 0 min 0,000 mm 0,0 UV-I 7 W/m 9,4 C 11,8 C 0,0 km/h (0 Bft) 100,00 %
06.11.2015 16:31 11,8 C 85 % 1025,1 hPa 0,0 l/m 0,0 km/h (0 Bft) O 95 0 min 0,000 mm 0,0 UV-I 7 W/m 9,4 C 11,8 C 0,0 km/h (0 Bft) 95,65 %
06.11.2015 16:32 11,7 C 85 % 1025,1 hPa 0,0 l/m 0,3 km/h (0 Bft) O 94 0 min 0,000 mm 0,0 UV-I 7 W/m 9,3 C 11,7 C 1,6 km/h (1 Bft) 100,00 %
06.11.2015 16:33 11,6 C 85 % 1025,1 hPa 0,0 l/m 0,1 km/h (0 Bft) O 94 0 min 0,000 mm 0,0 UV-I 7 W/m 9,2 C 11,6 C 1,6 km/h (1 Bft) 100,00 %
06.11.2015 16:34 11,6 C 85 % 1025,1 hPa 0,0 l/m 0,3 km/h (0 Bft) O 94 0 min 0,000 mm 0,0 UV-I 6 W/m 9,2 C 11,6 C 1,6 km/h (1 Bft) 100,00 %
06.11.2015 16:35 11,5 C 85 % 1025,1 hPa 0,0 l/m 0,3 km/h (0 Bft) O 94 0 min 0,000 mm 0,0 UV-I 5 W/m 9,1 C 11,5 C 1,6 km/h (1 Bft) 100,00 %
06.11.2015 16:36 11,4 C 85 % 1025,1 hPa 0,0 l/m 0,4 km/h (0 Bft) O 90 0 min 0,000 mm 0,0 UV-I 5 W/m 9,0 C 11,4 C 1,6 km/h (1 Bft) 95,83 %
06.11.2015 16:37 11,5 C 85 % 1025,1 hPa 0,0 l/m 0,0 km/h (0 Bft) O 81 0 min 0,000 mm 0,0 UV-I 5 W/m 9,1 C 11,5 C 0,0 km/h (0 Bft) 100,00 %
06.11.2015 16:38 11,5 C 85 % 1025,1 hPa 0,0 l/m 0,0 km/h (0 Bft) O 81 0 min 0,000 mm 0,0 UV-I 5 W/m 9,1 C 11,5 C 0,0 km/h (0 Bft) 100,00 %
06.11.2015 16:39 11,4 C 86 % 1025,1 hPa 0,0 l/m 0,0 km/h (0 Bft) O 81 0 min 0,000 mm 0,0 UV-I 3 W/m 9,1 C 11,4 C 0,0 km/h (0 Bft) 100,00 %
06.11.2015 16:40 11,4 C 86 % 1025,1 hPa 0,0 l/m 0,1 km/h (0 Bft) O 81 0 min 0,000 mm 0,0 UV-I 0 W/m 9,1 C 11,4 C 1,6 km/h (1 Bft) 96,15 %
06.11.2015 16:41 11,4 C 86 % 1025,1 hPa 0,0 l/m 0,3 km/h (0 Bft) O 81 0 min 0,000 mm 0,0 UV-I 0 W/m 9,1 C 11,4 C 1,6 km/h (1 Bft) 100,00 %
06.11.2015 16:42 11,3 C 86 % 1025,1 hPa 0,0 l/m 0,5 km/h (0 Bft) O 81 0 min 0,000 mm 0,0 UV-I 0 W/m 9,0 C 11,3 C 1,6 km/h (1 Bft) 100,00 %
06.11.2015 16:43 11,2 C 86 % 1025,1 hPa 0,0 l/m 0,1 km/h (0 Bft) O 80 0 min 0,000 mm 0,0 UV-I 0 W/m 8,9 C 11,2 C 1,6 km/h (1 Bft) 100,00 %
06.11.2015 16:44 11,1 C 86 % 1025,1 hPa 0,0 l/m 0,0 km/h (0 Bft) O 79 0 min 0,000 mm 0,0 UV-I 0 W/m 8,8 C 11,1 C 0,0 km/h (0 Bft) 100,00 %
06.11.2015 16:45 10,9 C 87 % 1025,1 hPa 0,0 l/m 0,1 km/h (0 Bft) O 79 0 min 0,000 mm 0,0 UV-I 0 W/m 8,8 C 10,9 C 1,6 km/h (1 Bft) 100,00 %
06.11.2015 16:46 10,8 C 87 % 1025,1 hPa 0,0 l/m 0,2 km/h (0 Bft) O-NO 78 0 min 0,000 mm 0,0 UV-I 0 W/m 8,7 C 10,8 C 1,6 km/h (1 Bft) 97,37 %
06.11.2015 16:47 10,8 C 87 % 1025,1 hPa 0,0 l/m 0,2 km/h (0 Bft) O-NO 78 0 min 0,000 mm 0,0 UV-I 0 W/m 8,7 C 10,8 C 1,6 km/h (1 Bft) 100,00 %
06.11.2015 16:48 10,7 C 87 % 1025,2 hPa 0,0 l/m 0,3 km/h (0 Bft) O-NO 78 0 min 0,000 mm 0,0 UV-I 0 W/m 8,6 C 10,7 C 1,6 km/h (1 Bft) 100,00 %
06.11.2015 16:49 10,6 C 87 % 1025,2 hPa 0,0 l/m 0,0 km/h (0 Bft) O-NO 78 0 min 0,000 mm 0,0 UV-I 0 W/m 8,5 C 10,6 C 0,0 km/h (0 Bft) 100,00 %
06.11.2015 16:50 10,5 C 88 % 1025,2 hPa 0,0 l/m 0,0 km/h (0 Bft) O-NO 78 0 min 0,000 mm 0,0 UV-I 0 W/m 8,6 C 10,5 C 0,0 km/h (0 Bft) 95,65 %
06.11.2015 16:51 10,4 C 88 % 1025,2 hPa 0,0 l/m 0,1 km/h (0 Bft) O-NO 78 0 min 0,000 mm 0,0 UV-I 0 W/m 8,5 C 10,4 C 1,6 km/h (1 Bft) 100,00 %
06.11.2015 16:52 10,4 C 89 % 1025,2 hPa 0,0 l/m 0,3 km/h (0 Bft) O-NO 78 0 min 0,000 mm 0,0 UV-I 0 W/m 8,7 C 10,4 C 1,6 km/h (1 Bft) 100,00 %
06.11.2015 16:53 10,4 C 89 % 1025,2 hPa 0,0 l/m 0,6 km/h (0 Bft) O-NO 78 0 min 0,000 mm 0,0 UV-I 0 W/m 8,7 C 10,4 C 1,6 km/h (1 Bft) 95,83 %
06.11.2015 16:54 10,4 C 89 % 1025,3 hPa 0,0 l/m 0,3 km/h (0 Bft) O-NO 78 0 min 0,000 mm 0,0 UV-I 0 W/m 8,7 C 10,4 C 1,6 km/h (1 Bft) 100,00 %
06.11.2015 16:55 10,4 C 88 % 1025,3 hPa 0,0 l/m 0,0 km/h (0 Bft) O-NO 78 0 min 0,000 mm 0,0 UV-I 0 W/m 8,5 C 10,4 C 0,0 km/h (0 Bft) 100,00 %
06.11.2015 16:56 10,4 C 88 % 1025,2 hPa 0,0 l/m 0,0 km/h (0 Bft) O-NO 78 0 min 0,000 mm 0,0 UV-I 0 W/m 8,5 C 10,4 C 0,0 km/h (0 Bft) 100,00 %
06.11.2015 16:57 10,3 C 87 % 1025,3 hPa 0,0 l/m 0,5 km/h (0 Bft) O-NO 78 0 min 0,000 mm 0,0 UV-I 0 W/m 8,2 C 10,3 C 1,6 km/h (1 Bft) 100,00 %
06.11.2015 16:58 10,2 C 87 % 1025,3 hPa 0,0 l/m 0,3 km/h (0 Bft) O-NO 78 0 min 0,000 mm 0,0 UV-I 0 W/m 8,1 C 10,2 C 1,6 km/h (1 Bft) 100,00 %
06.11.2015 16:59 10,0 C 88 % 1025,3 hPa 0,0 l/m 0,4 km/h (0 Bft) O-NO 78 0 min 0,000 mm 0,0 UV-I 0 W/m 8,1 C 10,0 C 1,6 km/h (1 Bft) 100,00 %
06.11.2015 17:00 9,8 C 89 % 1025,3 hPa 0,0 l/m 1,2 km/h (1 Bft) O-NO 78 0 min 0,000 mm 0,0 UV-I 0 W/m 8,1 C 9,8 C 1,6 km/h (1 Bft) 100,00 %
06.11.2015 17:02 9,7 C 90 % 1025,3 hPa 0,0 l/m 0,9 km/h (0 Bft) O-NO 78 0 min 0,000 mm 0,0 UV-I 0 W/m 8,1 C 9,7 C 1,6 km/h (1 Bft) 100,00 %
06.11.2015 17:03 9,7 C 91 % 1025,3 hPa 0,0 l/m 0,0 km/h (0 Bft) O-NO 78 0 min 0,000 mm 0,0 UV-I 0 W/m 8,3 C 9,7 C 0,0 km/h (0 Bft) 95,83 %
06.11.2015 17:04 9,7 C 90 % 1025,3 hPa 0,0 l/m 0,0 km/h (0 Bft) O-NO 78 0 min 0,000 mm 0,0 UV-I 0 W/m 8,1 C 9,7 C 0,0 km/h (0 Bft) 100,00 %
06.11.2015 17:05 9,7 C 90 % 1025,4 hPa 0,0 l/m 0,0 km/h (0 Bft) O-NO 78 0 min 0,000 mm 0,0 UV-I 0 W/m 8,1 C 9,7 C 0,0 km/h (0 Bft) 100,00 %
06.11.2015 17:06 9,8 C 90 % 1025,4 hPa 0,0 l/m 0,1 km/h (0 Bft) O-NO 78 0 min 0,000 mm 0,0 UV-I 0 W/m 8,2 C 9,8 C 1,6 km/h (1 Bft) 100,00 %
06.11.2015 17:07 9,8 C 90 % 1025,4 hPa 0,0 l/m 0,0 km/h (0 Bft) O-NO 78 0 min 0,000 mm 0,0 UV-I 0 W/m 8,2 C 9,8 C 0,0 km/h (0 Bft) 96,15 %
06.11.2015 17:08 9,7 C 90 % 1025,4 hPa 0,0 l/m 0,0 km/h (0 Bft) O-NO 78 0 min 0,000 mm 0,0 UV-I 0 W/m 8,1 C 9,7 C 0,0 km/h (0 Bft) 100,00 %
06.11.2015 17:09 9,7 C 90 % 1025,5 hPa 0,0 l/m 0,1 km/h (0 Bft) O-NO 78 0 min 0,000 mm 0,0 UV-I 0 W/m 8,1 C 9,7 C 1,6 km/h (1 Bft) 100,00 %
06.11.2015 17:10 9,7 C 90 % 1025,5 hPa 0,0 l/m 0,1 km/h (0 Bft) O-NO 78 0 min 0,000 mm 0,0 UV-I 0 W/m 8,1 C 9,7 C 1,6 km/h (1 Bft) 100,00 %
06.11.2015 17:11 9,6 C 90 % 1025,4 hPa 0,0 l/m 0,0 km/h (0 Bft) O-NO 78 0 min 0,000 mm 0,0 UV-I 0 W/m 8,0 C 9,6 C 0,0 km/h (0 Bft) 100,00 %
06.11.2015 17:12 9,6 C 90 % 1025,5 hPa 0,0 l/m 0,0 km/h (0 Bft) O-NO 78 0 min 0,000 mm 0,0 UV-I 0 W/m 8,0 C 9,6 C 0,0 km/h (0 Bft) 100,00 %
06.11.2015 17:13 9,5 C 91 % 1025,4 hPa 0,0 l/m 0,0 km/h (0 Bft) O-NO 78 0 min 0,000 mm 0,0 UV-I 0 W/m 8,1 C 9,5 C 0,0 km/h (0 Bft) 100,00 %
06.11.2015 17:14 9,4 C 90 % 1025,4 hPa 0,0 l/m 0,8 km/h (0 Bft) O-NO 78 0 min 0,000 mm 0,0 UV-I 0 W/m 7,8 C 9,4 C 1,6 km/h (1 Bft) 100,00 %
06.11.2015 17:15 9,4 C 91 % 1025,4 hPa 0,0 l/m 1,0 km/h (0 Bft) O-NO 78 0 min 0,000 mm 0,0 UV-I 0 W/m 8,0 C 9,4 C 3,2 km/h (1 Bft) 96,15 %
06.11.2015 17:16 9,4 C 91 % 1025,5 hPa 0,0 l/m 1,4 km/h (1 Bft) O 82 0 min 0,000 mm 0,0 UV-I 0 W/m 8,0 C 9,4 C 3,2 km/h (1 Bft) 100,00 %
06.11.2015 17:17 9,4 C 91 % 1025,5 hPa 0,0 l/m 1,1 km/h (1 Bft) O 84 0 min 0,000 mm 0,0 UV-I 0 W/m 8,0 C 9,4 C 1,6 km/h (1 Bft) 100,00 %
06.11.2015 17:18 9,4 C 91 % 1025,5 hPa 0,0 l/m 0,1 km/h (0 Bft) O 84 0 min 0,000 mm 0,0 UV-I 0 W/m 8,0 C 9,4 C 1,6 km/h (1 Bft) 95,83 %
06.11.2015 17:19 9,4 C 91 % 1025,5 hPa 0,0 l/m 0,5 km/h (0 Bft) O 80 0 min 0,000 mm 0,0 UV-I 0 W/m 8,0 C 9,4 C 3,2 km/h (1 Bft) 99,36 %
06.11.2015 17:20 9,3 C 91 % 1025,5 hPa 0,0 l/m 0,5 km/h (0 Bft) O 80 0 min 0,000 mm 0,0 UV-I 0 W/m 7,9 C 9,3 C 1,6 km/h (1 Bft) 100,00 %
06.11.2015 17:21 9,3 C 91 % 1025,5 hPa 0,0 l/m 0,8 km/h (0 Bft) O 80 0 min 0,000 mm 0,0 UV-I 0 W/m 7,9 C 9,3 C 1,6 km/h (1 Bft) 100,00 %
06.11.2015 17:22 9,2 C 91 % 1025,5 hPa 0,0 l/m 0,6 km/h (0 Bft) O-NO 76 0 min 0,000 mm 0,0 UV-I 0 W/m 7,8 C 9,2 C 1,6 km/h (1 Bft) 100,00 %
06.11.2015 17:23 9,2 C 91 % 1025,6 hPa 0,0 l/m 0,2 km/h (0 Bft) O-NO 77 0 min 0,000 mm 0,0 UV-I 0 W/m 7,8 C 9,2 C 1,6 km/h (1 Bft) 100,00 %
06.11.2015 17:24 9,1 C 92 % 1025,5 hPa 0,0 l/m 0,3 km/h (0 Bft) O-NO 77 0 min 0,000 mm 0,0 UV-I 0 W/m 7,9 C 9,1 C 1,6 km/h (1 Bft) 100,00 %
06.11.2015 17:25 9,1 C 92 % 1025,6 hPa 0,0 l/m 0,0 km/h (0 Bft) O-NO 77 0 min 0,000 mm 0,0 UV-I 0 W/m 7,9 C 9,1 C 0,0 km/h (0 Bft) 100,00 %
06.11.2015 17:26 9,1 C 92 % 1025,6 hPa 0,0 l/m 0,0 km/h (0 Bft) O-NO 77 0 min 0,000 mm 0,0 UV-I 0 W/m 7,9 C 9,1 C 0,0 km/h (0 Bft) 100,00 %
06.11.2015 17:27 9,1 C 92 % 1025,6 hPa 0,0 l/m 0,0 km/h (0 Bft) O-NO 77 0 min 0,000 mm 0,0 UV-I 0 W/m 7,9 C 9,1 C 0,0 km/h (0 Bft) 100,00 %
06.11.2015 17:28 9,1 C 92 % 1025,6 hPa 0,0 l/m 0,1 km/h (0 Bft) O-NO 77 0 min 0,000 mm 0,0 UV-I 0 W/m 7,9 C 9,1 C 1,6 km/h (1 Bft) 100,00 %
06.11.2015 17:29 9,1 C 92 % 1025,6 hPa 0,0 l/m 0,0 km/h (0 Bft) O-NO 77 0 min 0,000 mm 0,0 UV-I 0 W/m 7,9 C 9,1 C 0,0 km/h (0 Bft) 100,00 %
06.11.2015 17:30 9,0 C 92 % 1025,6 hPa 0,0 l/m 0,0 km/h (0 Bft) O-NO 77 0 min 0,000 mm 0,0 UV-I 0 W/m 7,8 C 9,0 C 0,0 km/h (0 Bft) 95,65 %
06.11.2015 17:31 9,0 C 92 % 1025,5 hPa 0,0 l/m 0,3 km/h (0 Bft) O-NO 77 0 min 0,000 mm 0,0 UV-I 0 W/m 7,8 C 9,0 C 1,6 km/h (1 Bft) 100,00 %
06.11.2015 17:32 9,0 C 92 % 1025,6 hPa 0,0 l/m 1,5 km/h (1 Bft) O-NO 77 0 min 0,000 mm 0,0 UV-I 0 W/m 7,8 C 9,0 C 3,2 km/h (1 Bft) 100,00 %
06.11.2015 17:33 9,1 C 93 % 1025,6 hPa 0,0 l/m 1,9 km/h (1 Bft) O-NO 77 0 min 0,000 mm 0,0 UV-I 0 W/m 8,0 C 9,1 C 3,2 km/h (1 Bft) 95,83 %
06.11.2015 17:34 9,1 C 93 % 1025,6 hPa 0,0 l/m 1,7 km/h (1 Bft) O-NO 77 0 min 0,000 mm 0,0 UV-I 0 W/m 8,0 C 9,1 C 3,2 km/h (1 Bft) 100,00 %
06.11.2015 17:35 9,1 C 92 % 1025,6 hPa 0,0 l/m 1,5 km/h (1 Bft) O-NO 77 0 min 0,000 mm 0,0 UV-I 0 W/m 7,9 C 9,1 C 3,2 km/h (1 Bft) 100,00 %
06.11.2015 17:36 9,1 C 92 % 1025,6 hPa 0,0 l/m 0,9 km/h (0 Bft) O-NO 77 0 min 0,000 mm 0,0 UV-I 0 W/m 7,9 C 9,1 C 1,6 km/h (1 Bft) 100,00 %
06.11.2015 17:37 9,1 C 92 % 1025,6 hPa 0,0 l/m 0,5 km/h (0 Bft) O-NO 77 0 min 0,000 mm 0,0 UV-I 0 W/m 7,9 C 9,1 C 1,6 km/h (1 Bft) 100,00 %
06.11.2015 17:38 9,1 C 92 % 1025,6 hPa 0,0 l/m 0,0 km/h (0 Bft) O-NO 77 0 min 0,000 mm 0,0 UV-I 0 W/m 7,9 C 9,1 C 0,0 km/h (0 Bft) 100,00 %
06.11.2015 17:39 9,1 C 92 % 1025,6 hPa 0,0 l/m 0,0 km/h (0 Bft) O-NO 77 0 min 0,000 mm 0,0 UV-I 0 W/m 7,9 C 9,1 C 0,0 km/h (0 Bft) 100,00 %
06.11.2015 17:40 9,0 C 92 % 1025,6 hPa 0,0 l/m 0,0 km/h (0 Bft) O-NO 77 0 min 0,000 mm 0,0 UV-I 0 W/m 7,8 C 9,0 C 0,0 km/h (0 Bft) 100,00 %
06.11.2015 17:41 8,9 C 92 % 1025,6 hPa 0,0 l/m 0,0 km/h (0 Bft) O-NO 77 0 min 0,000 mm 0,0 UV-I 0 W/m 7,7 C 8,9 C 0,0 km/h (0 Bft) 100,00 %
06.11.2015 17:42 8,9 C 92 % 1025,7 hPa 0,0 l/m 0,0 km/h (0 Bft) O-NO 77 0 min 0,000 mm 0,0 UV-I 0 W/m 7,7 C 8,9 C 0,0 km/h (0 Bft) 100,00 %
06.11.2015 17:43 8,9 C 92 % 1025,7 hPa 0,0 l/m 0,0 km/h (0 Bft) O-NO 77 0 min 0,000 mm 0,0 UV-I 0 W/m 7,7 C 8,9 C 0,0 km/h (0 Bft) 95,65 %
06.11.2015 17:44 8,8 C 92 % 1025,7 hPa 0,0 l/m 0,0 km/h (0 Bft) O-NO 77 0 min 0,000 mm 0,0 UV-I 0 W/m 7,6 C 8,8 C 0,0 km/h (0 Bft) 100,00 %
06.11.2015 17:45 8,8 C 93 % 1025,7 hPa 0,0 l/m 0,1 km/h (0 Bft) O-NO 77 0 min 0,000 mm 0,0 UV-I 0 W/m 7,7 C 8,8 C 1,6 km/h (1 Bft) 96,43 %
06.11.2015 17:46 8,9 C 93 % 1025,7 hPa 0,0 l/m 0,0 km/h (0 Bft) O-NO 77 0 min 0,000 mm 0,0 UV-I 0 W/m 7,8 C 8,9 C 0,0 km/h (0 Bft) 100,00 %
06.11.2015 17:47 8,8 C 93 % 1025,8 hPa 0,0 l/m 0,0 km/h (0 Bft) O-NO 77 0 min 0,000 mm 0,0 UV-I 0 W/m 7,7 C 8,8 C 0,0 km/h (0 Bft) 100,00 %
06.11.2015 17:48 8,8 C 92 % 1025,8 hPa 0,0 l/m 0,0 km/h (0 Bft) O-NO 77 0 min 0,000 mm 0,0 UV-I 0 W/m 7,6 C 8,8 C 0,0 km/h (0 Bft) 100,00 %
06.11.2015 17:49 8,8 C 93 % 1025,8 hPa 0,0 l/m 0,0 km/h (0 Bft) O-NO 77 0 min 0,000 mm 0,0 UV-I 0 W/m 7,7 C 8,8 C 0,0 km/h (0 Bft) 100,00 %
06.11.2015 17:50 8,8 C 92 % 1025,8 hPa 0,0 l/m 0,0 km/h (0 Bft) O-NO 77 0 min 0,000 mm 0,0 UV-I 0 W/m 7,6 C 8,8 C 0,0 km/h (0 Bft) 100,00 %
06.11.2015 17:51 8,7 C 93 % 1025,8 hPa 0,0 l/m 0,0 km/h (0 Bft) O-NO 77 0 min 0,000 mm 0,0 UV-I 0 W/m 7,6 C 8,7 C 0,0 km/h (0 Bft) 95,65 %
06.11.2015 17:52 8,7 C 93 % 1025,9 hPa 0,0 l/m 0,0 km/h (0 Bft) O-NO 77 0 min 0,000 mm 0,0 UV-I 0 W/m 7,6 C 8,7 C 0,0 km/h (0 Bft) 100,00 %
06.11.2015 17:53 8,7 C 93 % 1025,9 hPa 0,0 l/m 0,0 km/h (0 Bft) O-NO 77 0 min 0,000 mm 0,0 UV-I 0 W/m 7,6 C 8,7 C 0,0 km/h (0 Bft) 100,00 %
06.11.2015 17:54 8,7 C 93 % 1025,9 hPa 0,0 l/m 0,0 km/h (0 Bft) O-NO 77 0 min 0,000 mm 0,0 UV-I 0 W/m 7,6 C 8,7 C 0,0 km/h (0 Bft) 100,00 %
06.11.2015 17:55 8,6 C 93 % 1025,9 hPa 0,0 l/m 0,2 km/h (0 Bft) O-NO 77 0 min 0,000 mm 0,0 UV-I 0 W/m 7,5 C 8,6 C 1,6 km/h (1 Bft) 100,00 %
06.11.2015 17:56 8,6 C 93 % 1026,0 hPa 0,0 l/m 0,7 km/h (0 Bft) O-NO 77 0 min 0,000 mm 0,0 UV-I 0 W/m 7,5 C 8,6 C 1,6 km/h (1 Bft) 100,00 %
06.11.2015 17:57 8,6 C 93 % 1026,0 hPa 0,0 l/m 0,8 km/h (0 Bft) O-NO 77 0 min 0,000 mm 0,0 UV-I 0 W/m 7,5 C 8,6 C 1,6 km/h (1 Bft) 100,00 %
06.11.2015 17:58 8,6 C 93 % 1026,0 hPa 0,0 l/m 0,7 km/h (0 Bft) O-NO 77 0 min 0,000 mm 0,0 UV-I 0 W/m 7,5 C 8,6 C 1,6 km/h (1 Bft) 100,00 %
06.11.2015 17:59 8,6 C 93 % 1026,1 hPa 0,0 l/m 0,5 km/h (0 Bft) O-NO 77 0 min 0,000 mm 0,0 UV-I 0 W/m 7,5 C 8,6 C 1,6 km/h (1 Bft) 100,00 %
06.11.2015 18:00 8,5 C 93 % 1026,1 hPa 0,0 l/m 0,0 km/h (0 Bft) O-NO 77 0 min 0,000 mm 0,0 UV-I 0 W/m 7,4 C 8,5 C 0,0 km/h (0 Bft) 100,00 %
06.11.2015 18:01 8,4 C 93 % 1026,1 hPa 0,0 l/m 0,0 km/h (0 Bft) O-NO 77 0 min 0,000 mm 0,0 UV-I 0 W/m 7,3 C 8,4 C 0,0 km/h (0 Bft) 100,00 %
06.11.2015 18:02 8,4 C 93 % 1026,1 hPa 0,0 l/m 0,0 km/h (0 Bft) O-NO 77 0 min 0,000 mm 0,0 UV-I 0 W/m 7,3 C 8,4 C 0,0 km/h (0 Bft) 100,00 %
06.11.2015 18:03 8,4 C 93 % 1026,1 hPa 0,0 l/m 0,0 km/h (0 Bft) O-NO 77 0 min 0,000 mm 0,0 UV-I 0 W/m 7,3 C 8,4 C 0,0 km/h (0 Bft) 100,00 %
06.11.2015 18:04 8,3 C 94 % 1026,1 hPa 0,0 l/m 0,0 km/h (0 Bft) O-NO 77 0 min 0,000 mm 0,0 UV-I 0 W/m 7,4 C 8,3 C 0,0 km/h (0 Bft) 100,00 %
06.11.2015 18:05 8,4 C 94 % 1026,1 hPa 0,0 l/m 0,0 km/h (0 Bft) O-NO 77 0 min 0,000 mm 0,0 UV-I 0 W/m 7,5 C 8,4 C 0,0 km/h (0 Bft) 100,00 %
06.11.2015 18:06 8,4 C 94 % 1026,1 hPa 0,0 l/m 0,0 km/h (0 Bft) O-NO 77 0 min 0,000 mm 0,0 UV-I 0 W/m 7,5 C 8,4 C 0,0 km/h (0 Bft) 100,00 %
06.11.2015 18:07 8,4 C 94 % 1026,1 hPa 0,0 l/m 0,0 km/h (0 Bft) O-NO 77 0 min 0,000 mm 0,0 UV-I 0 W/m 7,5 C 8,4 C 0,0 km/h (0 Bft) 100,00 %
06.11.2015 18:08 8,4 C 94 % 1026,2 hPa 0,0 l/m 0,0 km/h (0 Bft) O-NO 77 0 min 0,000 mm 0,0 UV-I 0 W/m 7,5 C 8,4 C 0,0 km/h (0 Bft) 100,00 %
06.11.2015 18:09 8,4 C 94 % 1026,2 hPa 0,0 l/m 0,1 km/h (0 Bft) O-NO 77 0 min 0,000 mm 0,0 UV-I 0 W/m 7,5 C 8,4 C 1,6 km/h (1 Bft) 100,00 %
06.11.2015 18:10 8,4 C 94 % 1026,2 hPa 0,0 l/m 0,0 km/h (0 Bft) O-NO 77 0 min 0,000 mm 0,0 UV-I 0 W/m 7,5 C 8,4 C 0,0 km/h (0 Bft) 96,15 %
06.11.2015 18:11 8,4 C 94 % 1026,2 hPa 0,0 l/m 0,1 km/h (0 Bft) O-NO 77 0 min 0,000 mm 0,0 UV-I 0 W/m 7,5 C 8,4 C 1,6 km/h (1 Bft) 100,00 %
06.11.2015 18:12 8,3 C 93 % 1026,2 hPa 0,0 l/m 1,0 km/h (0 Bft) O-NO 77 0 min 0,000 mm 0,0 UV-I 0 W/m 7,2 C 8,3 C 1,6 km/h (1 Bft) 100,00 %
06.11.2015 18:13 8,2 C 93 % 1026,2 hPa 0,0 l/m 0,5 km/h (0 Bft) O-NO 77 0 min 0,000 mm 0,0 UV-I 0 W/m 7,1 C 8,2 C 1,6 km/h (1 Bft) 100,00 %
06.11.2015 18:14 8,1 C 93 % 1026,3 hPa 0,0 l/m 0,0 km/h (0 Bft) O-NO 77 0 min 0,000 mm 0,0 UV-I 0 W/m 7,0 C 8,1 C 0,0 km/h (0 Bft) 100,00 %
06.11.2015 18:15 8,0 C 93 % 1026,2 hPa 0,0 l/m 0,0 km/h (0 Bft) O-NO 77 0 min 0,000 mm 0,0 UV-I 0 W/m 6,9 C 8,0 C 0,0 km/h (0 Bft) 100,00 %
06.11.2015 18:16 7,9 C 93 % 1026,3 hPa 0,0 l/m 0,0 km/h (0 Bft) O-NO 77 0 min 0,000 mm 0,0 UV-I 0 W/m 6,8 C 7,9 C 0,0 km/h (0 Bft) 95,65 %
06.11.2015 18:17 7,8 C 94 % 1026,3 hPa 0,0 l/m 0,3 km/h (0 Bft) O-NO 77 0 min 0,000 mm 0,0 UV-I 0 W/m 6,9 C 7,8 C 1,6 km/h (1 Bft) 100,00 %
06.11.2015 18:18 7,7 C 94 % 1026,2 hPa 0,0 l/m 0,9 km/h (0 Bft) O-NO 77 0 min 0,000 mm 0,0 UV-I 0 W/m 6,8 C 7,7 C 1,6 km/h (1 Bft) 99,37 %
06.11.2015 18:19 7,6 C 94 % 1026,2 hPa 0,0 l/m 1,1 km/h (1 Bft) O-NO 77 0 min 0,000 mm 0,0 UV-I 0 W/m 6,7 C 7,6 C 1,6 km/h (1 Bft) 100,00 %
06.11.2015 18:20 7,5 C 94 % 1026,2 hPa 0,0 l/m 0,9 km/h (0 Bft) O-NO 77 0 min 0,000 mm 0,0 UV-I 0 W/m 6,6 C 7,5 C 1,6 km/h (1 Bft) 96,15 %
06.11.2015 18:21 7,4 C 94 % 1026,3 hPa 0,0 l/m 1,1 km/h (1 Bft) O-NO 77 0 min 0,000 mm 0,0 UV-I 0 W/m 6,5 C 7,4 C 1,6 km/h (1 Bft) 100,00 %
06.11.2015 18:22 7,4 C 94 % 1026,3 hPa 0,0 l/m 1,0 km/h (0 Bft) O-NO 77 0 min 0,000 mm 0,0 UV-I 0 W/m 6,5 C 7,4 C 1,6 km/h (1 Bft) 100,00 %
06.11.2015 18:23 7,3 C 95 % 1026,2 hPa 0,0 l/m 0,7 km/h (0 Bft) O-NO 77 0 min 0,000 mm 0,0 UV-I 0 W/m 6,6 C 7,3 C 1,6 km/h (1 Bft) 95,65 %
06.11.2015 18:24 7,3 C 95 % 1026,2 hPa 0,0 l/m 0,2 km/h (0 Bft) O-NO 77 0 min 0,000 mm 0,0 UV-I 0 W/m 6,6 C 7,3 C 1,6 km/h (1 Bft) 100,00 %
06.11.2015 18:25 7,3 C 95 % 1026,2 hPa 0,0 l/m 0,0 km/h (0 Bft) O-NO 77 0 min 0,000 mm 0,0 UV-I 0 W/m 6,6 C 7,3 C 0,0 km/h (0 Bft) 95,65 %
06.11.2015 18:26 7,2 C 95 % 1026,2 hPa 0,0 l/m 0,8 km/h (0 Bft) O-NO 77 0 min 0,000 mm 0,0 UV-I 0 W/m 6,5 C 7,2 C 1,6 km/h (1 Bft) 100,00 %
06.11.2015 18:27 7,2 C 95 % 1026,2 hPa 0,0 l/m 1,2 km/h (1 Bft) O-NO 77 0 min 0,000 mm 0,0 UV-I 0 W/m 6,5 C 7,2 C 1,6 km/h (1 Bft) 100,00 %
06.11.2015 18:28 7,2 C 95 % 1026,1 hPa 0,0 l/m 0,7 km/h (0 Bft) O-NO 77 0 min 0,000 mm 0,0 UV-I 0 W/m 6,5 C 7,2 C 1,6 km/h (1 Bft) 100,00 %
06.11.2015 18:29 7,2 C 95 % 1026,1 hPa 0,0 l/m 0,7 km/h (0 Bft) O-NO 77 0 min 0,000 mm 0,0 UV-I 0 W/m 6,5 C 7,2 C 1,6 km/h (1 Bft) 96,15 %
06.11.2015 18:30 7,2 C 96 % 1026,1 hPa 0,0 l/m 1,1 km/h (1 Bft) O-NO 77 0 min 0,000 mm 0,0 UV-I 0 W/m 6,6 C 7,2 C 1,6 km/h (1 Bft) 100,00 %
06.11.2015 18:31 7,1 C 96 % 1026,1 hPa 0,0 l/m 0,8 km/h (0 Bft) O-NO 77 0 min 0,000 mm 0,0 UV-I 0 W/m 6,5 C 7,1 C 1,6 km/h (1 Bft) 95,65 %
06.11.2015 18:32 7,1 C 96 % 1026,1 hPa 0,0 l/m 0,8 km/h (0 Bft) O-NO 77 0 min 0,000 mm 0,0 UV-I 0 W/m 6,5 C 7,1 C 1,6 km/h (1 Bft) 100,00 %
06.11.2015 18:33 7,1 C 96 % 1026,1 hPa 0,0 l/m 1,2 km/h (1 Bft) O-NO 77 0 min 0,000 mm 0,0 UV-I 0 W/m 6,5 C 7,1 C 1,6 km/h (1 Bft) 100,00 %
06.11.2015 18:34 7,1 C 96 % 1026,1 hPa 0,0 l/m 0,9 km/h (0 Bft) O-NO 77 0 min 0,000 mm 0,0 UV-I 0 W/m 6,5 C 7,1 C 1,6 km/h (1 Bft) 100,00 %
06.11.2015 18:35 7,1 C 96 % 1026,0 hPa 0,0 l/m 0,9 km/h (0 Bft) O-NO 77 0 min 0,000 mm 0,0 UV-I 0 W/m 6,5 C 7,1 C 1,6 km/h (1 Bft) 100,00 %
06.11.2015 18:36 7,2 C 96 % 1026,0 hPa 0,0 l/m 0,2 km/h (0 Bft) O-NO 77 0 min 0,000 mm 0,0 UV-I 0 W/m 6,6 C 7,2 C 1,6 km/h (1 Bft) 100,00 %
06.11.2015 18:37 7,2 C 96 % 1026,1 hPa 0,0 l/m 0,0 km/h (0 Bft) O-NO 77 0 min 0,000 mm 0,0 UV-I 0 W/m 6,6 C 7,2 C 0,0 km/h (0 Bft) 100,00 %
06.11.2015 18:38 7,3 C 96 % 1026,1 hPa 0,0 l/m 0,0 km/h (0 Bft) O-NO 77 0 min 0,000 mm 0,0 UV-I 0 W/m 6,7 C 7,3 C 0,0 km/h (0 Bft) 100,00 %
06.11.2015 18:39 7,3 C 96 % 1026,1 hPa 0,0 l/m 0,2 km/h (0 Bft) O-NO 77 0 min 0,000 mm 0,0 UV-I 0 W/m 6,7 C 7,3 C 1,6 km/h (1 Bft) 100,00 %
06.11.2015 18:40 7,3 C 96 % 1026,1 hPa 0,0 l/m 0,2 km/h (0 Bft) O-NO 77 0 min 0,000 mm 0,0 UV-I 0 W/m 6,7 C 7,3 C 1,6 km/h (1 Bft) 95,83 %
06.11.2015 18:41 7,3 C 96 % 1026,1 hPa 0,0 l/m 0,0 km/h (0 Bft) O-NO 77 0 min 0,000 mm 0,0 UV-I 0 W/m 6,7 C 7,3 C 0,0 km/h (0 Bft) 100,00 %
06.11.2015 18:42 7,3 C 96 % 1026,2 hPa 0,0 l/m 0,1 km/h (0 Bft) O-NO 77 0 min 0,000 mm 0,0 UV-I 0 W/m 6,7 C 7,3 C 1,6 km/h (1 Bft) 100,00 %
06.11.2015 18:43 7,3 C 96 % 1026,2 hPa 0,0 l/m 1,2 km/h (1 Bft) O-NO 77 0 min 0,000 mm 0,0 UV-I 0 W/m 6,7 C 7,3 C 1,6 km/h (1 Bft) 100,00 %
06.11.2015 18:44 7,4 C 96 % 1026,2 hPa 0,0 l/m 1,3 km/h (1 Bft) O-NO 77 0 min 0,000 mm 0,0 UV-I 0 W/m 6,8 C 7,4 C 1,6 km/h (1 Bft) 91,30 %
06.11.2015 18:45 7,4 C 96 % 1026,2 hPa 0,0 l/m 0,7 km/h (0 Bft) O-NO 77 0 min 0,000 mm 0,0 UV-I 0 W/m 6,8 C 7,4 C 1,6 km/h (1 Bft) 100,00 %
06.11.2015 18:46 7,5 C 96 % 1026,3 hPa 0,0 l/m 0,1 km/h (0 Bft) O-NO 77 0 min 0,000 mm 0,0 UV-I 0 W/m 6,9 C 7,5 C 1,6 km/h (1 Bft) 100,00 %
06.11.2015 18:47 7,5 C 96 % 1026,2 hPa 0,0 l/m 0,0 km/h (0 Bft) O-NO 77 0 min 0,000 mm 0,0 UV-I 0 W/m 6,9 C 7,5 C 0,0 km/h (0 Bft) 100,00 %
06.11.2015 18:48 7,6 C 96 % 1026,3 hPa 0,0 l/m 0,0 km/h (0 Bft) O-NO 77 0 min 0,000 mm 0,0 UV-I 0 W/m 7,0 C 7,6 C 0,0 km/h (0 Bft) 100,00 %
06.11.2015 18:49 7,6 C 96 % 1026,3 hPa 0,0 l/m 0,0 km/h (0 Bft) O-NO 77 0 min 0,000 mm 0,0 UV-I 0 W/m 7,0 C 7,6 C 0,0 km/h (0 Bft) 100,00 %
06.11.2015 18:50 7,7 C 96 % 1026,3 hPa 0,0 l/m 0,0 km/h (0 Bft) O-NO 77 0 min 0,000 mm 0,0 UV-I 0 W/m 7,1 C 7,7 C 0,0 km/h (0 Bft) 100,00 %
06.11.2015 18:51 7,7 C 96 % 1026,3 hPa 0,0 l/m 0,0 km/h (0 Bft) O-NO 77 0 min 0,000 mm 0,0 UV-I 0 W/m 7,1 C 7,7 C 0,0 km/h (0 Bft) 100,00 %
06.11.2015 18:52 7,7 C 96 % 1026,3 hPa 0,0 l/m 0,0 km/h (0 Bft) O-NO 77 0 min 0,000 mm 0,0 UV-I 0 W/m 7,1 C 7,7 C 0,0 km/h (0 Bft) 100,00 %
06.11.2015 18:53 7,7 C 96 % 1026,3 hPa 0,0 l/m 0,0 km/h (0 Bft) O-NO 77 0 min 0,000 mm 0,0 UV-I 0 W/m 7,1 C 7,7 C 0,0 km/h (0 Bft) 100,00 %
06.11.2015 18:54 7,7 C 96 % 1026,3 hPa 0,0 l/m 0,6 km/h (0 Bft) O 82 0 min 0,000 mm 0,0 UV-I 0 W/m 7,1 C 7,7 C 1,6 km/h (1 Bft) 100,00 %
06.11.2015 18:55 7,7 C 95 % 1026,4 hPa 0,0 l/m 1,2 km/h (1 Bft) O 89 0 min 0,000 mm 0,0 UV-I 0 W/m 7,0 C 7,7 C 1,6 km/h (1 Bft) 100,00 %
06.11.2015 18:56 7,7 C 95 % 1026,4 hPa 0,0 l/m 0,0 km/h (0 Bft) O 89 0 min 0,000 mm 0,0 UV-I 0 W/m 7,0 C 7,7 C 0,0 km/h (0 Bft) 100,00 %
06.11.2015 18:57 7,6 C 95 % 1026,4 hPa 0,0 l/m 0,0 km/h (0 Bft) O 89 0 min 0,000 mm 0,0 UV-I 0 W/m 6,9 C 7,6 C 0,0 km/h (0 Bft) 100,00 %
06.11.2015 18:58 7,6 C 95 % 1026,3 hPa 0,0 l/m 0,0 km/h (0 Bft) O 89 0 min 0,000 mm 0,0 UV-I 0 W/m 6,9 C 7,6 C 0,0 km/h (0 Bft) 100,00 %
06.11.2015 18:59 7,6 C 95 % 1026,4 hPa 0,0 l/m 0,0 km/h (0 Bft) O 89 0 min 0,000 mm 0,0 UV-I 0 W/m 6,9 C 7,6 C 0,0 km/h (0 Bft) 100,00 %
06.11.2015 19:00 7,5 C 95 % 1026,4 hPa 0,0 l/m 0,0 km/h (0 Bft) O 89 0 min 0,000 mm 0,0 UV-I 0 W/m 6,8 C 7,5 C 0,0 km/h (0 Bft) 100,00 %
06.11.2015 19:01 7,5 C 95 % 1026,4 hPa 0,0 l/m 0,0 km/h (0 Bft) O 89 0 min 0,000 mm 0,0 UV-I 0 W/m 6,8 C 7,5 C 0,0 km/h (0 Bft) 100,00 %
06.11.2015 19:02 7,5 C 95 % 1026,5 hPa 0,0 l/m 0,1 km/h (0 Bft) O 89 0 min 0,000 mm 0,0 UV-I 0 W/m 6,8 C 7,5 C 1,6 km/h (1 Bft) 100,00 %
06.11.2015 19:03 7,6 C 96 % 1026,4 hPa 0,0 l/m 0,8 km/h (0 Bft) O 89 0 min 0,000 mm 0,0 UV-I 0 W/m 7,0 C 7,6 C 1,6 km/h (1 Bft) 99,37 %
06.11.2015 19:04 7,7 C 96 % 1026,4 hPa 0,0 l/m 0,7 km/h (0 Bft) O 89 0 min 0,000 mm 0,0 UV-I 0 W/m 7,1 C 7,7 C 1,6 km/h (1 Bft) 100,00 %
06.11.2015 19:05 7,7 C 96 % 1026,5 hPa 0,0 l/m 1,1 km/h (1 Bft) O 89 0 min 0,000 mm 0,0 UV-I 0 W/m 7,1 C 7,7 C 1,6 km/h (1 Bft) 100,00 %
06.11.2015 19:06 7,7 C 96 % 1026,5 hPa 0,0 l/m 0,3 km/h (0 Bft) O 89 0 min 0,000 mm 0,0 UV-I 0 W/m 7,1 C 7,7 C 1,6 km/h (1 Bft) 100,00 %
06.11.2015 19:07 7,8 C 96 % 1026,5 hPa 0,0 l/m 1,0 km/h (0 Bft) O 89 0 min 0,000 mm 0,0 UV-I 0 W/m 7,2 C 7,8 C 1,6 km/h (1 Bft) 100,00 %
06.11.2015 19:08 7,8 C 96 % 1026,5 hPa 0,0 l/m 1,0 km/h (0 Bft) O 89 0 min 0,000 mm 0,0 UV-I 0 W/m 7,2 C 7,8 C 1,6 km/h (1 Bft) 100,00 %
06.11.2015 19:09 7,9 C 96 % 1026,5 hPa 0,0 l/m 1,1 km/h (1 Bft) O 89 0 min 0,000 mm 0,0 UV-I 0 W/m 7,3 C 7,9 C 1,6 km/h (1 Bft) 95,83 %
06.11.2015 19:10 7,9 C 96 % 1026,4 hPa 0,0 l/m 1,5 km/h (1 Bft) O 89 0 min 0,000 mm 0,0 UV-I 0 W/m 7,3 C 7,9 C 1,6 km/h (1 Bft) 100,00 %
06.11.2015 19:11 8,0 C 96 % 1026,4 hPa 0,0 l/m 1,0 km/h (0 Bft) O 89 0 min 0,000 mm 0,0 UV-I 0 W/m 7,4 C 8,0 C 1,6 km/h (1 Bft) 91,67 %
06.11.2015 19:12 8,1 C 96 % 1026,4 hPa 0,0 l/m 1,1 km/h (1 Bft) O 89 0 min 0,000 mm 0,0 UV-I 0 W/m 7,5 C 8,1 C 1,6 km/h (1 Bft) 100,00 %
06.11.2015 19:13 8,1 C 96 % 1026,5 hPa 0,0 l/m 0,2 km/h (0 Bft) O 89 0 min 0,000 mm 0,0 UV-I 0 W/m 7,5 C 8,1 C 1,6 km/h (1 Bft) 100,00 %
06.11.2015 19:14 8,2 C 96 % 1026,4 hPa 0,0 l/m 0,1 km/h (0 Bft) O 89 0 min 0,000 mm 0,0 UV-I 0 W/m 7,6 C 8,2 C 1,6 km/h (1 Bft) 100,00 %
06.11.2015 19:15 8,2 C 96 % 1026,5 hPa 0,0 l/m 0,6 km/h (0 Bft) O 89 0 min 0,000 mm 0,0 UV-I 0 W/m 7,6 C 8,2 C 1,6 km/h (1 Bft) 100,00 %
06.11.2015 19:16 8,2 C 96 % 1026,4 hPa 0,0 l/m 0,2 km/h (0 Bft) O 89 0 min 0,000 mm 0,0 UV-I 0 W/m 7,6 C 8,2 C 1,6 km/h (1 Bft) 100,00 %
06.11.2015 19:17 8,2 C 96 % 1026,5 hPa 0,0 l/m 0,0 km/h (0 Bft) O 89 0 min 0,000 mm 0,0 UV-I 0 W/m 7,6 C 8,2 C 0,0 km/h (0 Bft) 100,00 %
06.11.2015 19:18 8,2 C 96 % 1026,5 hPa 0,0 l/m 0,0 km/h (0 Bft) O 89 0 min 0,000 mm 0,0 UV-I 0 W/m 7,6 C 8,2 C 0,0 km/h (0 Bft) 100,00 %
06.11.2015 19:19 8,2 C 95 % 1026,5 hPa 0,0 l/m 0,0 km/h (0 Bft) O 89 0 min 0,000 mm 0,0 UV-I 0 W/m 7,4 C 8,2 C 0,0 km/h (0 Bft) 100,00 %
06.11.2015 19:20 8,3 C 95 % 1026,5 hPa 0,0 l/m 0,0 km/h (0 Bft) O 89 0 min 0,000 mm 0,0 UV-I 0 W/m 7,5 C 8,3 C 0,0 km/h (0 Bft) 100,00 %
06.11.2015 19:21 8,3 C 95 % 1026,4 hPa 0,0 l/m 0,0 km/h (0 Bft) O 89 0 min 0,000 mm 0,0 UV-I 0 W/m 7,5 C 8,3 C 0,0 km/h (0 Bft) 100,00 %
06.11.2015 19:22 8,3 C 95 % 1026,4 hPa 0,0 l/m 0,0 km/h (0 Bft) O 89 0 min 0,000 mm 0,0 UV-I 0 W/m 7,5 C 8,3 C 0,0 km/h (0 Bft) 100,00 %
06.11.2015 19:23 8,3 C 95 % 1026,4 hPa 0,0 l/m 0,0 km/h (0 Bft) O 89 0 min 0,000 mm 0,0 UV-I 0 W/m 7,5 C 8,3 C 0,0 km/h (0 Bft) 100,00 %
06.11.2015 19:24 8,2 C 95 % 1026,4 hPa 0,0 l/m 0,0 km/h (0 Bft) O 89 0 min 0,000 mm 0,0 UV-I 0 W/m 7,4 C 8,2 C 0,0 km/h (0 Bft) 100,00 %
06.11.2015 19:25 8,2 C 95 % 1026,4 hPa 0,0 l/m 0,0 km/h (0 Bft) O 89 0 min 0,000 mm 0,0 UV-I 0 W/m 7,4 C 8,2 C 0,0 km/h (0 Bft) 95,65 %
06.11.2015 19:26 8,2 C 95 % 1026,4 hPa 0,0 l/m 0,0 km/h (0 Bft) O 89 0 min 0,000 mm 0,0 UV-I 0 W/m 7,4 C 8,2 C 0,0 km/h (0 Bft) 100,00 %
06.11.2015 19:27 8,2 C 95 % 1026,4 hPa 0,0 l/m 0,2 km/h (0 Bft) O 89 0 min 0,000 mm 0,0 UV-I 0 W/m 7,4 C 8,2 C 1,6 km/h (1 Bft) 100,00 %
06.11.2015 19:28 8,2 C 95 % 1026,4 hPa 0,0 l/m 0,1 km/h (0 Bft) O 89 0 min 0,000 mm 0,0 UV-I 0 W/m 7,4 C 8,2 C 1,6 km/h (1 Bft) 100,00 %
06.11.2015 19:29 8,2 C 94 % 1026,4 hPa 0,0 l/m 1,9 km/h (1 Bft) O-SO 115 0 min 0,000 mm 0,0 UV-I 0 W/m 7,3 C 8,2 C 3,2 km/h (1 Bft) 96,15 %
06.11.2015 19:30 8,2 C 95 % 1026,4 hPa 0,0 l/m 1,7 km/h (1 Bft) O-SO 115 0 min 0,000 mm 0,0 UV-I 0 W/m 7,4 C 8,2 C 3,2 km/h (1 Bft) 100,00 %
06.11.2015 19:31 8,2 C 95 % 1026,4 hPa 0,0 l/m 0,8 km/h (0 Bft) O-SO 115 0 min 0,000 mm 0,0 UV-I 0 W/m 7,4 C 8,2 C 1,6 km/h (1 Bft) 100,00 %
06.11.2015 19:32 8,3 C 96 % 1026,3 hPa 0,0 l/m 0,5 km/h (0 Bft) O-SO 116 0 min 0,000 mm 0,0 UV-I 0 W/m 7,7 C 8,3 C 1,6 km/h (1 Bft) 100,00 %
06.11.2015 19:33 8,3 C 96 % 1026,3 hPa 0,0 l/m 0,3 km/h (0 Bft) O-SO 115 0 min 0,000 mm 0,0 UV-I 0 W/m 7,7 C 8,3 C 1,6 km/h (1 Bft) 100,00 %
06.11.2015 19:34 8,4 C 95 % 1026,3 hPa 0,0 l/m 0,1 km/h (0 Bft) O-SO 115 0 min 0,000 mm 0,0 UV-I 0 W/m 7,6 C 8,4 C 1,6 km/h (1 Bft) 100,00 %
06.11.2015 19:35 8,3 C 95 % 1026,3 hPa 0,0 l/m 0,0 km/h (0 Bft) O-SO 115 0 min 0,000 mm 0,0 UV-I 0 W/m 7,5 C 8,3 C 0,0 km/h (0 Bft) 100,00 %
06.11.2015 19:36 8,3 C 95 % 1026,3 hPa 0,0 l/m 0,0 km/h (0 Bft) O-SO 115 0 min 0,000 mm 0,0 UV-I 0 W/m 7,5 C 8,3 C 0,0 km/h (0 Bft) 95,65 %
06.11.2015 19:37 8,3 C 95 % 1026,3 hPa 0,0 l/m 0,0 km/h (0 Bft) O-SO 115 0 min 0,000 mm 0,0 UV-I 0 W/m 7,5 C 8,3 C 0,0 km/h (0 Bft) 100,00 %
06.11.2015 19:38 8,4 C 95 % 1026,2 hPa 0,0 l/m 0,0 km/h (0 Bft) O-SO 115 0 min 0,000 mm 0,0 UV-I 0 W/m 7,6 C 8,4 C 0,0 km/h (0 Bft) 100,00 %
06.11.2015 19:39 8,4 C 95 % 1026,2 hPa 0,0 l/m 0,0 km/h (0 Bft) O-SO 115 0 min 0,000 mm 0,0 UV-I 0 W/m 7,6 C 8,4 C 0,0 km/h (0 Bft) 100,00 %
06.11.2015 19:40 8,4 C 95 % 1026,2 hPa 0,0 l/m 0,1 km/h (0 Bft) O-SO 115 0 min 0,000 mm 0,0 UV-I 0 W/m 7,6 C 8,4 C 1,6 km/h (1 Bft) 95,65 %
06.11.2015 19:41 8,5 C 95 % 1026,1 hPa 0,0 l/m 1,3 km/h (1 Bft) O-SO 115 0 min 0,000 mm 0,0 UV-I 0 W/m 7,7 C 8,5 C 1,6 km/h (1 Bft) 100,00 %
06.11.2015 19:42 8,6 C 95 % 1026,1 hPa 0,0 l/m 0,9 km/h (0 Bft) O-SO 115 0 min 0,000 mm 0,0 UV-I 0 W/m 7,8 C 8,6 C 1,6 km/h (1 Bft) 100,00 %
06.11.2015 19:43 8,6 C 95 % 1026,1 hPa 0,0 l/m 0,7 km/h (0 Bft) O-SO 115 0 min 0,000 mm 0,0 UV-I 0 W/m 7,8 C 8,6 C 1,6 km/h (1 Bft) 95,83 %
06.11.2015 19:44 8,5 C 95 % 1026,0 hPa 0,0 l/m 0,6 km/h (0 Bft) O-SO 115 0 min 0,000 mm 0,0 UV-I 0 W/m 7,7 C 8,5 C 1,6 km/h (1 Bft) 96,15 %
06.11.2015 19:45 8,5 C 95 % 1026,0 hPa 0,0 l/m 1,2 km/h (1 Bft) O-SO 115 0 min 0,000 mm 0,0 UV-I 0 W/m 7,7 C 8,5 C 3,2 km/h (1 Bft) 100,00 %
06.11.2015 19:46 8,5 C 95 % 1026,0 hPa 0,0 l/m 1,4 km/h (1 Bft) O-SO 116 0 min 0,000 mm 0,0 UV-I 0 W/m 7,7 C 8,5 C 3,2 km/h (1 Bft) 95,65 %
06.11.2015 19:47 8,5 C 95 % 1026,1 hPa 0,0 l/m 0,4 km/h (0 Bft) O-SO 116 0 min 0,000 mm 0,0 UV-I 0 W/m 7,7 C 8,5 C 1,6 km/h (1 Bft) 100,00 %
06.11.2015 19:48 8,5 C 95 % 1026,1 hPa 0,0 l/m 0,9 km/h (0 Bft) O-SO 123 0 min 0,000 mm 0,0 UV-I 0 W/m 7,7 C 8,5 C 1,6 km/h (1 Bft) 100,00 %
06.11.2015 19:49 8,6 C 95 % 1026,1 hPa 0,0 l/m 0,0 km/h (0 Bft) O-SO 123 0 min 0,000 mm 0,0 UV-I 0 W/m 7,8 C 8,6 C 0,0 km/h (0 Bft) 100,00 %
06.11.2015 19:50 8,6 C 95 % 1026,1 hPa 0,0 l/m 0,0 km/h (0 Bft) O-SO 123 0 min 0,000 mm 0,0 UV-I 0 W/m 7,8 C 8,6 C 0,0 km/h (0 Bft) 100,00 %
06.11.2015 19:51 8,6 C 95 % 1026,1 hPa 0,0 l/m 0,0 km/h (0 Bft) O-SO 123 0 min 0,000 mm 0,0 UV-I 0 W/m 7,8 C 8,6 C 0,0 km/h (0 Bft) 100,00 %
06.11.2015 19:52 8,6 C 95 % 1026,2 hPa 0,0 l/m 0,0 km/h (0 Bft) O-SO 123 0 min 0,000 mm 0,0 UV-I 0 W/m 7,8 C 8,6 C 0,0 km/h (0 Bft) 100,00 %
06.11.2015 19:53 8,6 C 94 % 1026,1 hPa 0,0 l/m 0,0 km/h (0 Bft) O-SO 123 0 min 0,000 mm 0,0 UV-I 0 W/m 7,7 C 8,6 C 0,0 km/h (0 Bft) 100,00 %
06.11.2015 19:54 8,5 C 94 % 1026,1 hPa 0,0 l/m 0,0 km/h (0 Bft) O-SO 123 0 min 0,000 mm 0,0 UV-I 0 W/m 7,6 C 8,5 C 0,0 km/h (0 Bft) 100,00 %
06.11.2015 19:55 8,4 C 94 % 1026,2 hPa 0,0 l/m 0,0 km/h (0 Bft) O-SO 123 0 min 0,000 mm 0,0 UV-I 0 W/m 7,5 C 8,4 C 0,0 km/h (0 Bft) 100,00 %
06.11.2015 19:56 8,4 C 94 % 1026,2 hPa 0,0 l/m 0,0 km/h (0 Bft) O-SO 123 0 min 0,000 mm 0,0 UV-I 0 W/m 7,5 C 8,4 C 0,0 km/h (0 Bft) 100,00 %
06.11.2015 19:57 8,3 C 94 % 1026,2 hPa 0,0 l/m 0,0 km/h (0 Bft) O-SO 123 0 min 0,000 mm 0,0 UV-I 0 W/m 7,4 C 8,3 C 0,0 km/h (0 Bft) 100,00 %
06.11.2015 19:58 8,3 C 94 % 1026,2 hPa 0,0 l/m 0,0 km/h (0 Bft) O-SO 123 0 min 0,000 mm 0,0 UV-I 0 W/m 7,4 C 8,3 C 0,0 km/h (0 Bft) 100,00 %
06.11.2015 19:59 8,3 C 95 % 1026,2 hPa 0,0 l/m 0,0 km/h (0 Bft) O-SO 123 0 min 0,000 mm 0,0 UV-I 0 W/m 7,5 C 8,3 C 0,0 km/h (0 Bft) 100,00 %
06.11.2015 20:00 8,4 C 95 % 1026,3 hPa 0,0 l/m 0,0 km/h (0 Bft) O-SO 123 0 min 0,000 mm 0,0 UV-I 0 W/m 7,6 C 8,4 C 0,0 km/h (0 Bft) 100,00 %
06.11.2015 20:02 8,4 C 95 % 1026,3 hPa 0,0 l/m 0,2 km/h (0 Bft) O-SO 123 0 min 0,000 mm 0,0 UV-I 0 W/m 7,6 C 8,4 C 1,6 km/h (1 Bft) 98,00 %
06.11.2015 20:03 8,4 C 95 % 1026,3 hPa 0,0 l/m 0,8 km/h (0 Bft) O-SO 123 0 min 0,000 mm 0,0 UV-I 0 W/m 7,6 C 8,4 C 1,6 km/h (1 Bft) 100,00 %
06.11.2015 20:04 8,4 C 94 % 1026,3 hPa 0,0 l/m 0,7 km/h (0 Bft) O-SO 123 0 min 0,000 mm 0,0 UV-I 0 W/m 7,5 C 8,4 C 1,6 km/h (1 Bft) 95,83 %
06.11.2015 20:05 8,4 C 94 % 1026,3 hPa 0,0 l/m 0,1 km/h (0 Bft) O-SO 123 0 min 0,000 mm 0,0 UV-I 0 W/m 7,5 C 8,4 C 1,6 km/h (1 Bft) 100,00 %
06.11.2015 20:06 8,4 C 94 % 1026,3 hPa 0,0 l/m 0,0 km/h (0 Bft) O-SO 123 0 min 0,000 mm 0,0 UV-I 0 W/m 7,5 C 8,4 C 0,0 km/h (0 Bft) 100,00 %
06.11.2015 20:07 8,3 C 95 % 1026,4 hPa 0,0 l/m 0,0 km/h (0 Bft) O-SO 123 0 min 0,000 mm 0,0 UV-I 0 W/m 7,5 C 8,3 C 0,0 km/h (0 Bft) 100,00 %
06.11.2015 20:08 8,3 C 95 % 1026,4 hPa 0,0 l/m 0,0 km/h (0 Bft) O-SO 123 0 min 0,000 mm 0,0 UV-I 0 W/m 7,5 C 8,3 C 0,0 km/h (0 Bft) 100,00 %
06.11.2015 20:09 8,3 C 95 % 1026,4 hPa 0,0 l/m 0,0 km/h (0 Bft) O-SO 123 0 min 0,000 mm 0,0 UV-I 0 W/m 7,5 C 8,3 C 0,0 km/h (0 Bft) 100,00 %
06.11.2015 20:10 8,3 C 95 % 1026,4 hPa 0,0 l/m 0,0 km/h (0 Bft) O-SO 123 0 min 0,000 mm 0,0 UV-I 0 W/m 7,5 C 8,3 C 0,0 km/h (0 Bft) 100,00 %
06.11.2015 20:11 8,3 C 95 % 1026,4 hPa 0,0 l/m 0,0 km/h (0 Bft) O-SO 123 0 min 0,000 mm 0,0 UV-I 0 W/m 7,5 C 8,3 C 0,0 km/h (0 Bft) 100,00 %
06.11.2015 20:12 8,3 C 95 % 1026,5 hPa 0,0 l/m 0,0 km/h (0 Bft) O-SO 123 0 min 0,000 mm 0,0 UV-I 0 W/m 7,5 C 8,3 C 0,0 km/h (0 Bft) 100,00 %
06.11.2015 20:13 8,4 C 95 % 1026,5 hPa 0,0 l/m 0,0 km/h (0 Bft) O-SO 123 0 min 0,000 mm 0,0 UV-I 0 W/m 7,6 C 8,4 C 0,0 km/h (0 Bft) 100,00 %
06.11.2015 20:14 8,4 C 95 % 1026,4 hPa 0,0 l/m 0,0 km/h (0 Bft) O-SO 123 0 min 0,000 mm 0,0 UV-I 0 W/m 7,6 C 8,4 C 0,0 km/h (0 Bft) 100,00 %
06.11.2015 20:15 8,4 C 95 % 1026,3 hPa 0,0 l/m 0,1 km/h (0 Bft) O-SO 123 0 min 0,000 mm 0,0 UV-I 0 W/m 7,6 C 8,4 C 1,6 km/h (1 Bft) 100,00 %
06.11.2015 20:16 8,4 C 95 % 1026,3 hPa 0,0 l/m 1,1 km/h (1 Bft) O-SO 123 0 min 0,000 mm 0,0 UV-I 0 W/m 7,6 C 8,4 C 1,6 km/h (1 Bft) 95,65 %
06.11.2015 20:17 8,4 C 94 % 1026,2 hPa 0,0 l/m 1,9 km/h (1 Bft) O-SO 123 0 min 0,000 mm 0,0 UV-I 0 W/m 7,5 C 8,4 C 3,2 km/h (1 Bft) 100,00 %
06.11.2015 20:18 8,3 C 94 % 1026,3 hPa 0,0 l/m 1,4 km/h (1 Bft) O-SO 123 0 min 0,000 mm 0,0 UV-I 0 W/m 7,4 C 8,3 C 3,2 km/h (1 Bft) 100,00 %
06.11.2015 20:19 8,3 C 95 % 1026,2 hPa 0,0 l/m 1,3 km/h (1 Bft) O-SO 123 0 min 0,000 mm 0,0 UV-I 0 W/m 7,5 C 8,3 C 3,2 km/h (1 Bft) 100,00 %
06.11.2015 20:20 8,3 C 95 % 1026,2 hPa 0,0 l/m 0,1 km/h (0 Bft) O-SO 123 0 min 0,000 mm 0,0 UV-I 0 W/m 7,5 C 8,3 C 1,6 km/h (1 Bft) 100,00 %
06.11.2015 20:21 8,3 C 95 % 1026,2 hPa 0,0 l/m 0,0 km/h (0 Bft) O-SO 123 0 min 0,000 mm 0,0 UV-I 0 W/m 7,5 C 8,3 C 0,0 km/h (0 Bft) 100,00 %
06.11.2015 20:22 8,3 C 95 % 1026,2 hPa 0,0 l/m 0,0 km/h (0 Bft) O-SO 123 0 min 0,000 mm 0,0 UV-I 0 W/m 7,5 C 8,3 C 0,0 km/h (0 Bft) 96,15 %
06.11.2015 20:23 8,3 C 95 % 1026,2 hPa 0,0 l/m 0,0 km/h (0 Bft) O-SO 123 0 min 0,000 mm 0,0 UV-I 0 W/m 7,5 C 8,3 C 0,0 km/h (0 Bft) 100,00 %
06.11.2015 20:24 8,3 C 95 % 1026,2 hPa 0,0 l/m 0,0 km/h (0 Bft) O-SO 123 0 min 0,000 mm 0,0 UV-I 0 W/m 7,5 C 8,3 C 0,0 km/h (0 Bft) 95,65 %
06.11.2015 20:25 8,4 C 96 % 1026,2 hPa 0,0 l/m 0,0 km/h (0 Bft) O-SO 123 0 min 0,000 mm 0,0 UV-I 0 W/m 7,8 C 8,4 C 0,0 km/h (0 Bft) 100,00 %
06.11.2015 20:26 8,4 C 95 % 1026,2 hPa 0,0 l/m 0,4 km/h (0 Bft) O-SO 123 0 min 0,000 mm 0,0 UV-I 0 W/m 7,6 C 8,4 C 1,6 km/h (1 Bft) 100,00 %
06.11.2015 20:27 8,5 C 96 % 1026,2 hPa 0,0 l/m 0,2 km/h (0 Bft) O-SO 123 0 min 0,000 mm 0,0 UV-I 0 W/m 7,9 C 8,5 C 1,6 km/h (1 Bft) 97,37 %
06.11.2015 20:28 8,5 C 95 % 1026,2 hPa 0,0 l/m 0,0 km/h (0 Bft) O-SO 123 0 min 0,000 mm 0,0 UV-I 0 W/m 7,7 C 8,5 C 0,0 km/h (0 Bft) 100,00 %
06.11.2015 20:29 8,6 C 95 % 1026,2 hPa 0,0 l/m 0,0 km/h (0 Bft) O-SO 122 0 min 0,000 mm 0,0 UV-I 0 W/m 7,8 C 8,6 C 0,0 km/h (0 Bft) 100,00 %
06.11.2015 20:30 8,5 C 95 % 1026,2 hPa 0,0 l/m 0,0 km/h (0 Bft) O-SO 123 0 min 0,000 mm 0,0 UV-I 0 W/m 7,7 C 8,5 C 0,0 km/h (0 Bft) 100,00 %
06.11.2015 20:31 8,5 C 95 % 1026,2 hPa 0,0 l/m 0,0 km/h (0 Bft) O-SO 123 0 min 0,000 mm 0,0 UV-I 0 W/m 7,7 C 8,5 C 0,0 km/h (0 Bft) 100,00 %
06.11.2015 20:32 8,5 C 95 % 1026,2 hPa 0,0 l/m 0,0 km/h (0 Bft) O-SO 123 0 min 0,000 mm 0,0 UV-I 0 W/m 7,7 C 8,5 C 0,0 km/h (0 Bft) 100,00 %
06.11.2015 20:33 8,5 C 95 % 1026,1 hPa 0,0 l/m 0,1 km/h (0 Bft) O-SO 123 0 min 0,000 mm 0,0 UV-I 0 W/m 7,7 C 8,5 C 1,6 km/h (1 Bft) 100,00 %
06.11.2015 20:34 8,4 C 95 % 1026,1 hPa 0,0 l/m 0,2 km/h (0 Bft) O-SO 123 0 min 0,000 mm 0,0 UV-I 0 W/m 7,6 C 8,4 C 1,6 km/h (1 Bft) 100,00 %
06.11.2015 20:35 8,4 C 94 % 1026,1 hPa 0,0 l/m 0,0 km/h (0 Bft) O-SO 123 0 min 0,000 mm 0,0 UV-I 0 W/m 7,5 C 8,4 C 0,0 km/h (0 Bft) 92,31 %
06.11.2015 20:36 8,4 C 95 % 1026,1 hPa 0,0 l/m 0,0 km/h (0 Bft) O-SO 123 0 min 0,000 mm 0,0 UV-I 0 W/m 7,6 C 8,4 C 0,0 km/h (0 Bft) 100,00 %
06.11.2015 20:37 8,3 C 95 % 1026,1 hPa 0,0 l/m 0,0 km/h (0 Bft) O-SO 123 0 min 0,000 mm 0,0 UV-I 0 W/m 7,5 C 8,3 C 0,0 km/h (0 Bft) 100,00 %
06.11.2015 20:38 8,3 C 95 % 1026,2 hPa 0,0 l/m 0,0 km/h (0 Bft) O-SO 122 0 min 0,000 mm 0,0 UV-I 0 W/m 7,5 C 8,3 C 0,0 km/h (0 Bft) 100,00 %
06.11.2015 20:39 8,3 C 95 % 1026,2 hPa 0,0 l/m 0,0 km/h (0 Bft) O-SO 123 0 min 0,000 mm 0,0 UV-I 0 W/m 7,5 C 8,3 C 0,0 km/h (0 Bft) 100,00 %
06.11.2015 20:40 8,3 C 95 % 1026,2 hPa 0,0 l/m 0,1 km/h (0 Bft) O-SO 123 0 min 0,000 mm 0,0 UV-I 0 W/m 7,5 C 8,3 C 1,6 km/h (1 Bft) 100,00 %
06.11.2015 20:41 8,3 C 95 % 1026,2 hPa 0,0 l/m 0,1 km/h (0 Bft) O-SO 123 0 min 0,000 mm 0,0 UV-I 0 W/m 7,5 C 8,3 C 1,6 km/h (1 Bft) 100,00 %
06.11.2015 20:42 8,3 C 95 % 1026,3 hPa 0,0 l/m 0,3 km/h (0 Bft) O-SO 123 0 min 0,000 mm 0,0 UV-I 0 W/m 7,5 C 8,3 C 1,6 km/h (1 Bft) 100,00 %
06.11.2015 20:43 8,2 C 95 % 1026,3 hPa 0,0 l/m 1,0 km/h (0 Bft) O-SO 123 0 min 0,000 mm 0,0 UV-I 0 W/m 7,4 C 8,2 C 1,6 km/h (1 Bft) 96,15 %
06.11.2015 20:44 8,2 C 95 % 1026,3 hPa 0,0 l/m 0,1 km/h (0 Bft) O-SO 123 0 min 0,000 mm 0,0 UV-I 0 W/m 7,4 C 8,2 C 1,6 km/h (1 Bft) 100,00 %
06.11.2015 20:45 8,1 C 95 % 1026,2 hPa 0,0 l/m 0,0 km/h (0 Bft) O-SO 123 0 min 0,000 mm 0,0 UV-I 0 W/m 7,3 C 8,1 C 0,0 km/h (0 Bft) 100,00 %
06.11.2015 20:46 8,1 C 94 % 1026,3 hPa 0,0 l/m 0,0 km/h (0 Bft) O-SO 123 0 min 0,000 mm 0,0 UV-I 0 W/m 7,2 C 8,1 C 0,0 km/h (0 Bft) 95,83 %
06.11.2015 20:47 8,0 C 95 % 1026,3 hPa 0,0 l/m 0,0 km/h (0 Bft) O-SO 123 0 min 0,000 mm 0,0 UV-I 0 W/m 7,2 C 8,0 C 0,0 km/h (0 Bft) 100,00 %
06.11.2015 20:48 7,9 C 95 % 1026,3 hPa 0,0 l/m 0,4 km/h (0 Bft) O-SO 123 0 min 0,000 mm 0,0 UV-I 0 W/m 7,1 C 7,9 C 1,6 km/h (1 Bft) 100,00 %
06.11.2015 20:49 7,9 C 95 % 1026,4 hPa 0,0 l/m 0,0 km/h (0 Bft) O-SO 123 0 min 0,000 mm 0,0 UV-I 0 W/m 7,1 C 7,9 C 0,0 km/h (0 Bft) 100,00 %
06.11.2015 20:50 7,8 C 95 % 1026,3 hPa 0,0 l/m 0,0 km/h (0 Bft) O-SO 123 0 min 0,000 mm 0,0 UV-I 0 W/m 7,0 C 7,8 C 0,0 km/h (0 Bft) 100,00 %
06.11.2015 20:51 7,8 C 95 % 1026,4 hPa 0,0 l/m 0,0 km/h (0 Bft) O-SO 123 0 min 0,000 mm 0,0 UV-I 0 W/m 7,0 C 7,8 C 0,0 km/h (0 Bft) 100,00 %
06.11.2015 20:52 7,8 C 95 % 1026,4 hPa 0,0 l/m 0,0 km/h (0 Bft) O-SO 123 0 min 0,000 mm 0,0 UV-I 0 W/m 7,0 C 7,8 C 0,0 km/h (0 Bft) 100,00 %
06.11.2015 20:53 7,8 C 96 % 1026,3 hPa 0,0 l/m 0,0 km/h (0 Bft) O-SO 123 0 min 0,000 mm 0,0 UV-I 0 W/m 7,2 C 7,8 C 0,0 km/h (0 Bft) 100,00 %
06.11.2015 20:54 7,8 C 96 % 1026,3 hPa 0,0 l/m 0,0 km/h (0 Bft) O-SO 123 0 min 0,000 mm 0,0 UV-I 0 W/m 7,2 C 7,8 C 0,0 km/h (0 Bft) 100,00 %
06.11.2015 20:55 7,8 C 96 % 1026,3 hPa 0,0 l/m 0,0 km/h (0 Bft) O-SO 123 0 min 0,000 mm 0,0 UV-I 0 W/m 7,2 C 7,8 C 0,0 km/h (0 Bft) 96,30 %
06.11.2015 20:56 7,8 C 96 % 1026,3 hPa 0,0 l/m 0,6 km/h (0 Bft) O-SO 123 0 min 0,000 mm 0,0 UV-I 0 W/m 7,2 C 7,8 C 1,6 km/h (1 Bft) 100,00 %
06.11.2015 20:57 7,8 C 96 % 1026,3 hPa 0,0 l/m 1,7 km/h (1 Bft) O-SO 123 0 min 0,000 mm 0,0 UV-I 0 W/m 7,2 C 7,8 C 3,2 km/h (1 Bft) 100,00 %
06.11.2015 20:58 7,8 C 95 % 1026,3 hPa 0,0 l/m 1,4 km/h (1 Bft) O-SO 123 0 min 0,000 mm 0,0 UV-I 0 W/m 7,0 C 7,8 C 1,6 km/h (1 Bft) 100,00 %
06.11.2015 20:59 7,8 C 95 % 1026,3 hPa 0,0 l/m 0,5 km/h (0 Bft) O-SO 123 0 min 0,000 mm 0,0 UV-I 0 W/m 7,0 C 7,8 C 1,6 km/h (1 Bft) 95,83 %
06.11.2015 21:00 7,8 C 95 % 1026,3 hPa 0,0 l/m 0,0 km/h (0 Bft) O-SO 123 0 min 0,000 mm 0,0 UV-I 0 W/m 7,0 C 7,8 C 0,0 km/h (0 Bft) 100,00 %
06.11.2015 21:01 7,8 C 96 % 1026,3 hPa 0,0 l/m 0,0 km/h (0 Bft) O-SO 123 0 min 0,000 mm 0,0 UV-I 0 W/m 7,2 C 7,8 C 0,0 km/h (0 Bft) 100,00 %
06.11.2015 21:02 7,9 C 96 % 1026,3 hPa 0,0 l/m 0,0 km/h (0 Bft) O-SO 123 0 min 0,000 mm 0,0 UV-I 0 W/m 7,3 C 7,9 C 0,0 km/h (0 Bft) 100,00 %
06.11.2015 21:03 8,0 C 96 % 1026,3 hPa 0,0 l/m 0,0 km/h (0 Bft) O-SO 123 0 min 0,000 mm 0,0 UV-I 0 W/m 7,4 C 8,0 C 0,0 km/h (0 Bft) 100,00 %
06.11.2015 21:04 8,1 C 96 % 1026,3 hPa 0,0 l/m 0,0 km/h (0 Bft) O-SO 123 0 min 0,000 mm 0,0 UV-I 0 W/m 7,5 C 8,1 C 0,0 km/h (0 Bft) 100,00 %
06.11.2015 21:05 8,1 C 96 % 1026,3 hPa 0,0 l/m 0,0 km/h (0 Bft) O-SO 123 0 min 0,000 mm 0,0 UV-I 0 W/m 7,5 C 8,1 C 0,0 km/h (0 Bft) 96,15 %
06.11.2015 21:06 8,1 C 96 % 1026,3 hPa 0,0 l/m 0,0 km/h (0 Bft) O-SO 123 0 min 0,000 mm 0,0 UV-I 0 W/m 7,5 C 8,1 C 0,0 km/h (0 Bft) 100,00 %
06.11.2015 21:07 8,1 C 96 % 1026,3 hPa 0,0 l/m 0,0 km/h (0 Bft) O-SO 123 0 min 0,000 mm 0,0 UV-I 0 W/m 7,5 C 8,1 C 0,0 km/h (0 Bft) 100,00 %
06.11.2015 21:08 8,1 C 96 % 1026,3 hPa 0,0 l/m 0,0 km/h (0 Bft) O-SO 123 0 min 0,000 mm 0,0 UV-I 0 W/m 7,5 C 8,1 C 0,0 km/h (0 Bft) 100,00 %
06.11.2015 21:09 8,1 C 96 % 1026,3 hPa 0,0 l/m 0,0 km/h (0 Bft) O-SO 123 0 min 0,000 mm 0,0 UV-I 0 W/m 7,5 C 8,1 C 0,0 km/h (0 Bft) 95,65 %
06.11.2015 21:10 8,1 C 96 % 1026,3 hPa 0,0 l/m 0,0 km/h (0 Bft) O-SO 123 0 min 0,000 mm 0,0 UV-I 0 W/m 7,5 C 8,1 C 0,0 km/h (0 Bft) 100,00 %
06.11.2015 21:11 8,1 C 96 % 1026,3 hPa 0,0 l/m 0,0 km/h (0 Bft) O-SO 123 0 min 0,000 mm 0,0 UV-I 0 W/m 7,5 C 8,1 C 0,0 km/h (0 Bft) 100,00 %
06.11.2015 21:12 8,1 C 96 % 1026,3 hPa 0,0 l/m 0,0 km/h (0 Bft) O-SO 122 0 min 0,000 mm 0,0 UV-I 0 W/m 7,5 C 8,1 C 0,0 km/h (0 Bft) 100,00 %
06.11.2015 21:13 8,1 C 96 % 1026,4 hPa 0,0 l/m 0,0 km/h (0 Bft) O-SO 123 0 min 0,000 mm 0,0 UV-I 0 W/m 7,5 C 8,1 C 0,0 km/h (0 Bft) 100,00 %
06.11.2015 21:14 8,1 C 96 % 1026,4 hPa 0,0 l/m 0,0 km/h (0 Bft) O-SO 123 0 min 0,000 mm 0,0 UV-I 0 W/m 7,5 C 8,1 C 0,0 km/h (0 Bft) 100,00 %
06.11.2015 21:15 8,1 C 96 % 1026,4 hPa 0,0 l/m 0,1 km/h (0 Bft) O-SO 123 0 min 0,000 mm 0,0 UV-I 0 W/m 7,5 C 8,1 C 1,6 km/h (1 Bft) 100,00 %
06.11.2015 21:16 8,1 C 96 % 1026,4 hPa 0,0 l/m 0,1 km/h (0 Bft) O-SO 123 0 min 0,000 mm 0,0 UV-I 0 W/m 7,5 C 8,1 C 1,6 km/h (1 Bft) 95,83 %
06.11.2015 21:17 8,1 C 95 % 1026,4 hPa 0,0 l/m 0,1 km/h (0 Bft) O-SO 123 0 min 0,000 mm 0,0 UV-I 0 W/m 7,3 C 8,1 C 1,6 km/h (1 Bft) 100,00 %
06.11.2015 21:18 8,0 C 96 % 1026,3 hPa 0,0 l/m 0,3 km/h (0 Bft) O-SO 122 0 min 0,000 mm 0,0 UV-I 0 W/m 7,4 C 8,0 C 1,6 km/h (1 Bft) 100,00 %
06.11.2015 21:19 8,0 C 96 % 1026,3 hPa 0,0 l/m 0,4 km/h (0 Bft) O-SO 122 0 min 0,000 mm 0,0 UV-I 0 W/m 7,4 C 8,0 C 1,6 km/h (1 Bft) 96,15 %
06.11.2015 21:20 8,0 C 96 % 1026,3 hPa 0,0 l/m 0,0 km/h (0 Bft) O-SO 122 0 min 0,000 mm 0,0 UV-I 0 W/m 7,4 C 8,0 C 0,0 km/h (0 Bft) 100,00 %
06.11.2015 21:21 7,9 C 96 % 1026,3 hPa 0,0 l/m 0,1 km/h (0 Bft) O-SO 122 0 min 0,000 mm 0,0 UV-I 0 W/m 7,3 C 7,9 C 1,6 km/h (1 Bft) 100,00 %
06.11.2015 21:22 7,9 C 96 % 1026,3 hPa 0,0 l/m 0,2 km/h (0 Bft) O-SO 122 0 min 0,000 mm 0,0 UV-I 0 W/m 7,3 C 7,9 C 1,6 km/h (1 Bft) 100,00 %
06.11.2015 21:23 7,9 C 96 % 1026,3 hPa 0,0 l/m 0,2 km/h (0 Bft) O-SO 121 0 min 0,000 mm 0,0 UV-I 0 W/m 7,3 C 7,9 C 1,6 km/h (1 Bft) 100,00 %
06.11.2015 21:24 7,9 C 96 % 1026,3 hPa 0,0 l/m 0,8 km/h (0 Bft) O-NO 73 0 min 0,000 mm 0,0 UV-I 0 W/m 7,3 C 7,9 C 3,2 km/h (1 Bft) 100,00 %
06.11.2015 21:25 7,9 C 96 % 1026,4 hPa 0,0 l/m 1,3 km/h (1 Bft) N-NO 12 0 min 0,000 mm 0,0 UV-I 0 W/m 7,3 C 7,9 C 3,2 km/h (1 Bft) 100,00 %
06.11.2015 21:26 7,9 C 96 % 1026,4 hPa 0,0 l/m 1,7 km/h (1 Bft) NO 36 0 min 0,000 mm 0,0 UV-I 0 W/m 7,3 C 7,9 C 3,2 km/h (1 Bft) 100,00 %
06.11.2015 21:27 7,9 C 96 % 1026,4 hPa 0,0 l/m 1,7 km/h (1 Bft) NO 50 0 min 0,000 mm 0,0 UV-I 0 W/m 7,3 C 7,9 C 3,2 km/h (1 Bft) 95,83 %
06.11.2015 21:28 7,9 C 96 % 1026,4 hPa 0,0 l/m 1,2 km/h (1 Bft) NO 50 0 min 0,000 mm 0,0 UV-I 0 W/m 7,3 C 7,9 C 1,6 km/h (1 Bft) 100,00 %
06.11.2015 21:29 7,8 C 96 % 1026,4 hPa 0,0 l/m 1,2 km/h (1 Bft) O-NO 71 0 min 0,000 mm 0,0 UV-I 0 W/m 7,2 C 7,8 C 1,6 km/h (1 Bft) 100,00 %
06.11.2015 21:30 7,8 C 96 % 1026,4 hPa 0,0 l/m 2,5 km/h (1 Bft) O 85 0 min 0,000 mm 0,0 UV-I 0 W/m 7,2 C 7,8 C 4,8 km/h (1 Bft) 100,00 %
06.11.2015 21:31 7,8 C 96 % 1026,4 hPa 0,0 l/m 2,5 km/h (1 Bft) O 88 0 min 0,000 mm 0,0 UV-I 0 W/m 7,2 C 7,8 C 3,2 km/h (1 Bft) 100,00 %
06.11.2015 21:32 7,8 C 96 % 1026,4 hPa 0,0 l/m 2,4 km/h (1 Bft) O 90 0 min 0,000 mm 0,0 UV-I 0 W/m 7,2 C 7,8 C 3,2 km/h (1 Bft) 100,00 %
06.11.2015 21:33 7,8 C 96 % 1026,4 hPa 0,0 l/m 1,9 km/h (1 Bft) O 101 0 min 0,000 mm 0,0 UV-I 0 W/m 7,2 C 7,8 C 4,8 km/h (1 Bft) 95,83 %
06.11.2015 21:34 7,8 C 96 % 1026,4 hPa 0,0 l/m 1,0 km/h (0 Bft) O 80 0 min 0,000 mm 0,0 UV-I 0 W/m 7,2 C 7,8 C 1,6 km/h (1 Bft) 100,00 %
06.11.2015 21:35 7,7 C 96 % 1026,4 hPa 0,0 l/m 0,8 km/h (0 Bft) O-NO 72 0 min 0,000 mm 0,0 UV-I 0 W/m 7,1 C 7,7 C 1,6 km/h (1 Bft) 100,00 %
06.11.2015 21:36 7,7 C 96 % 1026,4 hPa 0,0 l/m 1,7 km/h (1 Bft) NO 40 0 min 0,000 mm 0,0 UV-I 0 W/m 7,1 C 7,7 C 3,2 km/h (1 Bft) 100,00 %
06.11.2015 21:37 7,7 C 96 % 1026,4 hPa 0,0 l/m 1,5 km/h (1 Bft) NO 45 0 min 0,000 mm 0,0 UV-I 0 W/m 7,1 C 7,7 C 3,2 km/h (1 Bft) 100,00 %
06.11.2015 21:38 7,7 C 96 % 1026,4 hPa 0,0 l/m 0,6 km/h (0 Bft) NO 45 0 min 0,000 mm 0,0 UV-I 0 W/m 7,1 C 7,7 C 1,6 km/h (1 Bft) 100,00 %
06.11.2015 21:39 7,6 C 96 % 1026,5 hPa 0,0 l/m 0,7 km/h (0 Bft) O-NO 57 0 min 0,000 mm 0,0 UV-I 0 W/m 7,0 C 7,6 C 1,6 km/h (1 Bft) 100,00 %
06.11.2015 21:40 7,6 C 96 % 1026,5 hPa 0,0 l/m 1,5 km/h (1 Bft) NO 49 0 min 0,000 mm 0,0 UV-I 0 W/m 7,0 C 7,6 C 3,2 km/h (1 Bft) 95,65 %
06.11.2015 21:41 7,6 C 96 % 1026,5 hPa 0,0 l/m 0,6 km/h (0 Bft) NO 49 0 min 0,000 mm 0,0 UV-I 0 W/m 7,0 C 7,6 C 1,6 km/h (1 Bft) 95,83 %
06.11.2015 21:42 7,6 C 96 % 1026,5 hPa 0,0 l/m 0,7 km/h (0 Bft) NO 49 0 min 0,000 mm 0,0 UV-I 0 W/m 7,0 C 7,6 C 1,6 km/h (1 Bft) 100,00 %
06.11.2015 21:43 7,6 C 96 % 1026,5 hPa 0,0 l/m 0,7 km/h (0 Bft) NO 49 0 min 0,000 mm 0,0 UV-I 0 W/m 7,0 C 7,6 C 1,6 km/h (1 Bft) 100,00 %
06.11.2015 21:44 7,6 C 96 % 1026,5 hPa 0,0 l/m 1,4 km/h (1 Bft) NO 41 0 min 0,000 mm 0,0 UV-I 0 W/m 7,0 C 7,6 C 1,6 km/h (1 Bft) 96,15 %
06.11.2015 21:45 7,6 C 96 % 1026,5 hPa 0,0 l/m 1,6 km/h (1 Bft) O-NO 65 0 min 0,000 mm 0,0 UV-I 0 W/m 7,0 C 7,6 C 3,2 km/h (1 Bft) 100,00 %
06.11.2015 21:46 7,6 C 96 % 1026,5 hPa 0,0 l/m 0,7 km/h (0 Bft) O-NO 65 0 min 0,000 mm 0,0 UV-I 0 W/m 7,0 C 7,6 C 1,6 km/h (1 Bft) 100,00 %
06.11.2015 21:47 7,6 C 96 % 1026,5 hPa 0,0 l/m 0,3 km/h (0 Bft) O-NO 65 0 min 0,000 mm 0,0 UV-I 0 W/m 7,0 C 7,6 C 1,6 km/h (1 Bft) 100,00 %
06.11.2015 21:48 7,6 C 96 % 1026,5 hPa 0,0 l/m 0,3 km/h (0 Bft) O-NO 65 0 min 0,000 mm 0,0 UV-I 0 W/m 7,0 C 7,6 C 1,6 km/h (1 Bft) 95,83 %
06.11.2015 21:49 7,7 C 96 % 1026,5 hPa 0,0 l/m 0,0 km/h (0 Bft) O-NO 65 0 min 0,000 mm 0,0 UV-I 0 W/m 7,1 C 7,7 C 0,0 km/h (0 Bft) 100,00 %
06.11.2015 21:50 7,7 C 96 % 1026,5 hPa 0,0 l/m 0,2 km/h (0 Bft) O-NO 65 0 min 0,000 mm 0,0 UV-I 0 W/m 7,1 C 7,7 C 1,6 km/h (1 Bft) 100,00 %
06.11.2015 21:51 7,7 C 96 % 1026,5 hPa 0,0 l/m 1,2 km/h (1 Bft) O-NO 65 0 min 0,000 mm 0,0 UV-I 0 W/m 7,1 C 7,7 C 1,6 km/h (1 Bft) 100,00 %
06.11.2015 21:52 7,7 C 96 % 1026,5 hPa 0,0 l/m 0,4 km/h (0 Bft) O-NO 65 0 min 0,000 mm 0,0 UV-I 0 W/m 7,1 C 7,7 C 1,6 km/h (1 Bft) 100,00 %
06.11.2015 21:53 7,7 C 96 % 1026,5 hPa 0,0 l/m 0,3 km/h (0 Bft) O-NO 65 0 min 0,000 mm 0,0 UV-I 0 W/m 7,1 C 7,7 C 1,6 km/h (1 Bft) 100,00 %
06.11.2015 21:54 7,7 C 96 % 1026,5 hPa 0,0 l/m 1,8 km/h (1 Bft) O-NO 65 0 min 0,000 mm 0,0 UV-I 0 W/m 7,1 C 7,7 C 3,2 km/h (1 Bft) 100,00 %
06.11.2015 21:55 7,6 C 96 % 1026,4 hPa 0,0 l/m 1,5 km/h (1 Bft) O-NO 65 0 min 0,000 mm 0,0 UV-I 0 W/m 7,0 C 7,6 C 3,2 km/h (1 Bft) 100,00 %
06.11.2015 21:56 7,6 C 96 % 1026,4 hPa 0,0 l/m 0,7 km/h (0 Bft) O-NO 65 0 min 0,000 mm 0,0 UV-I 0 W/m 7,0 C 7,6 C 1,6 km/h (1 Bft) 100,00 %
06.11.2015 21:57 7,6 C 96 % 1026,4 hPa 0,0 l/m 0,3 km/h (0 Bft) O-NO 65 0 min 0,000 mm 0,0 UV-I 0 W/m 7,0 C 7,6 C 1,6 km/h (1 Bft) 100,00 %
06.11.2015 21:58 7,6 C 96 % 1026,3 hPa 0,0 l/m 0,7 km/h (0 Bft) O-NO 65 0 min 0,000 mm 0,0 UV-I 0 W/m 7,0 C 7,6 C 1,6 km/h (1 Bft) 95,83 %
06.11.2015 21:59 7,6 C 96 % 1026,4 hPa 0,0 l/m 0,5 km/h (0 Bft) O-NO 65 0 min 0,000 mm 0,0 UV-I 0 W/m 7,0 C 7,6 C 1,6 km/h (1 Bft) 100,00 %
06.11.2015 22:00 7,6 C 96 % 1026,4 hPa 0,0 l/m 1,2 km/h (1 Bft) O-NO 65 0 min 0,000 mm 0,0 UV-I 0 W/m 7,0 C 7,6 C 3,2 km/h (1 Bft) 100,00 %
06.11.2015 22:02 7,6 C 96 % 1026,4 hPa 0,0 l/m 0,2 km/h (0 Bft) O-NO 65 0 min 0,000 mm 0,0 UV-I 0 W/m 7,0 C 7,6 C 1,6 km/h (1 Bft) 100,00 %
06.11.2015 22:03 7,6 C 96 % 1026,3 hPa 0,0 l/m 0,0 km/h (0 Bft) O-NO 65 0 min 0,000 mm 0,0 UV-I 0 W/m 7,0 C 7,6 C 0,0 km/h (0 Bft) 100,00 %
06.11.2015 22:04 7,5 C 96 % 1026,3 hPa 0,0 l/m 0,1 km/h (0 Bft) O-NO 65 0 min 0,000 mm 0,0 UV-I 0 W/m 6,9 C 7,5 C 1,6 km/h (1 Bft) 100,00 %
06.11.2015 22:05 7,5 C 96 % 1026,3 hPa 0,0 l/m 0,0 km/h (0 Bft) O-NO 65 0 min 0,000 mm 0,0 UV-I 0 W/m 6,9 C 7,5 C 0,0 km/h (0 Bft) 100,00 %
06.11.2015 22:06 7,5 C 96 % 1026,4 hPa 0,0 l/m 0,0 km/h (0 Bft) O-NO 65 0 min 0,000 mm 0,0 UV-I 0 W/m 6,9 C 7,5 C 0,0 km/h (0 Bft) 100,00 %
06.11.2015 22:07 7,5 C 96 % 1026,4 hPa 0,0 l/m 0,0 km/h (0 Bft) O-NO 65 0 min 0,000 mm 0,0 UV-I 0 W/m 6,9 C 7,5 C 0,0 km/h (0 Bft) 100,00 %
06.11.2015 22:08 7,5 C 96 % 1026,4 hPa 0,0 l/m 0,0 km/h (0 Bft) O-NO 65 0 min 0,000 mm 0,0 UV-I 0 W/m 6,9 C 7,5 C 0,0 km/h (0 Bft) 100,00 %
06.11.2015 22:09 7,5 C 96 % 1026,4 hPa 0,0 l/m 0,0 km/h (0 Bft) O-NO 65 0 min 0,000 mm 0,0 UV-I 0 W/m 6,9 C 7,5 C 0,0 km/h (0 Bft) 100,00 %
06.11.2015 22:10 7,5 C 96 % 1026,4 hPa 0,0 l/m 0,0 km/h (0 Bft) O-NO 65 0 min 0,000 mm 0,0 UV-I 0 W/m 6,9 C 7,5 C 0,0 km/h (0 Bft) 100,00 %
06.11.2015 22:11 7,5 C 96 % 1026,3 hPa 0,0 l/m 0,0 km/h (0 Bft) O-NO 65 0 min 0,000 mm 0,0 UV-I 0 W/m 6,9 C 7,5 C 0,0 km/h (0 Bft) 100,00 %
06.11.2015 22:12 7,4 C 96 % 1026,3 hPa 0,0 l/m 0,0 km/h (0 Bft) O-NO 65 0 min 0,000 mm 0,0 UV-I 0 W/m 6,8 C 7,4 C 0,0 km/h (0 Bft) 100,00 %
06.11.2015 22:13 7,4 C 96 % 1026,4 hPa 0,0 l/m 0,0 km/h (0 Bft) O-NO 65 0 min 0,000 mm 0,0 UV-I 0 W/m 6,8 C 7,4 C 0,0 km/h (0 Bft) 100,00 %
06.11.2015 22:14 7,4 C 96 % 1026,4 hPa 0,0 l/m 0,2 km/h (0 Bft) O-NO 65 0 min 0,000 mm 0,0 UV-I 0 W/m 6,8 C 7,4 C 1,6 km/h (1 Bft) 100,00 %
06.11.2015 22:15 7,4 C 96 % 1026,4 hPa 0,0 l/m 0,2 km/h (0 Bft) O-NO 65 0 min 0,000 mm 0,0 UV-I 0 W/m 6,8 C 7,4 C 1,6 km/h (1 Bft) 100,00 %
06.11.2015 22:16 7,4 C 96 % 1026,5 hPa 0,0 l/m 0,1 km/h (0 Bft) O-NO 65 0 min 0,000 mm 0,0 UV-I 0 W/m 6,8 C 7,4 C 1,6 km/h (1 Bft) 100,00 %
06.11.2015 22:17 7,3 C 96 % 1026,5 hPa 0,0 l/m 0,2 km/h (0 Bft) O-NO 65 0 min 0,000 mm 0,0 UV-I 0 W/m 6,7 C 7,3 C 1,6 km/h (1 Bft) 100,00 %
06.11.2015 22:18 7,3 C 96 % 1026,5 hPa 0,0 l/m 0,0 km/h (0 Bft) O-NO 65 0 min 0,000 mm 0,0 UV-I 0 W/m 6,7 C 7,3 C 0,0 km/h (0 Bft) 100,00 %
06.11.2015 22:19 7,3 C 96 % 1026,6 hPa 0,0 l/m 0,0 km/h (0 Bft) O-NO 65 0 min 0,000 mm 0,0 UV-I 0 W/m 6,7 C 7,3 C 0,0 km/h (0 Bft) 100,00 %
06.11.2015 22:20 7,3 C 96 % 1026,6 hPa 0,0 l/m 0,0 km/h (0 Bft) O-NO 65 0 min 0,000 mm 0,0 UV-I 0 W/m 6,7 C 7,3 C 0,0 km/h (0 Bft) 100,00 %
06.11.2015 22:21 7,2 C 96 % 1026,5 hPa 0,0 l/m 0,7 km/h (0 Bft) O-NO 65 0 min 0,000 mm 0,0 UV-I 0 W/m 6,6 C 7,2 C 1,6 km/h (1 Bft) 100,00 %
06.11.2015 22:22 7,2 C 96 % 1026,6 hPa 0,0 l/m 0,0 km/h (0 Bft) O-NO 65 0 min 0,000 mm 0,0 UV-I 0 W/m 6,6 C 7,2 C 0,0 km/h (0 Bft) 100,00 %
06.11.2015 22:23 7,2 C 96 % 1026,6 hPa 0,0 l/m 0,0 km/h (0 Bft) O-NO 65 0 min 0,000 mm 0,0 UV-I 0 W/m 6,6 C 7,2 C 0,0 km/h (0 Bft) 100,00 %
06.11.2015 22:24 7,2 C 96 % 1026,5 hPa 0,0 l/m 0,0 km/h (0 Bft) O-NO 65 0 min 0,000 mm 0,0 UV-I 0 W/m 6,6 C 7,2 C 0,0 km/h (0 Bft) 100,00 %
06.11.2015 22:25 7,2 C 96 % 1026,6 hPa 0,0 l/m 0,0 km/h (0 Bft) O-NO 65 0 min 0,000 mm 0,0 UV-I 0 W/m 6,6 C 7,2 C 0,0 km/h (0 Bft) 100,00 %
06.11.2015 22:26 7,2 C 96 % 1026,6 hPa 0,0 l/m 0,0 km/h (0 Bft) O-NO 65 0 min 0,000 mm 0,0 UV-I 0 W/m 6,6 C 7,2 C 0,0 km/h (0 Bft) 100,00 %
06.11.2015 22:27 7,2 C 96 % 1026,5 hPa 0,0 l/m 0,4 km/h (0 Bft) O-NO 65 0 min 0,000 mm 0,0 UV-I 0 W/m 6,6 C 7,2 C 1,6 km/h (1 Bft) 100,00 %
06.11.2015 22:28 7,2 C 96 % 1026,6 hPa 0,0 l/m 1,0 km/h (0 Bft) O-NO 65 0 min 0,000 mm 0,0 UV-I 0 W/m 6,6 C 7,2 C 1,6 km/h (1 Bft) 100,00 %
06.11.2015 22:29 7,2 C 96 % 1026,6 hPa 0,0 l/m 0,6 km/h (0 Bft) O-NO 65 0 min 0,000 mm 0,0 UV-I 0 W/m 6,6 C 7,2 C 1,6 km/h (1 Bft) 100,00 %
06.11.2015 22:30 7,1 C 96 % 1026,6 hPa 0,0 l/m 0,4 km/h (0 Bft) O-NO 65 0 min 0,000 mm 0,0 UV-I 0 W/m 6,5 C 7,1 C 1,6 km/h (1 Bft) 100,00 %
06.11.2015 22:31 7,1 C 96 % 1026,6 hPa 0,0 l/m 1,1 km/h (1 Bft) O-NO 65 0 min 0,000 mm 0,0 UV-I 0 W/m 6,5 C 7,1 C 1,6 km/h (1 Bft) 100,00 %
06.11.2015 22:32 7,1 C 96 % 1026,6 hPa 0,0 l/m 0,8 km/h (0 Bft) O-NO 65 0 min 0,000 mm 0,0 UV-I 0 W/m 6,5 C 7,1 C 1,6 km/h (1 Bft) 100,00 %
06.11.2015 22:33 7,1 C 96 % 1026,6 hPa 0,0 l/m 0,8 km/h (0 Bft) O-NO 65 0 min 0,000 mm 0,0 UV-I 0 W/m 6,5 C 7,1 C 1,6 km/h (1 Bft) 100,00 %
06.11.2015 22:34 7,1 C 96 % 1026,6 hPa 0,0 l/m 0,5 km/h (0 Bft) O-NO 65 0 min 0,000 mm 0,0 UV-I 0 W/m 6,5 C 7,1 C 1,6 km/h (1 Bft) 100,00 %
06.11.2015 22:35 7,1 C 96 % 1026,6 hPa 0,0 l/m 0,0 km/h (0 Bft) O-NO 65 0 min 0,000 mm 0,0 UV-I 0 W/m 6,5 C 7,1 C 0,0 km/h (0 Bft) 100,00 %
06.11.2015 22:36 7,1 C 97 % 1026,5 hPa 0,0 l/m 0,0 km/h (0 Bft) O-NO 65 0 min 0,000 mm 0,0 UV-I 0 W/m 6,7 C 7,1 C 0,0 km/h (0 Bft) 100,00 %
06.11.2015 22:37 7,1 C 97 % 1026,5 hPa 0,0 l/m 0,0 km/h (0 Bft) O-NO 65 0 min 0,000 mm 0,0 UV-I 0 W/m 6,7 C 7,1 C 0,0 km/h (0 Bft) 100,00 %
06.11.2015 22:38 7,1 C 97 % 1026,5 hPa 0,0 l/m 0,0 km/h (0 Bft) O-NO 65 0 min 0,000 mm 0,0 UV-I 0 W/m 6,7 C 7,1 C 0,0 km/h (0 Bft) 100,00 %
06.11.2015 22:39 7,1 C 97 % 1026,5 hPa 0,0 l/m 0,0 km/h (0 Bft) O-NO 65 0 min 0,000 mm 0,0 UV-I 0 W/m 6,7 C 7,1 C 0,0 km/h (0 Bft) 95,65 %
06.11.2015 22:40 7,1 C 97 % 1026,4 hPa 0,0 l/m 0,1 km/h (0 Bft) O-NO 65 0 min 0,000 mm 0,0 UV-I 0 W/m 6,7 C 7,1 C 1,6 km/h (1 Bft) 100,00 %
06.11.2015 22:41 7,1 C 97 % 1026,5 hPa 0,0 l/m 0,2 km/h (0 Bft) O-NO 65 0 min 0,000 mm 0,0 UV-I 0 W/m 6,7 C 7,1 C 1,6 km/h (1 Bft) 100,00 %
06.11.2015 22:42 7,1 C 97 % 1026,4 hPa 0,0 l/m 0,9 km/h (0 Bft) O-NO 65 0 min 0,000 mm 0,0 UV-I 0 W/m 6,7 C 7,1 C 1,6 km/h (1 Bft) 100,00 %
06.11.2015 22:43 7,1 C 97 % 1026,5 hPa 0,0 l/m 0,5 km/h (0 Bft) O-NO 65 0 min 0,000 mm 0,0 UV-I 0 W/m 6,7 C 7,1 C 1,6 km/h (1 Bft) 100,00 %
06.11.2015 22:44 7,1 C 97 % 1026,5 hPa 0,0 l/m 0,0 km/h (0 Bft) O-NO 65 0 min 0,000 mm 0,0 UV-I 0 W/m 6,7 C 7,1 C 0,0 km/h (0 Bft) 100,00 %
06.11.2015 22:45 7,0 C 97 % 1026,5 hPa 0,0 l/m 0,0 km/h (0 Bft) O-NO 65 0 min 0,000 mm 0,0 UV-I 0 W/m 6,6 C 7,0 C 0,0 km/h (0 Bft) 100,00 %
06.11.2015 22:46 6,9 C 96 % 1026,5 hPa 0,0 l/m 0,0 km/h (0 Bft) O-NO 65 0 min 0,000 mm 0,0 UV-I 0 W/m 6,3 C 6,9 C 0,0 km/h (0 Bft) 100,00 %
06.11.2015 22:47 6,9 C 96 % 1026,5 hPa 0,0 l/m 0,0 km/h (0 Bft) O-NO 65 0 min 0,000 mm 0,0 UV-I 0 W/m 6,3 C 6,9 C 0,0 km/h (0 Bft) 100,00 %
06.11.2015 22:48 6,8 C 96 % 1026,5 hPa 0,0 l/m 0,4 km/h (0 Bft) O-NO 65 0 min 0,000 mm 0,0 UV-I 0 W/m 6,2 C 6,8 C 1,6 km/h (1 Bft) 95,83 %
06.11.2015 22:49 6,9 C 97 % 1026,5 hPa 0,0 l/m 0,2 km/h (0 Bft) O-NO 65 0 min 0,000 mm 0,0 UV-I 0 W/m 6,5 C 6,9 C 1,6 km/h (1 Bft) 100,00 %
06.11.2015 22:50 6,9 C 97 % 1026,5 hPa 0,0 l/m 0,0 km/h (0 Bft) O-NO 65 0 min 0,000 mm 0,0 UV-I 0 W/m 6,5 C 6,9 C 0,0 km/h (0 Bft) 99,36 %
06.11.2015 22:51 6,9 C 97 % 1026,5 hPa 0,0 l/m 0,0 km/h (0 Bft) O-NO 65 0 min 0,000 mm 0,0 UV-I 0 W/m 6,5 C 6,9 C 0,0 km/h (0 Bft) 97,44 %
06.11.2015 22:52 6,9 C 97 % 1026,5 hPa 0,0 l/m 0,0 km/h (0 Bft) O-NO 65 0 min 0,000 mm 0,0 UV-I 0 W/m 6,5 C 6,9 C 0,0 km/h (0 Bft) 100,00 %
06.11.2015 22:53 6,8 C 96 % 1026,5 hPa 0,0 l/m 0,5 km/h (0 Bft) O-NO 65 0 min 0,000 mm 0,0 UV-I 0 W/m 6,2 C 6,8 C 1,6 km/h (1 Bft) 100,00 %
06.11.2015 22:54 6,8 C 96 % 1026,5 hPa 0,0 l/m 0,5 km/h (0 Bft) O-NO 65 0 min 0,000 mm 0,0 UV-I 0 W/m 6,2 C 6,8 C 1,6 km/h (1 Bft) 100,00 %
06.11.2015 22:55 6,8 C 96 % 1026,5 hPa 0,0 l/m 0,5 km/h (0 Bft) O-NO 65 0 min 0,000 mm 0,0 UV-I 0 W/m 6,2 C 6,8 C 1,6 km/h (1 Bft) 100,00 %
06.11.2015 22:56 6,8 C 96 % 1026,5 hPa 0,0 l/m 0,4 km/h (0 Bft) O-NO 65 0 min 0,000 mm 0,0 UV-I 0 W/m 6,2 C 6,8 C 1,6 km/h (1 Bft) 100,00 %
06.11.2015 22:57 6,8 C 97 % 1026,4 hPa 0,0 l/m 0,7 km/h (0 Bft) O-NO 65 0 min 0,000 mm 0,0 UV-I 0 W/m 6,4 C 6,8 C 1,6 km/h (1 Bft) 100,00 %
06.11.2015 22:58 6,8 C 97 % 1026,4 hPa 0,0 l/m 0,0 km/h (0 Bft) O-NO 65 0 min 0,000 mm 0,0 UV-I 0 W/m 6,4 C 6,8 C 0,0 km/h (0 Bft) 90,91 %
06.11.2015 22:59 6,8 C 97 % 1026,4 hPa 0,0 l/m 0,1 km/h (0 Bft) O-NO 65 0 min 0,000 mm 0,0 UV-I 0 W/m 6,4 C 6,8 C 1,6 km/h (1 Bft) 96,30 %
06.11.2015 23:00 6,8 C 97 % 1026,4 hPa 0,0 l/m 0,9 km/h (0 Bft) O-NO 65 0 min 0,000 mm 0,0 UV-I 0 W/m 6,4 C 6,8 C 1,6 km/h (1 Bft) 96,15 %
06.11.2015 23:01 6,8 C 97 % 1026,3 hPa 0,0 l/m 1,1 km/h (1 Bft) O-NO 65 0 min 0,000 mm 0,0 UV-I 0 W/m 6,4 C 6,8 C 1,6 km/h (1 Bft) 100,00 %
06.11.2015 23:02 6,8 C 97 % 1026,3 hPa 0,0 l/m 1,0 km/h (0 Bft) O-NO 65 0 min 0,000 mm 0,0 UV-I 0 W/m 6,4 C 6,8 C 1,6 km/h (1 Bft) 100,00 %
06.11.2015 23:03 6,7 C 97 % 1026,3 hPa 0,0 l/m 0,9 km/h (0 Bft) O-NO 65 0 min 0,000 mm 0,0 UV-I 0 W/m 6,3 C 6,7 C 1,6 km/h (1 Bft) 100,00 %
06.11.2015 23:04 6,7 C 97 % 1026,3 hPa 0,0 l/m 0,8 km/h (0 Bft) O-NO 65 0 min 0,000 mm 0,0 UV-I 0 W/m 6,3 C 6,7 C 1,6 km/h (1 Bft) 100,00 %
06.11.2015 23:05 6,8 C 97 % 1026,3 hPa 0,0 l/m 0,9 km/h (0 Bft) O-NO 65 0 min 0,000 mm 0,0 UV-I 0 W/m 6,4 C 6,8 C 1,6 km/h (1 Bft) 100,00 %
06.11.2015 23:06 6,8 C 97 % 1026,3 hPa 0,0 l/m 0,9 km/h (0 Bft) O-NO 65 0 min 0,000 mm 0,0 UV-I 0 W/m 6,4 C 6,8 C 1,6 km/h (1 Bft) 100,00 %
06.11.2015 23:07 6,9 C 97 % 1026,3 hPa 0,0 l/m 0,1 km/h (0 Bft) O-NO 65 0 min 0,000 mm 0,0 UV-I 0 W/m 6,5 C 6,9 C 1,6 km/h (1 Bft) 100,00 %
06.11.2015 23:08 7,0 C 97 % 1026,4 hPa 0,0 l/m 0,0 km/h (0 Bft) O-NO 65 0 min 0,000 mm 0,0 UV-I 0 W/m 6,6 C 7,0 C 0,0 km/h (0 Bft) 100,00 %
06.11.2015 23:09 6,9 C 97 % 1026,4 hPa 0,0 l/m 0,0 km/h (0 Bft) O-NO 65 0 min 0,000 mm 0,0 UV-I 0 W/m 6,5 C 6,9 C 0,0 km/h (0 Bft) 100,00 %
06.11.2015 23:10 6,9 C 97 % 1026,4 hPa 0,0 l/m 0,0 km/h (0 Bft) O-NO 65 0 min 0,000 mm 0,0 UV-I 0 W/m 6,5 C 6,9 C 0,0 km/h (0 Bft) 100,00 %
06.11.2015 23:11 6,9 C 97 % 1026,4 hPa 0,0 l/m 0,0 km/h (0 Bft) O-NO 65 0 min 0,000 mm 0,0 UV-I 0 W/m 6,5 C 6,9 C 0,0 km/h (0 Bft) 100,00 %
06.11.2015 23:12 7,1 C 97 % 1026,4 hPa 0,0 l/m 0,0 km/h (0 Bft) O-NO 65 0 min 0,000 mm 0,0 UV-I 0 W/m 6,7 C 7,1 C 0,0 km/h (0 Bft) 100,00 %
06.11.2015 23:13 7,1 C 97 % 1026,4 hPa 0,0 l/m 0,0 km/h (0 Bft) O-NO 65 0 min 0,000 mm 0,0 UV-I 0 W/m 6,7 C 7,1 C 0,0 km/h (0 Bft) 96,15 %
06.11.2015 23:14 7,0 C 97 % 1026,4 hPa 0,0 l/m 0,0 km/h (0 Bft) O-NO 65 0 min 0,000 mm 0,0 UV-I 0 W/m 6,6 C 7,0 C 0,0 km/h (0 Bft) 100,00 %
06.11.2015 23:15 6,9 C 97 % 1026,3 hPa 0,0 l/m 0,0 km/h (0 Bft) O-NO 65 0 min 0,000 mm 0,0 UV-I 0 W/m 6,5 C 6,9 C 0,0 km/h (0 Bft) 100,00 %
06.11.2015 23:16 6,9 C 97 % 1026,3 hPa 0,0 l/m 0,0 km/h (0 Bft) O-NO 65 0 min 0,000 mm 0,0 UV-I 0 W/m 6,5 C 6,9 C 0,0 km/h (0 Bft) 100,00 %
06.11.2015 23:17 6,9 C 97 % 1026,4 hPa 0,0 l/m 0,0 km/h (0 Bft) O-NO 65 0 min 0,000 mm 0,0 UV-I 0 W/m 6,5 C 6,9 C 0,0 km/h (0 Bft) 100,00 %
06.11.2015 23:18 6,9 C 97 % 1026,4 hPa 0,0 l/m 0,0 km/h (0 Bft) O-NO 65 0 min 0,000 mm 0,0 UV-I 0 W/m 6,5 C 6,9 C 0,0 km/h (0 Bft) 95,83 %
06.11.2015 23:19 6,9 C 97 % 1026,4 hPa 0,0 l/m 0,0 km/h (0 Bft) O-NO 65 0 min 0,000 mm 0,0 UV-I 0 W/m 6,5 C 6,9 C 0,0 km/h (0 Bft) 99,36 %
06.11.2015 23:20 6,9 C 97 % 1026,4 hPa 0,0 l/m 0,0 km/h (0 Bft) O-NO 65 0 min 0,000 mm 0,0 UV-I 0 W/m 6,5 C 6,9 C 0,0 km/h (0 Bft) 100,00 %
06.11.2015 23:21 6,9 C 97 % 1026,4 hPa 0,0 l/m 0,0 km/h (0 Bft) O-NO 65 0 min 0,000 mm 0,0 UV-I 0 W/m 6,5 C 6,9 C 0,0 km/h (0 Bft) 95,65 %
06.11.2015 23:22 6,9 C 97 % 1026,4 hPa 0,0 l/m 0,0 km/h (0 Bft) O-NO 65 0 min 0,000 mm 0,0 UV-I 0 W/m 6,5 C 6,9 C 0,0 km/h (0 Bft) 100,00 %
06.11.2015 23:23 6,9 C 97 % 1026,4 hPa 0,0 l/m 0,0 km/h (0 Bft) O-NO 65 0 min 0,000 mm 0,0 UV-I 0 W/m 6,5 C 6,9 C 0,0 km/h (0 Bft) 100,00 %
06.11.2015 23:24 6,9 C 97 % 1026,4 hPa 0,0 l/m 0,0 km/h (0 Bft) O-NO 65 0 min 0,000 mm 0,0 UV-I 0 W/m 6,5 C 6,9 C 0,0 km/h (0 Bft) 100,00 %
06.11.2015 23:25 6,9 C 97 % 1026,4 hPa 0,0 l/m 0,0 km/h (0 Bft) O-NO 65 0 min 0,000 mm 0,0 UV-I 0 W/m 6,5 C 6,9 C 0,0 km/h (0 Bft) 100,00 %
06.11.2015 23:26 6,9 C 97 % 1026,4 hPa 0,0 l/m 0,0 km/h (0 Bft) O-NO 65 0 min 0,000 mm 0,0 UV-I 0 W/m 6,5 C 6,9 C 0,0 km/h (0 Bft) 100,00 %
06.11.2015 23:27 6,9 C 97 % 1026,4 hPa 0,0 l/m 0,0 km/h (0 Bft) O-NO 65 0 min 0,000 mm 0,0 UV-I 0 W/m 6,5 C 6,9 C 0,0 km/h (0 Bft) 100,00 %
06.11.2015 23:28 6,9 C 97 % 1026,4 hPa 0,0 l/m 0,0 km/h (0 Bft) O-NO 65 0 min 0,000 mm 0,0 UV-I 0 W/m 6,5 C 6,9 C 0,0 km/h (0 Bft) 100,00 %
06.11.2015 23:29 6,9 C 97 % 1026,5 hPa 0,0 l/m 0,0 km/h (0 Bft) O-NO 65 0 min 0,000 mm 0,0 UV-I 0 W/m 6,5 C 6,9 C 0,0 km/h (0 Bft) 95,83 %
06.11.2015 23:30 6,9 C 97 % 1026,4 hPa 0,0 l/m 0,0 km/h (0 Bft) O-NO 65 0 min 0,000 mm 0,0 UV-I 0 W/m 6,5 C 6,9 C 0,0 km/h (0 Bft) 95,65 %
06.11.2015 23:31 6,9 C 97 % 1026,5 hPa 0,0 l/m 0,0 km/h (0 Bft) O-NO 65 0 min 0,000 mm 0,0 UV-I 0 W/m 6,5 C 6,9 C 0,0 km/h (0 Bft) 100,00 %
06.11.2015 23:32 6,9 C 97 % 1026,5 hPa 0,0 l/m 0,0 km/h (0 Bft) O-NO 65 0 min 0,000 mm 0,0 UV-I 0 W/m 6,5 C 6,9 C 0,0 km/h (0 Bft) 100,00 %
06.11.2015 23:33 6,9 C 97 % 1026,5 hPa 0,0 l/m 0,0 km/h (0 Bft) O-NO 65 0 min 0,000 mm 0,0 UV-I 0 W/m 6,5 C 6,9 C 0,0 km/h (0 Bft) 100,00 %
06.11.2015 23:34 6,9 C 96 % 1026,5 hPa 0,0 l/m 0,0 km/h (0 Bft) O-NO 65 0 min 0,000 mm 0,0 UV-I 0 W/m 6,3 C 6,9 C 0,0 km/h (0 Bft) 100,00 %
06.11.2015 23:35 6,9 C 96 % 1026,5 hPa 0,0 l/m 0,0 km/h (0 Bft) O-NO 65 0 min 0,000 mm 0,0 UV-I 0 W/m 6,3 C 6,9 C 0,0 km/h (0 Bft) 100,00 %
06.11.2015 23:36 6,9 C 96 % 1026,5 hPa 0,0 l/m 0,0 km/h (0 Bft) O-NO 65 0 min 0,000 mm 0,0 UV-I 0 W/m 6,3 C 6,9 C 0,0 km/h (0 Bft) 100,00 %
06.11.2015 23:37 6,8 C 96 % 1026,6 hPa 0,0 l/m 0,0 km/h (0 Bft) O-NO 65 0 min 0,000 mm 0,0 UV-I 0 W/m 6,2 C 6,8 C 0,0 km/h (0 Bft) 100,00 %
06.11.2015 23:38 6,8 C 96 % 1026,5 hPa 0,0 l/m 0,0 km/h (0 Bft) O-NO 65 0 min 0,000 mm 0,0 UV-I 0 W/m 6,2 C 6,8 C 0,0 km/h (0 Bft) 100,00 %
06.11.2015 23:39 6,8 C 96 % 1026,5 hPa 0,0 l/m 0,0 km/h (0 Bft) O-NO 65 0 min 0,000 mm 0,0 UV-I 0 W/m 6,2 C 6,8 C 0,0 km/h (0 Bft) 100,00 %
06.11.2015 23:40 6,8 C 96 % 1026,5 hPa 0,0 l/m 0,0 km/h (0 Bft) O-NO 65 0 min 0,000 mm 0,0 UV-I 0 W/m 6,2 C 6,8 C 0,0 km/h (0 Bft) 100,00 %
06.11.2015 23:41 6,8 C 97 % 1026,5 hPa 0,0 l/m 0,0 km/h (0 Bft) O-NO 65 0 min 0,000 mm 0,0 UV-I 0 W/m 6,4 C 6,8 C 0,0 km/h (0 Bft) 95,65 %
06.11.2015 23:42 6,8 C 97 % 1026,5 hPa 0,0 l/m 0,0 km/h (0 Bft) O-NO 65 0 min 0,000 mm 0,0 UV-I 0 W/m 6,4 C 6,8 C 0,0 km/h (0 Bft) 100,00 %
06.11.2015 23:43 6,8 C 97 % 1026,5 hPa 0,0 l/m 0,0 km/h (0 Bft) O-NO 65 0 min 0,000 mm 0,0 UV-I 0 W/m 6,4 C 6,8 C 0,0 km/h (0 Bft) 100,00 %
06.11.2015 23:44 6,8 C 97 % 1026,5 hPa 0,0 l/m 0,0 km/h (0 Bft) O-NO 65 0 min 0,000 mm 0,0 UV-I 0 W/m 6,4 C 6,8 C 0,0 km/h (0 Bft) 100,00 %
06.11.2015 23:45 6,7 C 97 % 1026,6 hPa 0,0 l/m 0,0 km/h (0 Bft) O-NO 65 0 min 0,000 mm 0,0 UV-I 0 W/m 6,3 C 6,7 C 0,0 km/h (0 Bft) 100,00 %
06.11.2015 23:46 6,7 C 97 % 1026,7 hPa 0,0 l/m 0,0 km/h (0 Bft) O-NO 65 0 min 0,000 mm 0,0 UV-I 0 W/m 6,3 C 6,7 C 0,0 km/h (0 Bft) 100,00 %
06.11.2015 23:47 6,7 C 97 % 1026,6 hPa 0,0 l/m 0,0 km/h (0 Bft) O-NO 65 0 min 0,000 mm 0,0 UV-I 0 W/m 6,3 C 6,7 C 0,0 km/h (0 Bft) 100,00 %
06.11.2015 23:48 6,6 C 96 % 1026,6 hPa 0,0 l/m 0,3 km/h (0 Bft) O-NO 65 0 min 0,000 mm 0,0 UV-I 0 W/m 6,0 C 6,6 C 1,6 km/h (1 Bft) 100,00 %
06.11.2015 23:49 6,6 C 96 % 1026,6 hPa 0,0 l/m 0,2 km/h (0 Bft) O-NO 65 0 min 0,000 mm 0,0 UV-I 0 W/m 6,0 C 6,6 C 1,6 km/h (1 Bft) 100,00 %
06.11.2015 23:50 6,6 C 96 % 1026,7 hPa 0,0 l/m 0,0 km/h (0 Bft) O-NO 65 0 min 0,000 mm 0,0 UV-I 0 W/m 6,0 C 6,6 C 0,0 km/h (0 Bft) 100,00 %
06.11.2015 23:51 6,6 C 96 % 1026,6 hPa 0,0 l/m 0,0 km/h (0 Bft) O-NO 65 0 min 0,000 mm 0,0 UV-I 0 W/m 6,0 C 6,6 C 0,0 km/h (0 Bft) 100,00 %
06.11.2015 23:52 6,6 C 97 % 1026,7 hPa 0,0 l/m 0,0 km/h (0 Bft) O-NO 65 0 min 0,000 mm 0,0 UV-I 0 W/m 6,2 C 6,6 C 0,0 km/h (0 Bft) 100,00 %
06.11.2015 23:53 6,6 C 97 % 1026,7 hPa 0,0 l/m 0,0 km/h (0 Bft) O-NO 65 0 min 0,000 mm 0,0 UV-I 0 W/m 6,2 C 6,6 C 0,0 km/h (0 Bft) 90,91 %
06.11.2015 23:54 6,7 C 97 % 1026,5 hPa 0,0 l/m 0,2 km/h (0 Bft) O-NO 65 0 min 0,000 mm 0,0 UV-I 0 W/m 6,3 C 6,7 C 1,6 km/h (1 Bft) 100,00 %
06.11.2015 23:55 6,7 C 97 % 1026,5 hPa 0,0 l/m 1,6 km/h (1 Bft) O-SO 121 0 min 0,000 mm 0,0 UV-I 0 W/m 6,3 C 6,7 C 3,2 km/h (1 Bft) 100,00 %
06.11.2015 23:56 6,8 C 97 % 1026,5 hPa 0,0 l/m 1,5 km/h (1 Bft) O-SO 123 0 min 0,000 mm 0,0 UV-I 0 W/m 6,4 C 6,8 C 3,2 km/h (1 Bft) 100,00 %
06.11.2015 23:57 6,8 C 97 % 1026,5 hPa 0,0 l/m 1,0 km/h (0 Bft) O-SO 123 0 min 0,000 mm 0,0 UV-I 0 W/m 6,4 C 6,8 C 1,6 km/h (1 Bft) 100,00 %
06.11.2015 23:58 6,8 C 97 % 1026,5 hPa 0,0 l/m 0,6 km/h (0 Bft) O-SO 123 0 min 0,000 mm 0,0 UV-I 0 W/m 6,4 C 6,8 C 1,6 km/h (1 Bft) 100,00 %
06.11.2015 23:59 6,9 C 97 % 1026,5 hPa 0,0 l/m 0,8 km/h (0 Bft) O-SO 123 0 min 0,000 mm 0,0 UV-I 0 W/m 6,5 C 6,9 C 1,6 km/h (1 Bft) 100,00 %
_ Min-Zeit 06:58 14:35 00:01 - 00:00 - - - - - - 06:58 06:58 00:00 00:01
Minimum _ 1,4 C 79 % 1022,8 hPa - 0,0 km/h (0 Bft) - - - - - - 1,1 C 1,4 C 0,0 km/h (0 Bft) 90,91 %
_ Max-Zeit 15:14 08:52 23:46 00:00 12:47 - - 14:10 12:02 12:05 13:14 14:52 15:14 11:19 00:00
Maximum _ 13,2 C 99 % 1026,7 hPa 0,0 l/m 4,3 km/h
N-NO (1 Bft)
- - 5 min 0,178 mm 1,5 UV-I 505 W/m 10,2 C 13,2 C 6,4 km/h
NO (2 Bft)
100,00 %
Durchschnitt _ 6,7 C 94 % 1025,2 hPa #0,0 l/m 0,6 km/h (0 Bft) N - #7:10 h #0,991 mm 1,0 UV-I 212 W/m 5,8 C 6,7 C 1,2 km/h (1 Bft) 99,32 %